GFSMA_con_3kmhel_000.txt.gz
Helicity
77 77 98 103 103 96 94 82 76 74 65 60 57 62 70 73 81 86 95 154 182 183 202 251 218 197 183 199 265 249 226 226 194 175 174 170 182 189 149 104 81 85 88
100 120 141 129 115 95 77 71 59 60 48 41 57 66 65 61 84 102 119 143 196 211 225 217 220 195 224 225 209 214 208 197 190 183 166 174 172 168 154 165 170 162 136
140 144 136 120 101 84 67 58 58 56 63 70 55 51 65 81 132 136 147 154 166 196 215 209 203 206 200 195 200 195 171 160 162 172 192 185 169 161 176 206 218 221 217
137 148 127 120 90 76 53 50 53 53 49 33 50 67 56 90 145 159 151 142 146 139 166 197 198 196 195 197 199 194 183 170 177 173 177 164 155 171 178 189 224 244 248
151 147 136 108 88 72 66 57 50 24 14 35 66 83 64 89 152 160 146 135 132 111 105 144 156 143 142 144 155 169 176 163 148 135 137 140 126 118 121 147 167 179 205
156 145 124 99 76 63 60 46 38 22 2 25 42 80 68 92 123 138 140 122 121 84 88 92 83 82 115 121 145 161 161 160 159 186 169 152 140 159 160 153 137 132 129
160 133 102 80 62 28 1 11 9 35 11 27 16 70 70 78 89 110 107 59 104 84 60 71 51 59 83 102 136 166 166 167 173 234 193 194 209 220 213 208 212 199 199
147 130 103 71 31 1 24 27 30 12 4 -2 -9 -6 36 68 132 89 89 101 78 79 65 81 78 95 99 105 109 147 158 168 199 222 215 224 245 261 263 261 258 245 235
160 132 96 56 41 19 7 8 11 21 16 7 19 -1 3 36 59 77 118 89 76 62 45 45 59 67 87 104 112 127 135 152 200 221 255 295 301 294 275 253 229 206 189
155 123 91 73 50 13 24 13 18 12 6 19 24 66 70 81 55 54 73 100 43 53 33 53 33 66 81 108 102 116 125 139 185 221 267 262 273 281 256 218 211 208 207
148 120 109 87 60 34 30 39 41 44 28 29 35 50 80 103 121 146 134 96 50 36 31 36 83 25 51 82 109 105 99 141 156 198 200 227 212 200 195 207 214 221 215
144 142 126 101 81 66 57 46 49 60 65 74 71 78 85 91 97 86 110 86 50 19 79 39 20 39 52 76 78 95 112 141 159 163 162 138 144 166 189 211 217 199 208
140 136 127 133 107 92 79 70 72 76 80 91 102 113 116 106 98 101 98 72 63 41 -22 70 -3 45 58 92 117 133 164 175 170 157 161 155 153 166 174 183 172 173 154
150 145 168 163 144 119 98 88 78 82 100 116 113 110 108 97 124 124 111 81 46 70 75 63 49 15 107 118 112 111 176 152 158 147 144 152 146 171 177 148 135 139 154
181 203 201 189 169 140 125 108 99 105 113 116 111 105 110 118 132 132 141 147 144 138 107 165 108 138 127 132 110 128 158 108 113 113 107 115 140 115 99 96 98 95 87
225 228 219 207 180 160 148 130 116 114 126 122 111 105 120 146 148 161 160 160 183 192 268 211 167 153 132 143 124 98 111 65 69 45 41 93 91 93 91 83 76 77 88
239 240 226 211 202 182 155 138 133 123 135 120 111 125 130 149 171 162 178 179 164 173 212 222 201 165 146 137 136 132 133 122 104 54 32 42 36 46 40 44 65 84 98
258 246 237 231 201 170 151 148 141 131 124 124 126 137 137 138 155 182 185 153 165 190 236 213 180 162 154 153 134 134 140 121 166 84 41 25 27 21 23 44 57 62 77
264 263 250 227 189 164 150 135 132 123 119 124 126 135 130 149 160 154 144 174 183 191 200 205 192 189 193 155 155 158 164 146 187 107 57 37 20 7 8 23 41 54 69
271 259 239 199 169 146 140 134 128 126 132 136 131 135 146 141 115 105 132 154 184 193 158 170 204 206 206 190 167 177 155 179 175 153 157 119 57 50 11 5 5 4 17
264 245 212 179 166 152 132 115 125 139 142 127 128 132 115 76 60 129 173 174 156 156 152 170 202 231 179 158 135 141 179 179 187 196 167 190 183 186 193 81 42 9 7
249 212 190 181 166 131 95 106 132 146 141 136 134 111 109 88 128 113 96 62 102 116 174 153 161 159 172 153 165 169 181 134 201 197 161 228 200 218 201 183 95 47 27
204 191 181 154 133 118 97 115 112 148 150 131 111 118 143 153 139 154 115 109 138 85 83 125 144 144 144 129 134 122 160 185 191 206 118 217 200 210 198 178 94 58 34
180 162 145 131 122 113 114 102 102 153 140 118 117 145 157 152 126 87 106 116 102 99 118 104 107 112 87 81 86 105 93 133 222 234 176 213 225 214 173 191 159 100 46
158 133 120 117 115 103 98 114 126 132 129 129 152 137 124 112 59 35 98 108 105 99 71 33 54 49 48 40 52 71 89 71 161 216 187 189 217 174 185 260 186 109 71
129 121 110 109 92 109 104 101 100 127 145 156 123 119 79 86 34 57 90 104 86 87 88 83 58 61 66 100 53 70 79 127 143 193 197 172 199 202 298 397 292 256 181

GFSMA_con_3kmhel_003.txt.gz
Helicity
85 101 111 105 89 86 84 74 70 66 66 66 67 64 68 50 51 61 75 131 155 203 206 214 190 152 213 206 188 195 173 164 164 153 156 161 161 168 166 163 143 112 97
123 134 142 124 104 85 73 69 66 57 56 55 64 65 51 42 65 76 80 99 150 172 173 169 167 187 172 170 191 186 155 160 152 152 145 160 157 151 146 148 150 153 143
161 149 138 122 102 85 71 61 51 51 62 61 60 52 59 65 88 109 104 112 118 161 173 170 169 162 158 170 175 171 164 137 166 165 163 135 142 160 169 154 151 157 158
159 160 150 129 88 69 52 46 52 45 46 44 51 55 49 63 111 123 118 114 117 118 135 171 176 165 160 151 143 147 157 136 124 118 98 94 110 124 121 131 128 132 143
175 162 134 99 72 61 57 46 39 30 35 50 53 46 48 74 132 137 150 130 126 138 125 132 141 142 144 129 118 124 133 127 120 124 113 162 136 95 93 104 113 115 122
175 151 124 96 71 68 60 43 36 16 6 32 38 45 61 74 86 105 113 102 116 130 109 92 94 81 92 76 74 89 104 108 98 103 120 124 113 110 110 112 122 123 108
177 150 119 92 77 68 44 22 -8 11 18 33 38 75 60 71 79 80 73 125 118 117 90 79 79 70 66 65 55 63 90 85 92 103 121 123 124 134 144 168 158 153 159
181 145 104 79 65 33 23 23 19 -4 -0 11 2 -16 33 46 67 42 99 91 125 115 118 102 95 87 82 83 87 94 104 125 133 142 158 160 163 176 204 206 199 198 189
170 140 112 89 64 30 19 14 4 16 27 12 17 -18 -22 18 51 61 73 112 85 64 59 34 21 32 54 67 78 94 104 114 115 124 161 185 217 238 222 209 200 194 184
170 145 120 91 68 41 24 3 -11 -2 -4 29 -1 24 14 22 -12 -20 23 61 58 59 15 -13 11 1 29 40 61 83 103 122 122 139 156 180 204 187 211 214 199 182 167
174 144 116 98 85 54 31 15 4 9 9 6 12 16 38 51 63 52 65 65 59 -0 -8 -5 -9 1 11 27 57 71 100 110 106 155 190 198 196 214 195 166 173 192 204
168 144 124 112 90 64 43 29 23 25 26 24 20 28 23 9 22 50 74 64 59 -1 41 -0 23 22 22 28 56 88 101 110 121 142 155 160 144 152 183 205 225 218 217
157 130 126 108 87 71 62 52 45 45 51 50 52 54 54 60 82 88 87 85 95 53 13 41 21 18 -5 73 74 80 92 104 149 172 186 190 181 206 227 233 241 194 157
153 140 139 122 107 96 85 74 63 64 67 68 71 79 89 88 83 81 87 76 62 74 67 90 53 59 83 79 59 49 74 99 122 117 127 160 176 181 181 256 196 207 232
166 156 143 136 129 119 105 90 79 85 89 96 100 101 93 83 92 98 112 127 131 114 102 117 108 113 83 57 62 92 116 86 70 71 87 78 87 116 122 151 164 171 165
181 166 165 159 148 133 120 105 108 110 109 113 110 97 92 97 98 120 142 148 150 160 232 168 135 99 68 73 55 58 65 50 53 44 44 47 46 55 57 68 88 102 114
187 190 181 176 160 146 132 138 129 112 113 119 115 116 114 116 139 153 157 165 177 172 197 187 151 117 85 81 87 82 73 75 98 40 29 12 8 18 25 20 21 52 69
214 205 199 186 168 161 154 143 117 118 135 142 138 131 130 155 154 154 163 158 161 142 161 150 141 135 128 99 77 78 87 113 117 84 26 16 12 1 -4 -9 -20 15 41
227 219 205 192 182 160 148 121 115 134 134 127 128 130 135 141 139 149 153 150 136 139 145 174 167 173 131 93 102 118 87 93 106 59 49 40 31 27 22 14 -7 -17 -25
230 219 209 183 170 149 125 119 124 128 131 131 135 138 135 129 133 137 128 98 112 139 141 166 182 161 137 105 105 91 77 94 90 97 114 80 72 61 46 38 16 -5 -21
233 210 182 173 155 131 129 126 128 135 133 142 143 133 135 132 103 106 135 136 130 147 170 174 163 147 108 92 82 89 107 106 113 94 104 122 152 154 167 87 49 13 -4
207 183 176 158 150 140 120 120 121 140 149 147 132 129 150 131 112 69 91 70 81 127 153 146 130 126 97 95 96 94 113 115 87 112 55 172 187 175 180 150 57 11 4
167 163 154 150 141 119 108 115 124 148 150 138 135 138 136 132 98 115 98 73 86 61 77 120 105 96 106 97 42 94 100 118 136 160 69 181 220 213 195 181 77 38 12
153 146 148 128 123 114 111 126 125 143 138 141 133 126 120 109 104 84 93 104 76 80 100 82 74 95 94 18 70 104 78 91 178 190 120 219 230 217 234 317 205 82 67
141 138 122 123 113 110 120 120 128 139 138 140 129 97 98 88 64 29 96 88 80 78 61 35 53 61 30 29 59 104 124 108 69 167 125 188 220 265 348 373 231 198 165
136 126 121 103 91 114 110 115 116 142 146 121 81 81 64 72 31 53 81 81 88 66 56 70 66 50 38 55 61 83 93 87 77 122 135 166 190 156 249 232 351 376 298

GFSMA_con_3kmhel_006.txt.gz
Helicity
114 131 112 100 87 74 65 64 60 60 58 50 40 38 46 42 34 44 66 104 128 139 141 143 148 163 161 174 179 169 141 128 135 129 107 102 118 133 134 133 131 135 120
142 153 141 125 98 79 65 59 55 49 40 34 35 44 44 36 43 53 63 79 120 139 138 141 150 151 158 161 159 144 149 132 153 175 158 126 117 127 134 128 132 140 141
155 157 142 117 104 75 60 48 34 28 27 31 39 38 36 38 45 65 76 87 88 123 148 157 158 154 155 152 142 135 143 145 125 130 138 108 93 102 114 109 111 115 127
166 167 150 131 105 76 50 34 27 24 25 31 37 36 36 41 66 90 103 110 112 109 106 152 156 141 139 137 134 127 138 139 124 108 101 95 77 78 76 84 85 87 91
161 154 141 124 95 66 43 24 22 26 30 40 41 37 41 46 72 89 105 104 103 110 111 116 128 106 125 128 132 125 129 137 119 109 104 107 92 86 76 62 62 78 87
170 165 147 115 78 46 32 15 19 20 21 39 39 38 47 56 65 80 92 83 101 104 111 110 100 84 79 94 100 103 99 101 90 90 86 93 92 82 75 77 78 71 81
187 164 137 107 71 55 35 25 5 5 18 41 50 52 61 71 64 86 107 68 105 101 102 107 93 89 92 93 93 98 90 85 84 84 88 87 96 92 87 92 87 99 110
188 161 124 93 67 38 28 17 7 -3 17 39 44 59 89 76 110 63 102 86 125 102 115 112 110 101 95 104 110 111 128 139 139 127 118 120 130 130 128 140 154 156 149
191 155 118 86 57 33 12 5 6 13 13 34 51 35 24 74 81 85 79 87 116 105 93 74 57 57 61 71 75 95 121 126 132 138 143 152 157 164 175 180 183 169 168
178 143 109 74 60 31 16 6 1 4 0 27 14 41 37 50 34 34 32 15 83 63 60 66 56 56 65 78 89 100 123 148 147 138 135 134 153 173 189 183 182 222 211
162 135 103 82 64 39 25 9 -3 3 9 20 38 43 40 39 32 38 46 49 61 46 42 49 15 20 35 53 55 66 131 89 105 133 152 176 198 208 225 233 225 247 272
162 140 113 93 67 45 23 13 12 15 25 38 43 46 46 49 49 42 39 45 48 34 64 41 24 34 61 64 76 119 72 80 95 115 139 151 149 147 163 189 173 228 189
155 135 113 89 71 53 38 28 25 28 39 50 58 62 61 56 67 70 66 73 86 68 39 23 56 65 61 69 80 87 97 100 115 121 128 123 139 169 208 220 220 186 177
157 134 121 102 85 64 49 44 46 52 63 73 75 77 84 88 94 93 97 95 85 79 75 99 83 100 101 128 110 78 90 86 69 61 63 85 108 120 128 141 151 170 152
164 144 128 113 90 74 67 65 59 65 76 99 96 97 103 108 104 102 108 115 108 89 97 107 92 150 165 154 129 127 113 80 86 57 50 57 77 86 86 81 88 98 122
169 156 136 118 104 94 88 68 69 91 100 120 120 119 116 116 108 119 125 133 147 149 202 199 182 193 179 160 116 106 98 92 71 47 48 44 44 35 36 38 44 45 48
169 158 145 132 116 106 95 79 100 109 125 136 136 130 113 114 120 136 151 162 175 185 225 216 207 185 154 128 124 123 116 113 96 38 25 28 29 27 31 26 27 24 31
183 173 158 145 131 124 106 101 115 135 139 139 135 124 116 134 132 158 187 183 197 205 233 199 188 162 126 113 125 96 92 99 81 54 26 20 17 23 28 25 -28 -24 -25
193 180 164 153 149 130 118 118 134 135 137 130 127 135 139 147 160 188 182 196 206 221 210 221 189 149 135 122 92 104 80 68 75 46 22 27 25 9 8 -28 -24 -18 -14
187 178 176 172 153 133 123 140 129 132 123 123 127 136 144 160 170 175 186 189 208 215 169 148 155 159 166 120 112 95 74 71 65 57 65 51 22 4 31 25 2 -12 -20
189 186 175 160 139 134 153 137 141 121 114 124 124 135 158 171 152 161 203 192 182 159 125 143 189 162 124 112 87 88 78 58 59 69 110 76 79 115 143 84 56 12 -12
190 175 162 142 142 144 150 141 123 123 124 121 135 151 164 166 167 152 161 118 83 101 104 155 137 144 97 96 79 67 71 0 49 63 101 138 116 152 175 159 82 40 2
167 152 137 140 133 143 141 127 115 113 130 147 152 155 171 191 171 165 102 45 61 61 75 110 112 86 92 64 73 35 -14 91 103 129 98 135 123 181 174 211 159 84 74
142 134 133 129 136 135 120 108 104 112 147 152 148 153 177 174 135 87 79 100 110 81 83 99 80 74 71 80 34 -40 50 -67 136 130 92 122 129 156 192 238 145 84 100
124 126 126 131 121 107 115 104 123 137 140 141 159 142 131 81 63 51 93 105 89 65 63 38 23 35 28 15 -9 95 114 109 129 90 72 103 121 101 152 188 87 113 163
124 124 122 100 106 95 113 119 119 132 156 172 118 88 96 90 58 63 93 89 81 58 53 49 49 48 39 38 31 73 107 115 109 65 75 72 96 59 55 76 98 168 176

GFSMA_con_3kmhel_009.txt.gz
Helicity
94 154 133 115 114 103 88 69 59 45 37 38 38 45 52 60 59 62 89 111 115 119 126 135 131 131 144 147 139 132 144 126 130 148 155 134 118 132 147 159 158 152 152
153 140 145 146 137 124 97 73 58 40 32 32 32 47 56 55 56 62 86 76 96 114 122 126 124 126 131 136 125 112 117 125 117 116 126 129 116 110 120 127 129 127 130
140 143 156 154 139 116 94 70 49 26 25 33 43 49 53 55 48 58 79 89 65 92 102 120 120 124 131 128 117 108 99 109 116 112 106 112 115 102 84 90 103 101 95
152 167 171 166 129 112 86 64 44 24 28 40 47 49 49 48 55 78 90 95 99 95 82 107 111 106 123 132 135 130 118 121 124 117 120 121 121 113 87 88 90 89 84
162 182 167 154 126 114 83 53 39 36 31 32 33 41 58 47 63 76 83 83 94 92 90 102 98 84 112 122 128 125 129 130 123 122 114 124 119 121 87 73 79 78 72
154 179 171 161 135 98 66 43 38 24 20 28 32 46 60 60 80 67 86 84 111 90 101 93 93 96 84 94 102 117 127 120 119 113 116 107 112 117 106 85 82 83 71
243 194 174 162 130 92 58 40 16 15 21 35 34 59 61 78 73 86 103 110 106 106 111 118 93 92 109 109 117 124 116 129 137 130 118 108 103 107 117 106 88 78 79
278 215 169 153 110 74 55 41 21 -5 12 20 23 22 80 66 77 104 106 122 94 120 123 103 101 105 108 101 119 117 148 159 159 164 163 161 157 147 139 123 115 117 131
310 251 177 142 106 72 48 30 11 12 5 18 32 33 51 109 88 90 100 120 94 116 104 92 93 105 104 100 101 119 122 132 150 155 158 163 166 162 151 152 160 164 168
334 235 192 141 101 61 43 18 12 2 -11 13 4 52 68 97 91 92 114 100 114 79 88 96 101 83 77 90 102 94 115 141 129 130 143 144 149 154 165 182 190 189 203
286 215 184 136 96 66 46 26 8 5 5 14 33 48 55 54 54 82 84 79 94 88 77 55 65 41 50 65 93 76 142 118 86 97 110 134 163 193 223 236 240 246 263
283 228 167 129 92 68 47 32 19 9 16 28 44 60 74 91 111 117 104 87 80 75 89 61 55 12 61 82 63 127 121 94 67 67 82 95 119 149 173 204 222 222 278
271 192 156 121 94 79 55 36 21 14 24 33 62 78 96 95 105 108 108 105 111 109 70 71 87 114 141 167 139 122 90 54 75 111 126 143 167 185 182 170 161 149 154
204 161 147 125 105 83 62 45 39 37 51 58 80 96 106 110 120 126 130 125 113 113 112 96 124 131 194 169 164 110 143 110 106 104 93 92 104 116 126 131 127 136 129
191 176 151 128 110 90 72 63 55 55 66 85 88 95 111 124 137 134 136 137 133 134 130 140 83 216 225 220 182 181 161 108 89 68 58 58 61 70 73 65 54 55 60
185 176 151 132 113 103 89 75 81 95 85 91 115 120 138 150 144 146 140 145 163 177 208 200 195 209 205 222 178 165 155 97 95 62 32 31 41 38 42 38 37 33 37
194 179 160 142 123 106 98 97 102 100 92 108 132 149 148 142 138 145 160 178 198 205 225 225 224 220 195 174 171 152 128 116 108 41 24 39 27 31 33 26 28 33 27
201 180 155 139 143 123 127 112 103 107 114 135 150 166 141 132 141 150 174 186 202 198 219 220 227 205 171 146 130 116 114 135 100 68 33 20 17 16 19 16 25 12 -41
202 179 164 154 142 139 139 124 122 128 143 145 145 140 139 153 161 182 201 208 216 228 245 258 236 177 147 141 111 123 100 113 119 74 27 17 11 -11 22 34 11 -37 -35
173 170 171 170 158 163 143 134 133 136 137 144 130 128 139 166 170 197 218 210 225 242 229 211 183 155 148 129 111 117 105 106 83 74 76 44 -6 35 37 24 -7 -22 6
185 179 173 165 175 158 157 162 149 143 136 124 132 141 156 183 185 154 178 193 204 204 175 162 153 160 120 110 108 98 95 70 79 95 123 96 122 123 145 86 55 43 39
183 174 169 174 157 145 184 150 151 140 116 128 157 173 189 180 169 180 164 167 145 139 120 132 147 138 111 107 101 81 72 83 39 80 97 129 135 163 181 163 84 49 30
167 161 164 147 141 152 178 151 121 106 123 144 172 169 166 177 189 208 179 121 92 46 74 98 122 129 115 91 99 103 89 87 47 103 96 118 149 163 157 160 131 57 10
157 155 137 134 144 150 152 112 101 102 138 139 151 149 162 168 179 169 147 121 113 97 91 116 123 112 104 122 128 111 97 45 99 149 123 175 124 127 138 199 189 83 -14
140 133 133 145 130 113 144 117 128 132 127 138 146 152 164 164 142 88 122 117 98 99 79 50 43 30 19 19 47 111 119 76 93 138 126 134 96 104 83 187 154 16 29
136 136 128 101 112 97 129 137 125 117 140 175 173 161 136 154 94 77 109 97 95 86 81 69 79 66 56 61 22 69 93 101 107 106 135 118 90 51 62 172 129 144 129

GFSMA_con_3kmhel_012.txt.gz
Helicity
80 123 172 134 138 147 135 119 104 79 65 54 50 50 57 73 101 98 65 97 108 110 108 106 104 107 105 106 98 93 95 91 88 94 101 102 103 104 115 136 150 154 150
147 238 205 178 160 133 135 127 98 82 66 54 48 51 65 84 93 116 66 69 89 91 92 98 102 104 103 103 97 88 85 89 95 99 105 112 115 113 104 101 112 131 138
226 171 174 174 145 147 150 141 112 88 75 62 60 66 66 79 76 87 92 49 64 76 77 91 92 94 96 103 103 100 97 91 93 104 103 109 118 123 121 107 111 119 123
219 187 171 177 161 159 134 129 105 79 65 60 52 55 65 68 67 113 113 103 79 64 72 88 92 93 90 105 110 109 105 108 101 99 105 106 113 117 119 131 95 113 128
250 237 234 199 177 184 158 116 90 60 50 46 44 43 59 55 59 98 88 88 90 94 86 85 104 104 98 94 106 111 119 115 111 113 117 123 125 127 127 126 109 89 105
237 230 239 241 207 180 140 101 74 55 39 35 19 23 48 51 93 86 115 119 95 89 85 106 79 83 98 103 101 104 112 114 127 143 134 133 131 136 139 140 135 119 83
224 280 259 250 221 189 136 94 50 58 50 37 17 21 29 52 71 76 112 129 127 126 120 90 74 60 69 103 93 102 113 121 131 134 147 144 139 134 135 142 149 127 111
345 321 305 271 228 186 141 95 73 35 19 21 8 1 31 50 79 78 109 144 108 122 108 84 67 72 97 82 78 120 132 132 131 145 148 154 151 148 144 135 126 122 116
387 336 329 286 223 165 114 78 59 44 20 5 19 7 32 40 54 106 107 149 135 121 98 79 72 99 96 76 97 109 104 85 90 118 132 131 126 131 139 146 154 160 167
418 384 366 299 209 158 108 65 46 31 21 14 9 27 44 68 77 93 141 118 129 110 88 77 84 92 82 85 91 109 77 99 102 112 110 101 105 117 132 140 161 180 199
442 389 368 316 228 155 99 69 52 45 26 19 23 28 44 58 77 113 98 98 79 87 91 88 70 64 62 80 110 109 91 131 106 87 82 89 100 121 144 175 217 250 293
453 408 366 268 236 158 102 71 56 51 37 32 34 44 54 66 87 128 140 107 94 80 93 80 72 52 65 80 123 142 150 107 73 59 48 46 67 107 144 181 194 196 195
432 375 351 289 225 143 99 70 59 45 44 47 51 57 80 82 113 127 137 119 129 115 83 76 71 78 100 181 195 189 147 119 92 68 62 76 118 152 153 144 142 148 170
417 428 280 248 188 138 100 83 69 61 62 52 60 74 84 99 129 137 140 136 112 136 122 82 88 106 165 163 170 149 168 147 95 72 81 107 124 113 115 105 103 118 105
409 244 247 232 171 130 96 79 75 70 73 66 66 85 97 124 135 135 152 158 155 152 116 114 118 140 134 147 152 148 150 119 88 88 88 80 73 81 83 80 85 74 67
345 310 272 214 180 143 120 107 98 97 87 78 96 120 129 151 152 155 154 162 178 189 206 205 182 169 154 147 120 120 138 71 91 58 54 51 71 62 63 53 45 41 31
340 291 259 197 158 127 111 98 111 92 85 97 122 135 156 161 148 148 158 168 189 205 212 201 193 178 193 167 151 146 123 124 124 54 39 37 39 49 34 36 21 8 12
316 262 216 179 163 153 139 132 116 115 124 125 132 171 154 167 162 157 169 179 201 201 224 198 211 202 186 152 141 137 125 122 103 50 37 27 31 3 11 10 1 -2 7
291 252 219 193 172 156 150 152 145 161 155 141 156 166 159 159 169 176 188 215 210 211 234 228 215 182 168 154 133 121 117 112 107 63 28 21 21 9 11 18 -2 9 11
270 246 214 199 167 150 156 155 169 176 156 167 159 151 154 158 161 186 197 191 191 204 203 207 198 179 155 133 127 124 111 116 105 99 64 75 23 31 24 34 24 19 12
245 212 184 163 151 133 156 171 185 167 169 163 151 157 170 176 175 177 196 203 197 214 207 192 168 163 135 113 116 136 130 110 123 110 122 118 123 143 130 82 77 55 30
200 174 149 147 130 144 161 183 168 160 154 144 152 153 161 162 165 184 176 166 157 190 163 153 147 111 118 136 147 123 140 137 152 107 112 143 116 137 156 149 70 58 40
154 147 141 135 150 154 173 167 154 149 130 127 125 142 161 166 159 177 171 127 143 93 71 93 110 116 114 105 125 160 128 147 133 144 126 152 116 142 150 120 49 86 71
163 147 144 139 149 155 162 164 149 133 121 111 130 148 160 157 151 160 194 187 143 123 100 104 97 93 103 93 100 106 100 115 119 121 121 163 155 121 102 128 96 37 73
157 132 135 156 173 171 134 144 138 116 121 136 150 162 160 176 177 138 186 153 104 100 76 27 21 20 23 18 49 102 96 93 90 111 141 138 121 104 94 121 89 46 148
142 149 156 137 126 116 132 112 96 112 130 136 141 153 149 172 143 119 122 109 96 74 76 73 80 67 70 99 42 86 115 99 102 117 147 113 85 61 52 124 130 144 153

GFSMA_con_3kmhel_015.txt.gz
Helicity
102 124 76 103 104 117 116 110 95 93 93 86 91 82 81 101 85 88 69 106 113 121 113 107 101 105 99 92 79 78 75 72 81 90 95 108 109 112 107 108 107 121 134
148 181 184 196 180 160 137 122 103 105 110 94 107 97 81 98 101 84 73 79 98 103 106 113 108 104 102 95 87 84 80 80 82 87 92 99 101 108 109 115 115 111 127
204 225 234 212 184 174 169 154 140 118 118 92 92 99 84 86 112 90 83 77 82 100 105 112 111 98 100 90 88 85 82 87 86 90 102 98 107 116 120 116 127 93 114
212 217 226 210 195 175 166 180 153 132 105 91 76 72 68 75 109 99 67 59 49 57 78 95 105 109 103 98 100 89 93 90 86 99 111 119 115 114 120 127 128 132 85
236 272 246 219 205 208 193 176 159 113 98 81 63 60 45 67 76 93 101 83 77 63 70 107 106 115 108 105 108 104 101 95 108 128 119 136 149 150 151 146 133 138 137
269 317 288 255 231 242 221 176 147 122 89 69 51 53 25 45 54 92 96 79 87 106 80 78 73 61 80 89 101 95 92 109 120 126 138 131 127 131 140 144 150 152 135
324 344 309 276 228 240 206 151 131 123 123 76 51 54 35 33 34 55 84 102 108 93 88 68 39 41 43 76 80 77 110 125 130 127 125 134 141 142 138 136 137 131 126
382 350 301 273 234 254 229 170 120 100 91 91 56 45 53 35 36 67 110 138 145 127 121 92 56 34 45 50 47 99 110 126 110 106 130 145 145 135 124 120 120 132 139
392 347 326 303 267 256 212 161 113 93 75 70 68 37 52 37 39 75 140 185 179 152 111 85 55 56 68 75 90 91 88 92 71 86 125 125 111 108 104 118 133 151 154
435 390 364 315 279 265 233 151 104 79 66 63 50 57 53 51 52 60 102 138 139 127 76 67 90 83 88 95 72 72 70 80 71 94 99 89 90 94 103 107 118 140 203
446 395 365 341 299 257 209 179 122 101 72 59 47 42 64 76 98 108 89 117 113 101 103 96 96 105 103 95 79 80 118 108 107 106 103 94 100 114 132 159 180 227 196
495 417 371 356 274 318 195 187 127 100 78 68 56 57 57 69 85 118 118 110 93 76 87 86 88 88 75 119 175 181 143 113 103 94 77 58 59 88 128 172 203 220 188
513 443 403 386 276 301 241 196 120 92 75 70 61 61 75 91 113 126 136 111 124 96 71 73 62 86 114 124 106 141 147 149 132 117 94 99 126 165 193 190 158 137 122
476 431 405 372 370 292 252 189 114 88 81 75 73 77 89 107 130 145 143 141 122 121 125 56 70 84 95 78 93 119 139 148 138 112 105 115 143 143 126 111 107 101 104
453 438 420 414 402 310 178 157 99 84 81 72 75 92 102 126 157 160 166 165 154 137 99 107 94 106 91 96 90 108 129 107 94 94 103 107 106 104 98 100 107 98 104
405 432 419 406 289 193 174 127 111 91 86 86 93 97 120 146 152 159 171 181 176 176 200 195 154 131 116 113 109 132 126 87 99 79 82 81 84 83 98 106 98 86 57
445 400 480 337 254 211 163 134 102 84 88 104 110 109 142 146 151 168 184 170 176 200 207 199 182 158 157 151 162 149 127 145 114 64 77 74 75 87 83 66 53 39 22
392 439 318 288 252 191 140 115 106 107 99 105 98 119 140 154 156 166 163 167 185 193 200 161 180 160 173 189 181 160 141 122 126 65 41 42 49 53 22 26 28 31 33
453 344 332 297 226 178 150 140 138 137 139 134 114 140 125 147 158 157 166 176 187 191 194 208 201 198 216 185 157 146 136 113 96 62 37 34 39 36 35 39 48 47 49
333 365 298 249 194 174 173 158 153 145 154 154 173 160 154 152 141 150 162 166 172 181 193 214 212 206 185 131 143 138 101 102 104 104 84 54 37 48 45 54 47 39 34
368 372 256 243 188 161 136 126 149 157 159 158 168 172 161 152 150 158 196 192 189 202 216 220 212 169 148 120 127 114 124 110 115 99 102 135 112 149 143 92 67 49 46
325 272 194 193 150 137 158 176 158 142 148 170 157 143 135 139 161 156 155 147 159 193 218 209 175 143 130 118 119 120 131 122 105 90 119 97 122 134 128 135 63 65 78
194 179 152 157 164 155 161 159 144 158 169 146 125 138 161 167 142 154 150 132 111 116 104 135 137 129 127 113 125 143 120 126 122 123 124 119 125 144 137 119 81 71 73
93 128 168 175 147 135 140 142 186 165 141 124 136 170 166 150 162 175 175 169 155 141 115 110 127 122 123 108 102 109 109 126 134 119 112 146 142 142 115 113 75 14 47
136 178 135 138 122 106 130 152 149 126 125 135 148 129 139 174 170 114 169 184 131 105 70 26 30 33 39 37 63 109 114 123 120 118 115 123 125 147 112 102 44 3 61
132 121 128 125 115 124 135 107 92 109 126 106 103 127 134 142 118 109 158 144 108 75 80 84 92 75 77 96 60 110 137 152 154 126 150 171 138 110 29 131 54 110 99

GFSMA_con_3kmhel_018.txt.gz
Helicity
113 119 99 106 97 89 103 118 110 102 101 99 101 102 105 104 114 109 100 137 135 132 116 107 99 93 89 84 86 90 83 79 80 87 88 86 90 105 117 115 130 115 112
148 143 143 132 129 114 117 126 123 119 116 102 114 113 110 97 96 107 105 110 125 119 113 105 95 95 97 91 85 79 80 89 85 80 87 95 101 104 105 113 121 136 98
164 166 180 185 168 148 160 154 147 133 131 113 115 114 105 95 92 97 86 89 99 115 106 103 98 106 108 110 105 90 88 93 96 103 109 106 103 110 113 116 115 125 134
199 226 245 212 184 183 168 160 150 162 145 128 107 97 92 91 93 74 66 65 67 79 100 108 109 111 110 106 107 98 96 86 90 111 114 134 140 139 141 150 148 135 132
221 254 242 223 208 210 191 167 180 158 145 123 102 96 83 73 75 73 60 61 63 71 80 97 106 103 100 108 111 105 97 89 88 98 129 141 149 159 171 171 160 151 162
275 289 269 265 245 236 202 196 191 183 135 115 113 105 84 68 67 63 61 71 78 85 70 82 84 73 93 110 108 103 102 110 113 105 115 130 138 149 152 148 149 151 153
326 344 319 293 260 225 180 196 199 165 170 119 122 114 94 79 75 73 92 102 120 120 114 109 88 65 61 80 82 80 94 111 119 103 107 128 138 135 121 121 121 115 113
371 368 325 309 280 252 181 171 170 159 149 136 114 118 99 77 77 99 117 134 170 161 155 128 89 73 64 70 53 68 88 112 121 111 116 121 136 135 125 114 106 107 111
371 391 360 351 300 244 171 153 152 155 136 136 128 100 111 77 80 93 147 176 188 172 139 109 116 100 91 87 90 78 76 97 99 96 103 119 137 138 125 123 121 114 112
389 400 417 379 317 267 218 190 173 149 136 110 109 118 116 97 84 89 110 135 158 166 114 113 118 141 146 129 127 99 91 105 97 104 109 111 114 101 104 96 100 113 161
427 430 440 396 348 310 257 228 211 163 138 107 94 91 103 117 117 121 108 130 158 133 119 132 142 157 161 160 145 158 155 134 119 117 114 105 101 100 95 130 153 188 218
477 459 457 388 356 325 285 244 242 167 162 135 105 98 89 91 94 121 124 117 121 109 130 131 150 159 119 133 140 150 149 135 126 112 96 85 91 112 136 146 184 178 196
500 524 510 462 391 360 350 316 302 204 160 124 87 87 90 94 102 124 133 117 127 119 110 108 112 119 145 130 97 135 144 144 139 140 125 138 161 162 176 170 151 144 123
559 567 551 484 449 374 336 339 319 226 142 122 100 93 85 84 106 126 125 140 133 146 158 95 113 102 91 70 86 108 133 134 140 155 169 174 171 173 168 155 122 104 112
545 550 552 496 414 403 397 345 353 244 135 110 91 84 85 94 133 147 154 174 168 161 133 116 107 117 92 78 79 106 122 121 131 146 139 141 139 139 121 118 108 151 137
436 500 516 489 405 403 443 394 311 210 143 95 88 90 95 106 145 151 155 181 190 189 205 174 167 134 111 110 103 136 136 117 122 110 120 122 109 125 123 124 125 77 91
440 459 536 475 420 435 332 348 246 179 132 104 98 76 77 116 151 149 191 185 190 207 212 203 194 167 167 162 169 181 168 174 156 92 95 88 89 109 97 87 76 69 62
392 474 539 443 435 437 467 282 256 160 126 95 80 87 73 108 143 169 178 172 179 179 203 167 182 187 178 179 182 191 187 156 149 89 74 71 82 90 85 74 76 91 77
391 465 476 416 343 356 262 267 231 171 128 115 92 71 87 132 135 180 176 169 173 174 186 211 200 207 202 176 182 183 166 140 137 78 55 55 69 69 71 80 91 87 73
392 441 409 421 485 406 211 216 201 178 141 129 120 141 138 142 168 159 157 149 162 174 190 216 224 218 186 153 187 172 132 122 110 106 92 46 54 61 88 88 92 77 62
413 459 519 408 351 296 215 160 157 154 143 136 169 167 165 164 133 134 156 159 175 202 214 231 231 210 167 186 168 125 118 106 103 111 99 122 141 132 171 99 78 56 60
502 448 410 348 284 180 162 141 145 136 153 173 178 186 168 151 150 151 158 153 177 212 236 232 227 192 184 153 135 123 122 103 69 87 112 124 117 132 157 139 59 34 46
351 362 285 199 216 131 119 136 147 155 160 175 173 162 172 185 193 181 171 164 172 154 131 171 202 170 148 135 140 129 105 119 128 135 121 156 131 140 146 115 39 31 39
301 218 201 134 109 113 137 139 145 155 164 149 148 154 161 157 164 171 189 212 182 168 164 162 152 147 150 128 113 106 103 129 150 149 120 172 127 140 102 139 71 10 8
137 115 98 98 110 108 124 123 139 134 145 137 135 150 154 167 159 162 187 188 182 164 120 61 60 68 66 47 57 116 126 134 132 125 126 128 131 116 113 119 84 -4 6
47 48 91 112 107 93 85 98 107 101 122 142 151 154 153 162 150 124 166 182 173 142 122 101 113 90 76 81 52 116 145 152 140 94 134 167 158 119 60 127 88 163 153

GFSMA_con_3kmhel_021.txt.gz
Helicity
126 125 115 113 106 110 106 115 103 93 91 91 93 94 100 101 107 108 116 152 148 139 118 104 102 99 93 88 85 89 93 94 91 88 88 91 100 114 126 128 126 132 115
138 135 137 125 119 120 125 120 106 102 104 101 120 116 105 97 104 107 102 114 134 122 108 96 102 102 98 90 78 77 80 82 82 90 97 98 98 105 117 126 133 141 135
139 156 157 143 125 141 148 146 141 125 123 119 132 128 115 104 100 98 95 101 110 118 111 117 110 112 113 105 97 80 75 73 79 91 90 107 117 124 129 137 149 152 151
168 190 190 160 162 164 145 143 135 138 132 128 125 128 115 94 92 86 80 77 84 90 104 114 115 115 116 121 120 106 91 79 90 99 119 118 113 115 133 144 145 147 145
196 192 181 179 200 179 153 142 141 128 126 131 136 133 116 98 80 73 69 65 70 85 90 103 113 119 121 125 117 106 101 108 93 86 102 124 138 145 147 142 135 134 144
214 213 221 237 225 212 186 175 159 169 140 135 153 155 133 109 86 70 64 77 98 114 114 107 101 98 124 115 116 113 110 109 109 91 82 104 119 132 128 127 133 137 137
244 227 256 263 235 217 204 195 198 173 169 141 163 154 149 122 103 92 95 114 136 143 141 121 105 96 87 103 101 98 105 111 115 109 88 93 93 99 95 92 93 97 101
284 309 303 260 241 252 242 210 178 180 169 133 147 160 132 107 109 116 125 142 164 172 164 147 144 117 97 86 81 91 106 120 114 109 104 94 91 95 91 88 86 90 86
325 343 307 298 284 280 252 214 179 166 175 152 120 135 146 104 118 121 145 162 185 182 162 154 146 137 134 131 138 136 131 121 111 111 105 104 102 96 93 90 94 88 95
349 358 347 323 323 302 257 247 182 172 189 178 169 151 147 127 118 110 126 138 159 164 160 155 147 171 198 199 210 208 184 142 114 102 103 108 106 97 97 98 96 107 133
329 365 381 372 374 339 275 271 247 188 181 199 184 164 154 154 149 146 132 119 131 145 153 172 185 208 228 208 173 170 163 134 110 104 98 90 90 90 95 106 124 131 150
403 404 394 399 425 406 329 288 280 231 232 247 203 196 156 126 115 134 144 128 127 147 172 170 219 211 211 196 182 186 151 122 120 115 105 100 91 92 111 120 122 150 161
435 405 455 446 446 464 409 332 330 295 301 283 239 189 158 135 121 131 140 130 134 137 141 158 187 199 212 173 133 142 135 128 126 118 110 102 118 140 147 159 171 190 171
454 470 485 526 492 475 463 415 392 316 360 325 266 211 148 125 113 115 124 134 141 158 171 127 177 169 185 120 90 98 103 108 112 115 121 138 155 162 166 176 161 126 112
512 527 550 598 520 495 524 477 426 331 371 323 340 207 133 97 105 110 122 128 140 128 136 166 159 140 136 94 77 94 96 89 93 112 123 137 148 159 149 141 124 113 137
437 538 592 571 491 473 490 512 448 305 393 354 309 225 143 120 106 121 124 125 140 163 194 189 176 168 137 123 106 125 122 99 112 120 126 118 115 105 96 88 85 69 67
476 426 441 443 420 497 513 558 452 320 337 291 225 193 145 118 115 126 133 150 147 191 215 219 200 178 175 141 146 161 158 183 187 127 114 101 96 78 76 73 62 65 63
407 383 386 408 500 555 565 601 483 509 232 164 151 192 121 116 112 132 145 141 167 209 228 201 181 176 163 144 146 156 170 176 176 107 74 69 55 54 62 75 68 83 92
338 365 383 476 544 585 589 539 350 288 161 271 160 128 101 118 125 154 157 164 199 189 198 205 183 165 150 144 161 176 192 186 172 81 49 51 43 71 87 71 86 87 77
359 376 389 514 562 582 520 473 392 340 208 213 190 121 118 118 133 148 170 174 173 176 176 188 186 189 157 142 173 181 185 169 150 133 91 34 55 80 83 81 87 82 75
395 431 491 559 561 505 436 363 267 208 191 182 122 123 134 127 121 156 179 159 155 169 177 184 182 200 179 167 181 183 182 147 131 112 108 102 121 142 160 122 99 67 67
400 433 482 504 486 446 400 294 268 256 167 122 123 140 143 172 189 164 147 140 153 180 173 191 200 190 180 179 195 167 158 134 87 49 102 109 121 161 167 145 58 31 38
401 443 447 419 406 382 247 203 195 149 126 118 119 141 179 181 194 179 167 159 157 138 131 165 194 191 188 167 160 153 132 119 120 121 114 134 144 167 141 127 37 27 12
349 320 358 335 270 194 139 95 110 113 108 133 148 154 158 152 153 158 163 168 169 157 156 179 187 171 180 138 132 117 106 124 133 123 119 185 136 147 131 163 80 -19 -24
238 178 139 122 81 62 42 64 95 120 141 144 127 128 135 151 135 140 152 144 152 158 152 104 92 92 69 54 64 110 124 122 114 122 134 123 159 148 149 137 72 4 5
155 77 77 64 37 25 65 87 93 116 119 121 140 159 152 151 121 95 131 159 156 135 132 132 128 88 78 86 58 118 148 153 146 124 151 185 169 140 110 217 180 193 156

GFSMA_con_3kmhel_024.txt.gz
Helicity
130 135 130 126 107 103 101 99 98 94 87 81 77 83 86 89 94 96 118 158 142 128 106 97 97 91 84 74 71 74 78 77 77 78 80 78 85 94 101 106 107 108 110
160 157 162 150 131 111 112 110 99 101 94 82 96 95 90 90 97 103 105 116 121 107 101 101 97 92 91 80 72 71 75 76 76 80 81 91 95 101 111 116 128 133 126
163 164 170 164 144 141 143 144 135 120 108 101 118 110 101 93 92 104 98 102 112 109 105 100 99 104 93 93 87 71 63 65 78 82 94 92 90 98 110 126 134 141 141
177 178 190 169 163 168 172 162 135 133 120 109 114 120 108 93 93 101 88 85 88 101 110 107 101 98 106 99 83 68 62 69 67 75 87 93 99 102 107 117 119 122 132
175 188 187 185 205 198 182 169 147 124 123 132 135 133 114 95 88 90 91 90 90 99 103 111 114 115 106 94 88 80 80 85 79 68 64 81 100 106 112 105 99 95 98
191 202 207 224 233 223 195 172 161 166 144 143 174 164 134 118 105 91 91 94 105 114 110 106 99 97 105 96 96 95 94 93 97 92 75 78 86 90 94 98 98 93 91
220 229 223 232 234 220 186 204 200 181 179 157 191 170 160 133 122 101 97 106 125 132 129 122 113 103 94 94 88 89 107 120 117 105 98 86 77 73 68 65 69 70 78
233 273 254 223 224 233 228 208 213 208 185 144 156 173 142 136 121 118 117 126 139 150 149 140 126 119 114 109 110 131 136 135 126 107 102 90 79 73 64 57 51 52 56
274 282 286 264 256 235 229 207 202 226 210 154 135 158 165 132 144 126 127 130 150 164 158 154 141 136 136 149 167 171 179 174 145 126 113 102 93 86 71 60 56 54 54
298 308 334 267 291 244 252 251 247 231 234 196 197 157 177 166 163 150 123 125 141 159 170 162 155 162 179 189 218 225 209 178 145 116 96 84 75 71 71 71 72 77 93
354 340 351 325 327 340 288 307 293 237 248 231 233 227 215 227 214 192 157 118 127 131 152 171 164 190 220 232 214 208 206 172 141 110 84 75 72 78 85 84 95 102 91
412 352 350 372 377 321 338 345 334 291 274 266 254 238 259 247 200 209 201 164 146 149 158 176 181 212 251 251 240 234 190 150 121 101 93 88 87 91 97 108 109 109 115
419 337 367 398 410 388 373 392 369 349 296 301 324 260 263 258 254 250 214 194 156 165 164 160 187 208 247 226 217 225 165 135 122 110 99 98 113 124 129 121 123 132 145
372 410 399 390 401 454 448 440 393 392 360 267 317 302 291 291 248 251 217 205 180 177 161 135 139 167 202 206 192 159 126 110 106 101 100 116 126 132 134 142 149 153 156
333 390 428 421 431 459 459 505 456 442 426 518 275 338 309 239 220 215 203 165 157 139 136 118 122 150 157 173 127 105 90 80 78 81 79 77 94 112 125 135 147 131 113
321 334 388 449 440 444 494 538 530 462 500 545 514 314 342 201 251 176 212 137 127 132 145 103 128 153 167 152 111 113 107 86 86 81 78 80 102 113 114 107 97 89 71
279 289 335 385 429 465 466 515 535 518 488 479 484 327 382 215 189 172 185 172 113 121 161 167 174 171 170 137 133 140 129 138 138 91 99 107 116 106 100 89 91 75 59
251 276 318 343 381 439 477 543 577 552 510 461 441 342 350 262 168 144 167 114 114 128 171 170 178 166 145 135 126 126 126 131 139 100 86 108 115 109 100 95 77 46 46
224 250 270 321 392 467 575 590 542 536 482 444 454 318 301 198 254 160 115 111 144 167 188 212 182 152 132 129 139 121 131 139 145 90 94 101 106 93 72 58 39 42 33
233 255 340 417 485 527 628 646 619 487 494 437 424 410 303 183 171 145 129 122 146 172 182 187 181 170 148 115 134 117 119 147 146 144 117 83 73 76 64 52 48 52 49
360 420 452 463 443 480 368 516 450 399 404 422 381 265 238 139 105 91 133 141 174 175 166 177 177 179 159 143 120 130 134 127 147 155 158 143 140 184 196 116 83 53 57
402 393 352 385 411 456 412 356 360 361 343 291 268 178 103 71 105 129 137 147 141 164 155 179 169 150 142 133 157 135 146 163 144 104 167 154 134 172 196 162 64 36 35
321 337 308 364 348 365 304 302 290 253 194 146 80 91 122 144 159 148 152 156 153 144 131 142 153 153 137 140 142 175 163 142 148 147 134 131 143 176 152 135 52 45 30
293 259 274 247 235 219 205 203 161 123 74 83 89 108 134 148 134 132 137 154 147 132 132 143 151 138 147 132 144 137 115 131 142 122 110 143 125 170 135 159 81 2 2
245 211 203 191 176 131 86 74 49 61 105 108 99 94 89 121 121 120 114 126 132 128 126 91 83 109 117 108 102 120 112 101 90 97 130 137 157 156 123 124 71 20 47
132 138 118 109 92 70 58 70 90 102 109 103 103 112 108 91 81 100 144 161 132 98 111 112 123 112 106 98 70 90 104 101 101 81 118 173 172 135 78 194 178 222 179

GFSMA_con_3kmhel_027.txt.gz
Helicity
97 103 120 121 116 111 103 110 101 91 81 71 67 64 67 81 88 92 92 145 133 104 85 80 75 78 73 66 67 64 61 63 70 68 73 84 90 92 92 93 94 99 102
99 107 125 128 127 120 117 114 112 110 101 80 77 74 80 90 93 99 99 103 113 92 77 69 74 77 69 59 57 53 56 58 66 68 78 76 81 91 100 106 111 112 110
101 111 124 133 133 138 136 148 147 130 122 105 92 86 91 103 103 105 108 106 109 102 101 78 83 68 67 71 61 45 46 49 56 63 71 73 81 89 99 104 107 110 116
110 124 143 139 144 160 160 158 159 153 130 106 104 102 103 108 110 106 107 108 110 108 104 95 83 82 83 68 59 50 48 56 47 51 62 71 76 83 87 91 95 102 109
122 140 152 145 164 177 171 174 179 151 125 117 122 128 129 120 112 109 109 110 102 99 94 103 100 100 91 84 76 67 64 65 60 54 49 56 68 75 76 79 79 84 89
153 157 147 151 194 195 189 183 172 171 140 131 151 160 152 134 119 114 105 100 97 95 93 90 84 85 95 90 83 73 74 78 77 74 73 67 68 67 64 64 69 71 75
183 181 176 161 212 214 187 177 216 184 186 165 189 171 163 148 134 123 111 105 101 102 104 102 92 86 80 84 86 81 89 99 95 88 84 82 66 62 58 54 48 48 47
225 230 218 200 215 235 201 210 240 237 209 151 173 183 143 136 130 135 127 116 116 126 123 120 110 97 98 100 102 114 132 129 114 103 99 91 78 66 57 56 53 49 49
252 254 284 274 239 255 231 218 237 255 260 169 168 183 169 130 168 157 140 135 135 141 145 137 124 119 110 112 122 134 163 155 138 128 114 103 87 73 61 53 52 53 53
284 277 294 315 254 269 224 223 251 259 318 255 209 158 178 170 157 150 155 154 146 144 152 155 144 138 134 129 145 159 161 154 146 129 107 90 76 63 56 54 61 59 62
266 291 316 361 332 300 268 220 261 276 291 319 305 273 221 202 187 207 192 182 168 154 162 160 150 148 149 145 148 162 179 162 160 125 91 77 75 79 81 80 78 85 95
308 308 330 368 350 318 311 303 237 252 304 296 309 308 314 283 244 247 236 206 173 175 175 172 169 159 164 171 182 184 179 169 144 116 95 83 83 90 96 94 95 98 101
293 297 340 350 385 352 347 356 325 307 330 306 290 301 314 250 219 260 246 251 240 240 207 159 159 158 168 178 183 180 173 155 148 122 108 105 110 116 115 112 95 100 114
216 179 291 329 342 340 366 383 371 334 342 317 282 306 322 379 251 271 257 253 269 224 225 221 169 147 154 170 177 185 167 156 141 114 109 113 117 108 111 112 115 118 121
202 194 192 253 295 353 366 385 395 377 388 384 345 327 358 378 452 432 438 243 292 236 244 227 175 110 116 131 146 146 134 115 95 92 73 67 75 84 87 97 106 112 107
118 151 154 182 240 271 326 360 378 409 426 451 478 486 496 472 503 362 433 294 305 266 265 199 191 118 106 112 126 132 113 79 75 67 61 62 75 72 73 78 81 84 72
101 113 123 153 188 229 270 346 424 396 451 495 527 542 497 440 418 437 439 424 382 222 229 188 142 126 114 110 140 135 117 108 100 88 92 100 106 96 95 82 82 67 58
98 105 114 139 154 193 241 307 363 439 517 571 624 648 477 468 362 395 320 456 306 249 220 176 142 98 106 124 116 115 114 112 106 87 88 112 116 111 98 93 80 63 66
107 137 112 134 175 209 265 318 407 491 532 597 553 522 308 395 458 484 534 500 341 192 113 127 99 94 110 105 108 102 97 96 102 81 96 124 122 116 95 90 73 69 53
146 181 223 225 243 330 400 449 493 564 566 555 536 528 527 425 334 313 247 216 173 93 91 103 117 101 120 102 113 112 113 98 106 100 105 104 96 85 75 80 68 49 48
236 276 321 301 301 328 335 449 541 618 511 400 327 274 313 250 209 179 157 136 100 113 123 131 154 144 119 114 117 118 119 106 104 105 124 129 127 119 143 125 84 60 64
230 238 250 269 314 356 346 387 361 400 372 294 236 215 207 179 154 125 93 101 104 101 132 171 150 144 136 124 124 127 116 106 111 64 116 127 95 119 130 106 59 50 56
188 216 245 295 344 317 228 233 213 231 219 209 190 158 142 136 118 116 129 148 150 128 134 151 152 147 140 128 118 111 104 109 117 101 105 120 91 104 79 89 52 45 38
161 191 242 244 266 191 148 223 241 225 184 155 135 116 101 109 132 162 165 152 139 143 158 167 149 128 124 106 109 115 107 108 97 79 55 88 68 72 69 100 58 17 9
191 212 253 211 191 203 133 125 102 89 92 60 61 101 126 126 123 111 132 142 157 150 130 94 109 121 120 103 96 113 101 92 80 63 63 64 88 74 74 99 58 46 50
164 175 201 110 79 58 36 49 34 59 104 120 112 101 85 90 114 118 135 137 143 138 122 119 113 96 93 83 66 85 88 80 70 67 101 89 84 64 40 114 93 112 103

GFSMA_con_3kmhel_030.txt.gz
Helicity
65 63 68 85 85 78 81 81 78 81 76 74 66 60 56 60 67 77 106 147 134 103 88 79 72 61 57 54 60 54 55 61 63 65 69 66 68 71 78 83 86 91 97
74 66 87 96 100 87 93 95 91 93 96 83 79 72 67 72 81 88 94 104 128 101 86 68 63 60 50 44 41 44 45 50 52 61 63 66 71 81 86 91 94 98 102
65 75 83 105 124 98 98 114 123 116 117 102 92 82 73 76 87 96 91 86 89 106 91 75 75 59 59 60 48 38 41 49 53 53 56 60 63 68 78 84 90 100 111
64 83 93 116 103 119 134 137 139 137 128 113 105 98 90 91 99 109 99 91 77 81 99 94 80 78 72 67 57 48 45 50 47 48 53 54 61 68 77 84 91 99 103
77 90 99 98 100 140 157 156 148 145 143 130 117 107 104 103 110 124 113 105 91 80 83 112 113 102 86 81 79 68 57 48 44 41 38 36 44 49 50 59 69 81 93
113 112 121 115 116 156 180 174 159 167 157 145 134 117 120 119 125 123 117 112 94 89 82 82 87 95 102 88 76 66 61 60 56 55 55 51 48 53 54 52 55 54 55
112 131 173 143 148 173 176 160 175 192 206 167 168 148 137 137 130 133 126 114 110 100 94 91 90 85 88 89 85 79 74 78 80 77 66 64 59 56 54 56 52 53 53
124 161 171 169 167 173 181 187 234 229 208 185 173 168 158 148 141 130 132 123 111 116 107 104 104 106 103 102 109 106 109 105 91 87 82 77 72 64 55 55 51 42 37
143 177 183 214 220 218 237 247 244 227 236 187 194 225 199 154 162 154 139 140 130 129 123 127 124 126 125 121 99 106 139 124 107 102 95 88 88 80 65 52 47 43 44
166 186 195 194 227 282 267 277 279 237 262 271 248 215 244 235 166 158 147 148 148 137 140 148 145 145 141 134 156 176 151 130 115 109 105 97 90 87 77 66 59 59 62
192 197 234 219 250 281 238 260 290 242 264 266 333 311 226 215 219 222 183 158 151 152 152 153 160 168 163 150 137 156 149 131 127 109 98 101 92 90 90 83 83 85 91
143 154 183 220 245 263 281 307 304 262 275 260 254 320 337 326 263 262 265 235 163 162 201 190 186 178 168 165 185 210 151 135 125 110 99 102 108 111 114 107 103 99 94
191 159 150 178 235 225 258 301 355 344 313 280 294 294 299 292 286 280 274 336 285 276 250 201 199 200 201 177 173 178 133 124 119 97 99 112 136 141 131 113 100 87 81
139 127 132 154 186 185 179 211 273 323 371 369 308 355 345 320 264 266 333 404 339 305 364 370 259 216 186 172 218 173 127 96 94 106 110 127 151 148 125 111 104 101 102
144 131 111 110 138 174 187 209 250 237 270 306 332 382 370 350 345 354 367 350 389 427 400 321 354 303 253 235 188 165 134 94 81 85 90 116 128 122 109 112 104 99 104
84 85 86 106 109 146 181 204 215 231 279 355 412 419 484 415 416 462 483 524 505 507 414 431 458 478 442 352 211 182 115 104 37 43 61 85 88 73 79 82 80 91 101
101 81 73 69 78 104 140 201 209 212 274 369 471 616 313 350 474 533 565 557 532 437 465 342 404 444 365 266 217 132 76 74 67 49 63 72 74 65 69 72 79 89 83
97 75 67 67 80 90 92 117 216 254 261 306 351 547 663 400 478 508 554 587 518 437 428 430 282 271 237 214 160 153 130 128 95 89 78 85 85 91 89 79 87 89 82
65 55 56 69 85 89 116 133 166 257 346 368 392 440 510 450 433 310 408 472 355 292 261 269 259 214 190 149 138 106 88 90 107 70 59 79 93 110 100 92 98 94 91
96 61 71 112 122 130 158 216 240 254 312 364 388 380 363 313 281 279 254 237 212 238 225 207 175 175 155 111 109 144 163 143 130 110 89 86 103 96 88 98 105 85 71
158 162 171 179 184 173 187 229 269 312 359 367 357 307 290 310 252 204 197 204 211 198 143 155 145 135 114 139 150 163 163 147 133 97 93 118 124 124 114 117 90 58 52
202 192 172 172 157 164 155 187 261 290 287 270 227 258 263 270 244 207 139 111 83 83 97 109 134 154 162 167 185 176 160 159 165 99 123 137 113 116 120 113 51 40 42
133 160 185 159 156 142 161 183 205 223 237 235 218 193 186 160 121 101 99 84 76 87 131 158 135 143 172 196 215 178 156 148 127 77 79 105 80 97 73 69 28 36 48
156 158 198 189 197 182 195 206 264 227 188 202 160 129 110 91 91 111 144 124 91 107 127 162 180 178 184 162 155 134 97 75 64 58 55 71 56 55 55 72 29 36 37
169 188 232 244 240 209 210 174 196 171 155 68 47 70 71 98 106 90 76 137 150 163 171 154 146 121 98 79 67 78 64 61 53 38 56 81 67 64 70 91 73 20 60
169 175 161 135 91 117 47 30 15 11 28 44 60 79 104 120 118 143 180 180 175 146 100 65 58 53 45 47 52 78 84 92 91 87 91 109 83 71 82 84 66 84 68

GFSMA_con_3kmhel_033.txt.gz
Helicity
117 89 66 82 74 81 75 78 75 87 80 85 78 65 60 57 58 78 147 164 166 117 90 82 76 66 63 65 57 55 56 58 62 66 64 66 75 82 85 87 90 96 102
96 87 119 115 105 83 79 88 87 98 101 106 98 84 78 79 77 84 142 140 142 114 96 79 70 63 56 56 55 52 53 56 60 64 63 65 71 76 82 85 88 95 103
95 105 105 139 120 137 102 93 98 123 129 120 119 111 101 90 92 92 130 131 125 132 94 82 86 71 72 61 62 57 51 52 52 52 55 56 60 65 70 73 81 93 101
84 101 97 170 154 135 132 124 131 144 148 144 149 144 126 118 95 97 118 141 104 103 128 110 88 90 88 75 70 61 58 55 50 47 45 46 49 54 58 70 78 84 90
82 98 122 181 198 157 141 176 159 159 180 183 170 159 141 133 120 119 124 129 131 125 106 144 135 124 104 91 86 75 60 56 49 43 40 37 39 43 47 53 59 67 78
122 134 136 135 152 148 154 182 182 198 206 195 185 185 170 147 135 138 127 148 152 139 151 126 124 117 116 107 97 83 62 53 53 54 49 45 43 41 41 41 46 48 52
149 158 186 159 178 219 190 172 174 215 255 255 248 223 194 154 146 151 144 170 164 152 150 141 111 126 113 101 101 90 75 68 70 72 66 57 55 48 44 42 43 49 55
184 195 204 200 215 251 221 204 201 272 288 304 321 240 210 165 158 163 170 182 168 168 162 149 131 142 156 117 142 129 119 119 107 96 89 79 71 65 53 46 45 46 41
178 174 210 209 198 240 266 255 260 294 344 309 269 338 258 229 193 178 194 196 183 189 189 180 171 163 168 167 163 136 155 151 132 123 112 103 89 74 61 51 42 45 47
135 155 188 238 215 224 292 282 320 347 340 354 299 237 326 331 231 197 173 185 190 187 192 200 186 191 189 194 219 238 171 163 147 140 130 115 101 88 75 62 56 56 65
129 122 144 198 250 244 274 280 302 371 393 402 381 387 299 307 311 301 246 201 177 178 205 191 211 214 209 213 216 209 213 188 174 156 142 130 116 104 88 82 81 86 87
160 149 146 179 222 259 291 314 317 326 352 371 356 375 396 403 368 366 338 264 231 201 209 242 267 248 238 236 272 284 215 210 186 165 139 126 122 113 104 99 100 99 92
184 184 162 160 172 192 208 246 269 307 337 361 378 370 370 350 378 304 304 384 385 329 247 290 284 264 282 264 261 240 203 195 191 175 184 160 130 109 90 86 87 83 86
197 165 153 145 153 172 205 208 242 287 285 306 307 395 397 419 434 423 330 364 483 409 377 280 284 303 301 343 352 240 238 199 175 192 179 149 143 131 106 107 94 90 87
179 138 135 136 125 132 135 174 256 303 314 292 295 341 343 362 404 448 479 373 315 329 313 398 407 400 525 289 329 278 318 283 203 163 141 128 128 119 102 106 97 86 90
158 154 150 144 142 130 140 173 226 283 263 292 315 377 426 444 491 577 590 479 491 337 236 359 450 504 601 514 412 299 224 218 192 141 136 130 138 93 75 67 72 78 86
167 140 128 131 142 130 130 152 204 245 283 353 351 371 348 340 376 456 365 495 347 359 372 329 433 441 402 298 311 252 210 204 219 171 146 118 112 100 89 76 76 82 81
173 140 101 99 81 93 112 114 170 215 242 251 279 315 336 348 362 394 412 369 436 419 305 243 256 309 279 250 205 196 200 187 175 124 89 75 85 85 73 62 64 75 59
148 103 57 39 26 7 45 125 161 163 166 186 181 215 256 314 339 313 331 331 218 236 295 275 289 232 193 164 168 130 124 124 124 85 91 99 110 87 68 75 84 60 50
135 157 221 213 190 94 117 136 165 178 174 180 184 191 178 144 159 125 209 230 271 301 280 270 228 152 135 127 106 110 137 142 181 154 127 105 88 70 84 87 68 49 44
92 67 132 181 177 218 160 112 182 161 203 207 227 203 196 163 143 149 182 210 217 206 195 158 139 120 123 128 142 179 200 173 176 138 142 149 93 108 102 83 62 49 55
63 142 139 149 165 132 92 109 144 170 211 194 197 195 192 176 154 152 137 97 99 117 109 96 136 136 170 188 193 224 240 195 145 104 148 114 103 114 107 86 32 22 30
106 119 119 119 131 135 135 134 172 216 212 188 160 133 123 145 133 122 122 110 90 83 96 148 152 162 184 213 228 164 125 107 83 82 85 67 93 76 81 63 19 18 31
134 151 184 220 200 149 144 152 199 204 186 154 132 138 103 108 101 90 73 89 104 119 130 165 189 177 161 136 114 89 74 62 60 66 69 70 81 73 61 72 42 23 18
107 112 88 109 123 133 158 142 156 167 126 116 97 110 81 68 78 89 107 138 135 158 158 123 82 43 30 31 49 71 67 71 77 69 80 75 78 60 54 76 60 15 38
87 62 68 48 62 52 74 92 72 61 37 31 42 45 71 104 123 133 117 123 156 152 110 61 56 52 46 50 35 65 75 89 87 82 85 91 94 69 30 87 67 114 95

GFSMA_con_3kmhel_036.txt.gz
Helicity
159 154 138 127 90 123 74 94 86 90 97 76 87 92 94 83 100 184 172 194 183 136 104 91 82 82 86 77 80 75 72 66 62 60 62 67 70 68 70 72 77 88 101
169 174 134 147 132 156 112 130 121 124 112 117 108 101 106 108 119 176 185 175 182 152 122 100 88 81 75 67 69 61 63 63 67 64 72 66 69 71 71 73 76 82 86
170 154 137 151 173 167 136 141 155 155 168 169 138 139 139 124 145 197 184 166 169 161 137 115 109 85 73 67 65 61 64 71 68 68 70 69 72 71 71 77 81 84 92
131 174 210 206 210 190 185 176 203 204 202 203 188 170 181 170 160 161 209 178 150 169 167 142 125 100 95 80 67 70 72 70 68 63 64 62 64 63 65 66 66 73 77
168 177 174 211 230 251 234 179 199 269 235 209 187 199 214 203 174 178 200 202 144 175 189 215 159 153 113 104 91 85 77 77 72 67 63 59 57 55 54 54 55 59 63
203 225 204 211 294 277 256 207 225 276 247 209 217 242 233 215 187 197 207 203 218 205 215 232 223 196 142 122 119 105 87 74 68 66 68 67 61 58 54 52 49 46 52
227 234 247 233 337 306 273 231 265 278 246 272 317 305 284 212 204 197 216 204 224 231 251 225 200 191 162 129 121 108 93 82 81 81 82 75 75 68 63 54 55 57 50
238 293 253 262 266 339 304 275 320 360 304 345 376 367 269 259 212 223 227 219 237 241 266 235 190 192 176 166 156 134 136 122 109 101 98 94 90 83 76 65 59 52 45
190 266 273 285 277 252 335 338 362 381 358 348 389 339 273 269 249 232 229 238 262 286 269 265 220 205 213 201 178 171 160 160 148 134 124 121 121 104 89 80 75 63 59
122 120 167 247 292 269 269 333 403 428 468 391 413 283 353 332 281 233 208 206 247 268 279 285 262 241 246 253 206 190 178 190 187 177 170 155 141 119 98 88 76 71 63
134 150 124 124 231 272 253 279 380 393 465 469 461 467 373 397 373 357 285 250 238 256 289 298 270 273 270 261 258 232 189 192 184 173 167 160 155 139 130 123 111 111 102
203 198 157 151 124 156 208 277 294 362 416 452 450 431 429 438 421 421 365 372 291 254 301 309 287 270 286 262 249 212 195 233 206 178 163 158 154 132 122 127 126 115 100
202 183 196 177 168 151 168 198 245 305 353 409 440 407 401 371 385 413 430 361 350 382 340 352 287 292 287 237 291 293 173 179 194 212 184 185 162 134 107 123 112 97 90
190 187 162 160 143 143 153 170 212 242 301 312 325 406 375 361 413 416 374 461 471 532 563 590 564 649 471 307 220 277 205 191 217 166 159 138 128 113 108 119 126 122 131
234 219 197 196 149 154 155 159 165 172 227 270 319 335 387 387 395 404 391 434 492 429 484 568 607 664 446 391 286 255 184 227 203 135 120 90 88 87 98 113 97 107 116
207 219 184 165 161 149 141 152 154 165 194 286 333 333 376 357 365 369 379 408 503 480 478 373 430 407 468 397 286 272 238 190 164 113 79 47 71 97 117 110 109 113 106
266 209 185 168 169 172 171 168 148 132 159 205 256 265 298 296 310 325 350 376 374 306 293 313 391 321 304 309 274 215 177 163 138 81 73 99 120 122 116 99 105 116 107
207 215 207 185 170 146 130 127 115 108 91 137 184 221 214 216 240 239 248 226 184 240 219 246 273 288 275 257 198 177 158 123 137 109 93 112 115 106 105 116 118 92 83
222 236 234 225 186 161 143 135 91 54 48 104 150 164 171 180 182 159 137 148 146 162 230 248 300 250 221 212 173 139 127 138 149 95 80 134 119 107 112 102 94 86 93
182 157 144 119 107 124 136 160 198 200 97 178 189 168 158 124 115 133 163 159 133 144 147 209 226 189 152 140 133 147 146 146 130 122 143 137 98 127 111 108 114 120 112
79 76 72 75 91 119 143 186 201 190 166 191 195 177 169 130 100 110 78 97 88 112 135 136 156 135 134 141 151 158 144 166 153 130 156 125 127 118 98 78 81 68 64
84 91 98 105 113 92 104 125 154 145 144 165 221 233 219 170 128 102 69 101 76 109 92 114 120 127 135 148 157 172 158 110 84 77 86 81 99 80 97 94 26 11 10
88 114 114 104 93 80 94 107 137 121 121 143 161 137 116 109 110 136 130 116 92 78 108 106 114 137 161 178 138 89 76 76 100 102 97 99 125 95 96 71 28 14 20
100 87 86 107 116 101 101 93 120 135 168 162 177 119 114 82 66 80 96 112 89 96 106 129 157 158 117 79 76 76 78 74 92 98 102 108 119 87 77 85 53 21 26
82 86 78 91 86 66 81 73 70 71 73 89 90 78 70 57 79 82 82 81 106 119 141 131 89 29 10 16 36 84 84 89 90 100 125 111 79 78 84 84 56 19 51
-12 -17 -13 -7 29 22 48 67 73 65 100 70 77 79 105 100 96 108 127 140 142 155 144 82 45 44 25 40 24 70 110 117 117 97 111 115 108 66 27 58 75 116 95

GFSMA_con_3kmhel_039.txt.gz
Helicity
120 133 116 125 111 110 112 97 87 83 79 80 91 102 100 107 147 158 157 168 168 152 132 116 104 102 96 92 88 78 71 75 71 73 77 79 79 79 80 87 93 97 102
121 141 155 148 129 134 91 101 109 109 107 119 105 104 111 113 146 170 189 180 175 157 133 123 112 107 97 94 87 88 75 73 68 73 76 84 87 87 88 87 93 96 99
130 150 167 189 170 162 130 120 120 143 146 144 132 128 128 133 175 173 186 195 174 152 136 123 119 107 101 97 89 80 83 81 80 80 81 84 83 79 82 83 86 84 90
178 195 190 190 191 175 161 174 192 188 168 171 171 140 139 147 181 183 198 208 185 168 138 129 129 116 105 102 88 76 79 84 87 78 80 76 75 76 70 72 71 75 70
174 218 212 202 224 221 214 209 203 236 252 235 202 183 164 174 171 240 224 217 193 183 168 140 188 137 134 111 91 82 87 86 88 82 79 72 64 63 60 62 60 60 61
165 213 228 259 265 264 237 284 289 266 249 288 245 204 188 190 204 221 261 242 229 205 192 203 228 204 173 114 104 100 94 90 90 87 81 79 69 61 55 50 46 42 47
150 208 253 279 313 303 274 286 341 277 262 323 319 270 246 209 210 210 237 283 270 244 237 242 252 247 211 130 130 123 108 91 82 80 78 74 76 75 71 63 59 52 47
192 230 217 269 277 335 326 339 369 349 318 360 368 352 292 274 244 229 261 282 317 328 282 259 256 238 222 207 175 122 109 94 83 81 91 89 91 90 84 78 70 60 52
132 166 218 228 254 309 320 321 349 367 374 446 417 382 293 259 225 230 237 281 305 359 354 298 256 233 224 220 174 145 125 125 121 97 103 103 105 99 89 85 79 71 68
98 88 147 187 238 249 276 312 299 359 424 391 494 403 422 328 243 204 207 220 269 275 319 338 291 265 249 254 203 180 149 145 161 117 107 114 100 92 88 82 75 70 62
131 126 118 146 171 184 191 237 322 354 392 393 453 479 459 446 368 325 240 246 265 265 291 282 295 310 311 323 287 210 160 128 144 150 146 125 113 100 92 103 103 105 96
131 127 168 172 142 144 129 168 181 220 275 327 445 457 477 430 362 374 337 284 274 302 322 347 308 358 385 369 301 193 159 135 163 248 197 181 173 113 108 111 95 92 82
160 176 154 118 122 126 102 118 143 178 239 291 356 448 386 357 336 351 355 282 243 322 337 386 406 333 341 380 344 263 207 165 224 239 274 305 203 161 112 83 82 77 71
176 210 197 183 163 135 123 122 135 147 194 218 243 303 325 320 372 368 318 297 280 331 392 449 538 509 584 549 480 368 401 558 292 204 154 88 164 129 97 62 64 64 91
217 204 218 220 205 174 152 145 151 156 162 185 199 214 263 297 318 326 332 315 230 245 308 433 457 597 639 588 506 323 293 268 204 169 181 91 97 90 54 62 89 96 96
265 245 189 171 170 167 174 167 155 150 156 179 195 227 286 288 279 258 255 264 276 258 258 356 363 434 525 510 433 334 275 223 167 125 86 62 67 76 90 88 70 67 74
209 195 164 164 175 166 158 157 166 169 167 154 148 166 243 192 196 162 204 173 162 190 185 249 313 308 322 379 328 341 256 184 115 49 51 63 99 79 74 59 62 64 84
177 166 168 181 182 177 181 167 151 140 148 151 168 172 136 226 156 169 198 115 76 116 173 209 206 212 194 239 204 191 154 135 120 72 66 71 61 60 74 100 105 108 112
159 175 157 157 144 130 129 136 139 138 144 118 131 135 134 157 143 125 135 127 141 97 113 176 168 175 132 180 159 145 139 114 96 66 77 69 87 127 113 118 140 148 162
123 120 122 104 81 72 75 91 106 100 100 158 141 126 122 131 135 155 141 126 112 101 104 97 158 155 129 138 132 124 125 129 118 137 138 131 156 129 143 146 133 118 102
99 93 80 64 51 52 54 78 96 97 109 129 89 59 75 115 151 137 129 106 103 94 85 94 130 131 137 148 119 131 128 134 136 146 151 151 124 95 90 74 65 51 42
83 91 97 82 76 57 92 92 99 112 102 102 105 149 168 204 187 125 88 110 106 96 99 96 132 114 110 112 132 144 133 118 85 78 77 82 99 102 98 87 45 35 35
115 126 115 98 99 97 121 108 129 96 74 78 98 105 140 127 105 152 173 156 116 78 62 86 108 109 139 141 136 100 63 70 88 77 62 74 129 119 100 83 49 45 45
79 70 83 81 47 51 69 76 93 86 100 95 86 93 93 78 99 111 98 106 109 106 113 128 146 147 137 83 40 46 54 55 60 83 85 93 120 102 93 98 48 38 60
19 6 -15 3 25 25 44 41 56 71 84 81 81 83 85 78 65 69 128 130 144 158 180 158 141 97 40 16 21 70 57 78 67 91 95 96 82 62 101 100 93 95 81
-24 -24 7 2 26 21 54 76 79 73 88 98 97 118 132 135 149 167 168 163 158 137 132 104 80 54 43 39 30 56 77 97 90 76 85 109 96 68 63 59 78 90 110

GFSMA_con_3kmhel_042.txt.gz
Helicity
75 75 61 82 96 106 102 102 96 91 89 87 99 95 85 103 105 119 111 109 128 123 113 106 99 89 84 82 81 81 83 75 73 74 76 78 78 76 72 76 79 82 87
99 104 100 93 95 116 105 101 96 99 101 115 109 107 100 118 114 129 128 129 142 138 120 114 96 92 91 83 89 82 84 73 71 69 69 75 75 78 77 81 80 84 84
117 132 151 138 138 138 128 123 97 97 102 111 110 116 129 123 133 139 148 160 157 151 130 104 105 96 94 81 82 85 84 79 71 69 68 70 74 77 76 76 75 73 78
147 164 175 178 198 198 178 178 164 146 121 170 155 126 136 147 142 153 171 179 181 180 141 108 115 103 100 88 83 82 80 80 81 74 69 65 63 66 63 59 59 58 55
155 170 174 180 244 218 215 214 204 223 206 189 213 180 164 165 166 178 186 194 193 190 180 133 136 133 110 96 88 84 86 88 85 76 67 64 59 58 56 56 54 52 46
157 195 204 201 239 238 227 263 247 263 245 235 235 217 207 176 185 199 220 220 225 220 203 176 177 198 158 103 99 90 90 92 85 80 76 70 67 64 63 61 55 48 43
168 173 183 191 247 269 246 257 275 272 268 298 324 255 253 207 194 227 247 254 257 251 242 217 223 251 224 161 113 99 100 95 89 79 74 76 78 76 72 70 69 65 55
151 167 170 192 215 250 254 264 305 306 279 360 356 362 293 250 252 256 309 302 288 315 288 276 262 261 256 253 200 129 120 102 83 83 83 87 87 93 92 80 83 74 65
132 152 155 173 184 211 240 256 281 307 235 275 348 338 287 246 240 210 210 284 301 327 315 330 305 280 257 249 213 199 151 112 97 89 90 96 94 90 100 95 81 84 79
120 127 136 153 179 203 203 235 240 239 291 240 287 277 371 370 295 243 225 183 221 246 288 328 315 303 264 238 203 176 118 106 108 115 106 108 102 86 114 111 88 102 100
105 109 127 121 163 208 188 174 195 219 260 223 324 299 305 427 446 321 248 278 235 205 228 260 294 311 303 309 279 169 93 93 78 115 139 138 132 127 134 142 129 125 121
112 102 106 127 129 164 151 161 138 170 194 199 214 239 305 293 243 367 329 280 151 125 177 238 280 335 354 406 261 244 243 93 80 128 128 189 185 206 256 275 188 165 147
135 146 135 129 139 116 125 136 117 119 127 165 161 216 241 265 355 342 277 222 225 236 235 198 291 357 435 507 405 227 303 213 203 243 201 206 252 221 234 237 152 199 141
156 179 208 212 220 193 159 124 126 124 120 127 141 184 207 231 284 270 260 277 249 126 274 295 269 289 376 451 437 497 496 621 490 387 273 134 151 210 238 158 138 118 65
160 175 212 197 191 193 184 163 137 140 136 124 117 136 168 178 215 258 260 281 240 187 101 173 241 241 277 327 429 530 581 426 284 211 161 148 139 146 125 140 97 79 75
191 208 186 168 164 171 183 184 182 179 160 150 130 101 134 150 176 215 235 226 214 224 162 187 108 173 229 357 382 477 354 247 202 139 81 124 100 94 78 63 63 74 79
177 173 175 149 151 166 177 173 171 160 151 153 152 147 159 175 179 177 173 172 148 200 154 221 185 203 243 270 319 300 217 189 143 84 76 83 55 53 77 72 80 73 66
155 170 160 147 151 154 147 143 135 127 111 114 126 157 149 145 202 113 64 105 85 151 109 131 113 109 182 279 222 197 175 118 113 101 59 41 69 61 53 52 67 86 73
173 170 164 161 147 127 108 100 87 101 106 106 116 119 128 107 63 66 68 122 124 142 114 103 90 57 85 166 150 140 136 100 71 46 39 30 44 54 83 96 89 100 105
151 151 134 121 107 100 100 102 108 108 118 126 132 126 106 60 53 73 117 145 168 133 105 87 90 92 113 122 126 107 99 87 84 79 64 94 110 106 100 96 91 76 64
128 118 119 123 125 106 88 101 110 116 108 91 81 86 72 65 82 94 109 126 133 102 98 75 100 85 93 133 129 116 101 111 112 109 124 127 106 93 64 45 42 38 39
141 141 145 110 99 88 107 100 103 102 112 95 102 120 130 157 170 146 109 133 71 122 137 97 95 91 77 95 96 107 120 142 126 117 89 68 54 65 72 67 35 38 41
131 124 108 88 88 76 72 64 62 48 70 84 92 99 118 115 123 114 134 125 114 106 89 97 121 117 126 130 139 151 135 90 52 49 40 90 94 89 81 72 45 47 51
85 78 81 44 23 23 28 33 59 59 69 71 87 89 98 92 79 78 97 113 116 118 117 115 147 138 127 119 119 97 68 60 56 67 72 96 98 90 89 85 37 34 50
52 47 9 43 33 23 35 44 44 45 54 67 80 86 99 107 117 138 145 145 148 151 173 173 145 119 92 69 53 82 88 110 100 94 63 86 85 64 76 100 127 148 174
16 -1 41 41 38 23 19 41 40 32 47 56 68 84 96 107 122 125 130 129 134 127 134 126 118 113 92 59 45 79 92 121 103 106 99 112 78 65 91 110 133 143 96

GFSMA_con_3kmhel_045.txt.gz
Helicity
66 59 43 49 47 63 73 79 83 84 80 79 86 88 89 92 89 95 93 64 64 75 84 78 82 81 81 72 73 68 64 55 58 60 57 53 56 62 62 65 71 71 73
78 80 68 65 64 77 76 89 97 97 84 87 83 90 80 98 100 96 102 99 76 87 92 73 71 72 77 64 78 72 67 58 54 59 55 58 54 58 64 63 63 66 62
98 104 101 99 95 106 102 108 98 105 101 103 85 88 97 88 106 103 113 120 113 96 106 73 66 67 72 66 62 72 72 65 62 64 62 61 61 60 59 60 65 69 71
129 136 141 134 146 158 161 157 144 138 138 142 142 112 119 124 113 113 132 134 134 142 126 107 81 71 70 72 49 71 69 82 80 74 76 71 68 68 63 62 64 64 62
134 156 167 166 197 187 196 197 191 201 177 174 178 159 147 144 152 149 151 158 167 183 189 146 113 109 99 80 56 57 73 83 81 80 77 74 73 70 67 63 58 58 55
152 168 160 155 200 204 195 225 224 245 239 206 200 185 188 179 178 223 210 193 202 211 223 201 172 163 134 97 67 53 60 73 73 73 72 68 70 72 72 64 66 64 62
148 172 171 173 216 219 199 211 238 230 226 257 249 191 208 198 201 205 203 246 257 256 258 241 216 195 177 133 92 67 60 59 67 71 73 74 73 74 75 74 78 77 73
125 144 159 166 182 208 207 220 254 243 234 245 227 222 192 185 210 208 240 249 257 299 274 270 261 227 205 223 194 129 85 67 68 60 68 72 79 82 89 99 99 102 95
127 140 149 166 163 186 183 179 207 223 185 203 218 215 190 166 179 187 166 161 181 224 227 228 241 241 237 239 227 202 153 123 100 73 39 41 68 84 94 110 114 125 118
160 151 147 155 163 190 190 172 191 207 221 166 209 196 241 261 212 170 214 187 149 145 177 190 191 195 219 257 243 238 200 190 147 106 87 40 28 45 73 110 133 142 147
138 121 108 115 134 165 161 175 175 164 177 156 188 186 188 240 259 229 159 199 202 156 154 112 193 176 172 218 289 279 309 340 283 237 156 97 59 40 54 79 140 216 231
125 115 120 117 121 145 156 173 170 165 158 115 142 177 191 185 178 212 218 211 212 190 187 178 208 222 285 303 283 292 343 328 302 322 271 294 256 93 121 221 219 212 206
109 127 128 146 144 145 158 186 185 160 144 136 134 154 178 178 214 229 235 221 226 199 176 138 166 191 220 263 318 272 318 227 188 200 240 353 521 509 321 207 187 151 131
115 135 174 192 197 222 239 249 197 166 150 123 112 133 148 138 183 199 207 216 245 230 196 162 143 173 233 262 242 189 324 199 180 248 351 405 410 303 277 221 221 146 116
152 181 190 197 192 184 190 195 205 212 179 187 178 159 146 148 141 131 131 165 200 244 177 128 123 104 148 206 146 208 243 246 331 317 251 164 103 109 104 107 97 107 126
163 185 195 180 151 156 165 183 187 184 193 187 177 179 175 156 155 163 174 196 219 221 209 181 103 163 189 201 116 280 297 294 226 157 99 79 42 68 44 59 60 46 92
163 171 171 158 151 168 178 169 180 175 175 169 153 141 145 134 131 152 165 171 151 153 187 210 169 149 160 245 207 213 228 252 227 122 75 61 55 84 69 43 64 73 70
153 159 166 175 186 189 182 184 179 164 149 128 107 107 119 121 141 177 175 138 124 137 169 174 167 131 155 186 178 158 165 141 126 92 74 69 71 56 65 56 56 44 72
177 204 202 197 185 176 169 160 149 139 129 117 113 106 92 96 112 122 111 99 103 136 144 144 128 98 80 115 136 132 85 78 71 48 59 76 73 53 62 72 97 94 72
173 178 176 161 150 143 133 122 119 137 149 155 140 124 124 129 110 97 114 131 136 166 140 116 124 101 73 98 97 76 78 84 59 58 71 66 79 90 112 103 95 83 73
150 146 151 150 138 133 116 118 136 147 145 158 153 163 170 145 110 125 136 126 114 124 134 135 123 131 127 107 109 111 106 96 85 85 84 101 108 113 104 85 55 36 26
119 129 139 133 139 124 153 156 131 106 88 82 79 81 88 100 119 108 104 99 105 111 121 104 99 98 93 99 96 112 120 124 112 111 129 121 110 74 60 54 32 29 29
109 124 120 110 96 66 56 47 34 33 42 50 48 43 50 63 79 86 104 111 121 137 124 125 147 142 140 122 131 132 129 129 112 110 86 91 75 76 69 66 51 44 35
100 93 92 75 48 45 51 49 49 37 49 55 55 54 61 63 64 97 111 121 133 136 130 135 146 148 139 129 139 132 116 92 56 58 51 105 102 100 85 87 50 37 41
72 68 37 32 47 38 49 52 50 46 56 62 67 67 72 78 86 111 119 129 134 144 146 155 151 149 141 137 116 129 122 139 116 127 82 101 114 102 113 92 101 141 183
32 15 12 43 47 31 42 57 49 41 52 57 68 81 90 91 104 99 107 114 114 117 129 130 126 129 129 124 128 117 134 151 142 152 87 89 87 63 102 96 118 122 117

GFSMA_con_3kmhel_048.txt.gz
Helicity
53 54 43 43 47 52 60 60 62 67 63 63 61 60 62 66 61 64 72 52 43 44 51 71 71 50 48 51 43 50 50 47 49 55 61 51 51 52 53 56 59 55 53
62 60 55 56 56 65 68 75 79 81 81 80 67 66 60 70 75 72 78 75 52 55 60 65 62 51 45 51 37 53 48 51 49 55 56 61 60 57 57 68 67 65 60
72 77 82 78 79 90 87 90 86 100 98 98 86 79 79 74 76 89 97 97 87 67 69 63 61 58 53 41 48 40 46 61 59 61 61 67 67 68 67 68 75 77 68
92 97 98 98 111 120 128 128 127 121 120 133 132 122 112 104 96 94 106 115 120 118 101 85 76 64 60 44 51 26 58 54 74 75 65 67 65 69 68 72 67 72 71
116 129 128 118 143 146 148 155 151 169 160 164 170 159 149 136 121 130 142 147 157 160 162 125 107 98 89 63 53 42 52 56 73 73 70 71 69 69 73 70 72 71 70
122 141 144 154 174 168 162 183 175 198 200 189 185 163 144 150 159 163 171 175 160 164 175 171 160 145 105 85 48 38 33 51 70 69 77 77 73 72 75 78 77 80 75
118 133 138 139 171 178 159 180 203 187 177 214 191 137 139 132 157 172 185 194 181 175 179 181 179 169 144 100 85 51 39 37 56 52 65 80 82 79 77 82 83 88 91
134 144 141 141 158 175 169 174 202 192 179 195 182 172 109 94 90 99 126 147 138 143 151 161 164 155 150 147 139 99 60 49 71 59 42 46 86 94 92 89 98 103 108
144 135 138 147 155 180 166 162 187 185 158 168 168 158 147 140 136 133 140 117 132 141 136 136 146 149 143 136 129 137 125 109 91 90 82 17 11 59 86 85 100 111 109
143 136 129 127 132 157 160 152 168 181 201 151 164 119 163 215 150 133 152 149 139 116 118 120 124 131 134 159 116 146 144 189 140 110 199 216 70 10 31 76 81 98 109
144 123 109 112 111 133 152 157 171 176 185 163 164 167 141 148 137 145 158 139 160 150 143 143 127 127 144 189 187 207 170 198 157 117 203 306 335 193 200 122 49 158 213
129 144 134 127 121 122 131 145 158 175 175 164 152 169 143 155 150 174 164 157 169 155 139 136 139 121 133 152 171 144 145 168 217 270 291 221 202 325 281 407 486 238 157
105 124 130 145 143 155 150 149 177 194 156 163 185 155 147 151 179 189 198 183 169 147 123 113 107 98 78 110 129 123 120 132 171 192 172 127 78 154 287 374 485 508 324
100 117 139 181 211 212 216 226 237 249 268 245 223 201 178 173 172 171 160 156 139 121 132 91 121 125 127 101 71 66 121 127 113 99 139 89 81 138 281 333 312 158 41
125 152 171 187 207 217 215 223 243 266 277 262 242 219 215 203 190 169 168 163 146 146 132 156 139 129 107 67 67 68 47 125 30 69 89 206 333 421 238 171 67 65 75
144 153 170 178 182 181 172 169 180 201 223 205 193 198 181 158 154 162 169 170 167 173 178 185 160 112 108 102 86 97 117 91 20 122 209 214 196 104 74 55 74 53 43
142 144 150 163 169 166 160 164 175 163 155 160 157 148 129 109 123 134 143 151 179 184 168 164 138 132 119 81 85 103 184 143 172 262 199 154 107 80 70 70 68 54 94
148 148 157 174 186 183 186 184 182 191 189 189 177 162 148 127 138 145 149 158 154 156 160 146 149 113 87 75 75 111 134 131 90 118 124 82 39 32 33 48 73 68 64
163 190 196 199 187 173 168 171 169 177 188 189 192 182 166 151 144 125 128 124 128 124 132 130 118 99 71 67 84 108 82 82 63 38 21 12 33 42 51 54 52 74 111
148 168 171 160 147 136 136 139 152 167 173 175 175 170 155 125 105 103 108 117 109 81 87 84 97 87 85 71 77 88 81 77 88 82 66 59 57 71 98 110 110 111 104
129 126 127 118 114 115 108 119 124 128 128 137 145 137 150 122 87 97 73 61 57 73 86 84 94 95 86 86 88 91 95 83 78 96 90 92 101 94 89 90 82 80 82
122 120 128 114 116 100 114 110 85 71 61 47 64 77 79 85 95 114 102 103 88 81 87 97 104 118 118 114 108 102 94 92 81 102 100 95 103 94 96 96 65 44 30
92 106 109 93 91 61 51 49 50 38 40 48 62 60 67 76 93 94 111 121 123 119 122 109 120 120 121 117 127 125 117 109 102 96 77 69 103 85 75 64 49 47 43
74 73 76 78 65 46 56 53 57 43 51 55 54 60 75 87 76 106 104 109 114 120 118 119 126 115 110 112 116 107 102 101 89 90 95 90 113 112 76 67 51 52 42
53 65 55 39 41 33 56 57 45 36 47 52 58 66 72 82 88 97 99 112 116 111 116 126 121 116 113 104 96 132 115 140 112 116 92 99 115 122 119 102 95 110 143
38 17 21 28 40 43 48 49 39 34 53 56 59 67 74 67 84 86 87 95 104 93 103 104 97 101 103 104 115 105 120 138 130 142 106 100 102 101 117 97 87 81 80

GFSMA_con_3kmhel_051.txt.gz
Helicity
47 44 40 38 38 41 46 55 56 56 56 56 59 63 62 58 52 55 54 46 33 33 46 49 67 53 47 50 44 47 50 58 58 63 74 65 68 70 69 68 69 67 69
51 50 43 41 47 55 59 59 63 65 65 66 61 67 65 70 65 62 58 50 40 39 39 41 46 56 48 46 51 39 53 55 54 65 71 72 69 64 68 75 75 69 71
52 50 51 51 56 65 62 70 75 81 84 87 76 75 83 79 75 68 67 67 58 52 49 41 38 46 51 44 50 46 62 48 56 60 66 66 73 81 84 85 91 83 81
52 58 63 62 65 73 83 88 92 91 94 100 92 89 96 89 72 66 80 88 87 80 72 60 50 42 49 53 39 49 53 60 66 62 71 71 76 80 89 96 97 98 87
58 67 68 67 76 88 102 112 110 115 111 108 110 98 104 105 91 85 76 94 90 95 92 84 68 59 69 59 51 43 48 68 74 81 71 65 69 72 79 86 94 97 90
63 70 70 70 92 106 105 114 112 119 120 115 120 111 104 98 97 95 84 95 96 101 95 89 86 89 76 67 57 48 45 76 75 79 80 64 74 69 71 75 87 94 94
71 81 89 89 95 98 91 100 117 118 131 141 153 124 114 84 97 81 90 96 100 96 96 95 99 105 105 89 69 48 41 43 95 92 72 56 62 74 79 76 82 94 96
90 106 107 107 103 109 106 110 122 149 152 162 169 164 111 84 93 72 67 87 89 94 98 103 103 108 104 107 106 90 51 40 51 82 111 85 59 56 59 80 73 95 108
149 133 119 118 108 132 137 127 142 144 166 178 145 158 148 133 111 111 94 99 82 82 93 112 107 91 71 110 126 111 99 76 54 77 78 60 95 42 49 62 79 91 92
157 147 134 127 117 126 128 122 140 144 170 182 178 130 148 176 138 130 136 125 104 112 134 111 109 114 96 119 123 109 108 103 90 90 88 70 52 60 60 72 207 42 61
146 150 143 125 112 124 113 111 128 151 166 183 198 203 167 160 137 139 130 127 142 106 130 139 130 111 95 92 106 112 83 88 91 51 44 52 101 115 235 91 88 212 273
132 136 143 126 116 112 113 116 119 142 157 184 187 206 192 169 155 149 139 112 109 91 89 91 93 94 92 85 87 92 95 77 71 67 58 96 125 90 85 113 168 119 182
112 135 140 149 146 144 142 134 141 154 185 214 215 218 184 171 179 180 176 165 148 110 78 77 87 78 81 71 74 85 69 48 48 43 42 65 124 116 67 16 78 276 306
104 119 129 144 163 176 177 172 197 226 233 257 261 223 191 167 167 169 181 167 135 123 102 94 95 89 67 34 39 48 36 49 92 64 32 27 45 80 42 187 257 246 272
117 126 141 161 177 188 192 193 201 223 232 223 203 185 187 174 165 157 146 129 132 137 107 123 114 105 53 57 82 90 64 43 63 74 61 90 215 257 318 302 295 223 191
144 151 157 164 174 182 176 165 168 171 179 186 191 198 183 171 158 153 132 131 135 136 137 148 108 69 68 77 78 71 82 93 101 99 254 282 253 217 226 221 212 139 109
171 170 167 164 166 161 166 165 178 180 191 196 198 189 191 174 160 139 140 148 160 143 122 117 98 81 80 65 60 53 67 87 98 236 242 219 176 157 142 106 128 105 71
172 168 163 163 162 166 175 179 182 183 179 177 166 168 162 143 140 131 131 134 126 109 97 65 81 83 84 80 50 49 61 68 55 68 67 91 74 101 77 59 58 66 60
151 171 176 181 179 168 168 168 165 164 159 156 149 140 134 130 136 121 120 112 104 94 92 69 82 65 72 71 56 55 61 66 61 36 30 50 48 62 87 73 62 59 48
129 165 182 165 153 146 134 121 123 130 136 133 137 135 128 124 115 106 103 99 89 87 83 91 85 81 73 64 60 58 61 66 63 71 72 64 53 65 81 99 103 127 136
116 116 129 130 112 94 89 97 110 120 121 118 107 94 109 74 76 76 68 78 82 83 88 87 88 83 82 82 80 67 58 68 81 92 88 90 92 90 92 85 86 83 83
119 113 110 104 102 87 93 87 56 42 43 49 70 78 87 90 103 106 113 113 102 93 86 91 95 93 92 90 88 87 85 83 81 101 89 68 77 83 87 90 80 75 65
104 104 94 86 91 70 51 53 62 53 58 66 68 72 83 87 96 93 95 106 110 110 106 86 94 96 100 99 101 100 97 86 83 80 53 68 82 76 86 73 53 37 33
74 79 93 91 74 55 54 52 59 47 57 61 67 67 78 68 73 84 88 95 97 107 100 96 101 98 90 88 80 85 84 77 68 76 70 84 96 99 76 51 47 49 41
73 79 76 60 53 44 41 54 50 44 46 60 58 57 63 65 73 78 82 87 82 80 87 99 93 84 83 78 70 83 77 80 89 94 91 95 112 118 100 83 65 60 75
51 49 47 40 28 19 48 49 43 37 45 45 46 53 65 63 69 73 78 72 74 75 77 76 75 79 80 84 93 75 87 88 91 92 102 92 110 108 126 98 82 79 76

GFSMA_con_3kmhel_054.txt.gz
Helicity
50 44 43 43 42 48 49 54 58 59 56 59 56 54 58 62 62 64 56 87 49 32 35 49 56 67 51 42 51 45 54 55 57 62 76 70 67 65 65 70 77 82 77
54 59 56 48 48 53 59 62 66 70 70 69 65 66 71 74 69 74 71 66 76 47 37 36 41 44 53 51 46 48 60 57 57 56 69 75 76 79 80 84 85 74 82
54 58 60 61 61 63 64 67 66 71 74 73 68 73 80 73 76 73 77 71 72 79 56 39 34 35 43 51 50 65 61 54 65 53 71 80 90 93 97 98 105 90 96
45 54 58 62 69 74 75 76 81 82 80 85 87 81 93 85 82 81 88 77 77 81 91 76 55 45 40 44 54 60 71 81 74 78 77 76 85 87 87 96 105 121 111
47 56 60 61 64 75 82 88 92 95 97 96 98 94 98 104 95 99 83 80 79 84 91 105 106 82 70 59 48 63 77 95 92 74 95 81 75 83 87 86 100 108 105
68 71 67 62 72 82 87 94 95 99 95 101 119 118 110 109 106 103 94 95 88 76 80 94 104 93 91 67 57 50 54 68 105 104 83 79 71 72 81 89 88 101 103
78 79 82 79 82 88 89 95 105 113 117 129 161 129 115 113 102 98 102 91 90 90 95 100 111 114 113 102 82 71 71 59 59 91 120 118 104 97 70 77 82 76 95
85 92 86 89 92 106 94 100 111 141 158 160 187 186 125 125 93 84 88 96 93 110 105 99 100 110 119 126 123 135 80 58 53 60 90 100 147 114 54 19 30 75 59
122 113 105 112 114 136 140 128 129 139 178 185 169 184 166 128 176 118 94 95 110 112 96 90 107 109 113 107 114 102 102 98 86 44 47 100 56 112 90 63 38 34 145
130 130 130 131 124 123 121 116 126 133 160 173 197 162 158 167 144 141 111 91 91 101 106 102 108 118 132 152 135 139 141 129 96 84 58 55 93 128 126 172 56 17 34
139 149 161 148 129 125 107 99 100 113 140 156 194 223 194 195 169 165 130 93 93 81 97 116 106 96 113 123 117 126 116 98 96 70 32 29 63 90 129 54 59 78 134
149 153 158 139 127 123 119 117 120 123 131 148 186 208 234 190 178 175 131 116 107 75 77 91 99 100 107 120 113 112 103 88 90 76 45 11 26 67 161 96 104 71 71
146 151 148 140 137 130 124 123 128 139 151 167 180 213 193 215 230 181 150 128 105 94 77 96 123 103 101 108 86 77 63 94 84 75 49 36 46 41 117 124 109 48 64
134 138 146 143 150 157 159 161 165 170 191 205 202 213 233 229 178 140 143 138 118 111 70 75 112 99 90 42 44 6 71 126 106 76 68 110 148 119 33 106 178 263 393
131 129 136 145 154 165 171 173 183 189 200 224 233 213 196 163 148 150 156 147 149 142 99 161 104 85 24 36 58 78 89 95 122 64 92 209 218 159 331 432 376 307 258
133 135 138 145 154 165 170 167 162 170 172 181 174 164 165 163 171 174 168 150 139 126 144 153 101 58 50 60 66 63 81 95 175 244 250 203 194 120 187 214 226 219 218
146 150 156 160 165 164 161 157 165 175 170 166 168 154 161 159 155 156 141 134 129 130 121 115 93 82 66 66 58 65 70 80 109 159 159 165 164 146 125 143 193 221 209
149 155 161 163 166 167 164 161 149 157 146 143 140 136 128 121 129 126 119 119 120 109 96 92 102 73 66 52 56 62 62 74 77 71 75 85 77 72 76 68 92 105 101
142 134 144 152 160 169 170 172 166 151 142 136 127 129 123 121 131 128 122 110 99 91 96 88 73 75 73 73 73 63 60 73 80 79 73 66 57 49 54 75 81 89 84
133 138 143 165 177 178 160 147 133 118 124 130 132 123 108 86 80 68 63 62 66 68 71 74 77 75 74 79 74 73 71 76 93 94 96 100 89 79 84 85 90 106 104
131 138 151 147 137 120 108 99 105 104 102 108 107 91 77 79 76 74 62 69 70 70 78 77 80 78 78 79 85 76 68 77 86 101 103 101 103 98 91 76 73 68 70
118 124 129 129 115 98 93 89 78 70 56 48 48 51 59 79 99 93 107 117 103 81 79 82 79 87 97 88 81 84 84 86 85 89 104 94 91 91 96 97 105 84 73
114 124 113 105 97 85 80 68 56 44 49 47 49 51 59 65 68 70 87 87 92 101 110 86 93 106 99 96 94 83 92 80 78 79 69 75 91 82 83 76 73 71 57
105 105 83 79 73 69 48 45 47 54 64 64 68 67 61 59 73 82 83 75 79 85 94 95 103 93 88 82 81 81 78 69 62 75 71 78 89 86 76 66 80 66 71
92 95 72 72 67 49 41 37 49 53 63 57 56 63 58 58 75 66 71 71 66 70 79 87 77 71 72 71 64 65 65 75 82 91 91 94 108 109 86 78 80 81 93
76 58 56 56 39 43 30 40 47 52 42 46 52 50 57 55 60 62 56 67 76 79 71 62 62 65 66 77 71 61 73 72 81 85 115 99 115 120 116 105 90 85 84

GFSMA_con_3kmhel_057.txt.gz
Helicity
65 55 60 62 57 59 57 58 58 60 65 63 59 60 66 62 65 80 73 114 92 69 60 63 75 77 80 73 67 64 70 70 63 66 77 82 93 92 87 90 90 95 86
60 64 65 63 61 62 60 65 68 74 72 68 68 68 74 74 73 71 83 102 114 97 72 63 60 56 58 67 76 63 75 66 68 63 67 77 80 82 82 88 93 93 94
50 65 69 73 69 66 66 75 75 76 79 80 75 77 88 82 89 81 88 104 121 118 98 81 71 67 66 64 70 82 92 67 71 68 64 68 80 87 96 101 105 100 111
55 64 73 77 76 77 78 76 79 84 84 80 88 94 109 91 91 82 100 114 132 124 129 98 98 86 81 81 75 72 102 110 77 63 77 85 69 77 76 89 106 120 103
63 73 79 86 85 87 88 87 91 94 107 107 102 99 123 106 117 122 102 111 119 132 119 124 114 108 106 87 79 72 70 87 115 103 68 80 67 69 56 77 91 111 113
80 88 85 86 87 100 99 94 93 103 109 117 119 136 121 114 128 135 108 104 110 130 120 98 117 101 100 92 86 71 56 62 90 115 106 98 75 75 73 59 79 88 101
95 93 103 99 103 102 91 91 108 124 139 125 188 128 100 112 133 106 101 108 114 108 119 109 107 113 121 94 91 93 74 58 60 72 86 103 110 96 112 82 76 67 55
113 138 132 127 131 134 120 125 136 150 187 190 201 192 141 106 130 225 142 126 119 132 118 120 111 115 118 123 164 147 149 134 80 59 60 67 59 97 165 190 72 49 47
144 134 129 131 141 155 156 157 156 167 174 176 189 183 189 159 219 194 178 136 124 105 97 108 99 116 126 136 157 216 218 176 150 120 96 76 57 66 76 158 103 85 72
140 138 132 131 134 137 133 128 136 146 162 180 220 187 145 188 200 200 169 123 80 74 84 105 142 125 150 162 186 195 173 154 146 121 88 55 44 49 75 113 130 131 99
136 141 143 145 133 137 143 141 132 116 128 144 153 183 168 221 241 231 199 155 177 83 98 152 138 161 142 133 153 141 138 130 109 105 93 56 36 -7 28 74 109 111 83
135 131 147 145 145 143 146 153 150 143 148 152 147 146 221 227 226 233 200 166 130 82 99 130 172 146 121 110 113 117 86 88 88 82 72 56 58 75 58 62 148 113 84
111 126 146 144 148 149 134 116 120 119 135 151 150 170 195 236 276 255 232 143 94 96 97 177 152 119 120 109 91 76 46 64 62 71 68 67 87 66 57 97 72 116 60
143 156 144 142 144 141 137 165 157 179 167 166 171 226 226 242 228 223 193 151 117 102 104 150 136 120 89 61 59 46 56 74 94 70 60 37 66 110 103 124 188 207 250
145 143 137 138 138 138 147 149 180 182 183 196 219 230 234 218 192 179 161 137 149 181 137 162 130 118 58 21 55 61 67 79 171 159 173 160 178 183 231 288 226 198 283
131 133 136 145 151 154 163 162 159 157 166 171 169 181 193 187 196 181 150 151 151 162 157 137 126 94 44 43 57 72 75 83 104 149 167 181 202 209 204 190 217 227 215
122 128 142 147 161 167 164 152 157 145 146 147 160 161 168 161 153 150 154 155 144 147 133 134 106 75 61 67 62 65 69 70 72 98 110 124 134 136 137 140 131 165 135
127 143 139 139 151 169 178 165 142 134 135 143 157 153 147 140 149 140 138 143 143 128 129 115 95 71 63 65 59 62 62 63 76 84 80 89 91 86 86 84 87 90 99
123 131 145 151 152 167 181 190 176 171 177 181 162 141 128 132 134 129 141 124 104 88 92 91 76 53 62 72 66 63 62 69 66 81 95 90 94 88 73 84 87 96 91
130 147 155 156 179 192 201 190 188 182 178 171 163 148 137 119 90 73 70 57 50 44 52 67 62 68 69 82 74 77 93 83 88 96 96 95 98 101 103 101 101 115 118
150 149 156 177 175 165 154 149 142 129 121 130 139 146 132 93 102 90 63 69 62 74 81 76 71 79 76 80 102 92 91 95 95 105 97 106 94 103 102 96 90 90 102
141 147 153 148 149 135 117 114 103 101 97 101 106 89 69 85 87 87 96 119 107 105 97 87 85 87 107 99 91 111 97 99 106 75 85 91 95 97 96 105 122 105 90
131 134 138 138 136 117 105 94 96 86 78 50 47 46 54 57 66 67 78 94 107 115 120 105 110 123 120 128 101 93 98 80 75 72 72 78 94 94 91 88 93 83 72
123 124 122 126 104 93 98 96 71 70 75 62 52 44 40 63 87 81 94 85 93 97 118 123 137 141 121 110 88 80 74 65 65 78 86 70 82 82 80 75 110 94 94
158 146 124 119 105 88 76 64 59 42 49 42 41 57 71 66 81 81 82 76 70 80 94 96 95 90 80 73 65 67 68 74 76 81 89 79 78 82 75 77 91 90 84
129 106 106 94 83 73 52 52 37 40 38 48 47 61 62 82 74 60 59 78 72 84 96 79 83 76 67 76 65 56 72 73 70 74 101 88 96 96 93 94 95 87 81

GFSMA_con_3kmhel_060.txt.gz
Helicity
77 50 60 79 63 63 61 65 60 54 68 55 62 70 68 69 69 78 104 105 95 90 78 78 88 91 87 86 78 74 67 74 67 63 71 75 79 82 83 91 91 89 80
62 44 56 71 70 75 67 69 66 71 71 77 70 78 82 93 94 92 101 121 115 105 98 86 77 69 66 71 76 86 73 72 63 61 42 59 60 63 68 77 83 90 87
55 55 51 69 69 71 71 72 78 84 86 84 82 79 78 89 90 86 107 132 153 127 107 89 80 80 78 79 70 79 92 101 80 65 55 52 44 49 70 78 86 90 88
47 56 69 75 73 84 95 91 84 82 87 96 99 103 108 122 115 107 144 156 154 169 146 109 87 79 76 77 71 57 80 96 105 86 68 65 58 58 52 68 83 94 96
54 76 79 83 87 93 100 99 87 90 102 98 101 102 107 124 121 111 139 143 116 123 157 148 79 80 72 74 66 60 51 67 78 87 83 81 82 72 58 54 64 81 108
73 93 94 88 89 129 122 108 106 107 127 123 124 137 124 118 126 120 127 103 100 148 144 124 105 83 60 63 69 73 58 41 46 70 74 90 92 77 75 67 63 61 56
111 119 119 111 127 130 123 115 115 130 135 153 151 148 137 125 110 94 132 117 192 190 147 125 122 120 130 113 110 136 139 121 74 53 67 47 64 88 108 144 67 91 48
160 174 170 161 154 140 138 138 154 147 162 189 209 187 139 112 92 92 178 202 186 157 162 145 126 150 144 163 224 219 184 163 143 122 105 94 74 64 53 152 113 98 92
171 176 156 148 138 144 135 135 146 164 170 196 204 203 183 137 154 161 220 215 155 119 116 108 97 144 180 190 184 168 178 159 140 119 93 82 87 70 53 58 142 90 93
156 163 158 154 150 157 148 141 146 159 180 180 201 175 169 180 190 191 174 199 156 167 152 153 186 233 200 159 154 155 149 141 121 96 80 66 59 49 13 27 96 135 133
119 135 146 156 144 140 144 149 154 151 154 161 166 160 151 170 195 201 203 188 209 198 140 175 237 219 160 122 107 104 125 121 100 79 71 69 61 61 74 50 21 82 177
131 115 127 141 135 142 149 168 168 166 165 169 149 151 156 207 196 234 208 189 188 140 155 215 238 189 162 98 99 87 90 80 55 47 49 57 65 50 37 39 30 58 71
133 139 156 135 141 152 160 149 133 127 138 150 148 146 143 183 218 212 203 194 194 139 208 225 191 183 136 100 78 80 76 69 52 37 61 78 63 37 -14 -7 21 49 40
175 186 157 141 137 152 154 172 163 160 155 157 143 151 153 188 203 217 203 225 172 155 135 207 208 169 124 85 68 64 34 72 105 134 121 135 87 59 42 19 85 185 190
149 158 153 146 154 155 163 138 150 160 164 167 170 171 187 196 187 205 203 186 185 177 161 203 178 156 115 73 55 46 49 71 95 114 127 130 134 110 198 280 260 208 223
145 155 160 162 157 156 159 167 165 151 152 164 170 183 198 200 198 189 160 152 173 178 178 179 165 116 91 65 61 63 66 65 79 100 108 114 114 124 145 204 254 248 237
134 140 139 141 148 159 170 160 175 178 166 165 173 181 187 174 168 178 174 166 157 159 147 159 122 98 60 68 65 62 73 63 64 85 87 92 99 104 107 121 131 136 132
144 138 144 135 144 166 179 204 169 165 174 163 158 187 186 201 210 176 157 157 160 143 141 125 85 50 44 67 52 61 60 55 62 69 79 83 87 83 80 86 95 88 63
139 140 136 153 183 198 230 263 245 226 249 243 224 198 185 188 178 146 150 145 126 103 87 75 56 38 42 52 46 59 73 77 51 50 83 81 79 89 93 96 100 107 111
160 162 173 176 195 201 225 244 262 256 261 260 253 221 197 156 134 115 105 83 73 64 68 77 69 61 59 64 76 91 98 83 77 84 82 79 82 83 80 87 90 95 104
153 134 134 162 158 149 180 203 208 204 201 190 183 168 131 131 123 100 97 92 88 91 92 94 87 85 72 89 85 79 89 79 77 80 78 81 77 78 82 86 96 93 103
113 103 110 119 133 149 157 171 175 160 140 131 130 130 133 124 90 76 84 96 108 96 90 84 92 77 108 108 110 85 83 88 87 71 55 67 73 67 71 78 85 88 90
114 109 121 132 154 161 153 163 143 146 124 112 106 90 77 50 51 60 73 76 87 98 104 91 114 110 117 101 87 85 98 87 73 55 66 60 62 65 68 66 76 76 72
127 124 131 154 156 141 114 107 125 109 94 67 60 43 41 54 61 75 72 72 67 91 95 103 130 118 113 112 98 77 73 70 62 60 63 64 54 57 54 53 75 83 86
139 150 144 137 132 122 84 82 85 79 57 53 47 71 65 58 62 72 78 65 61 63 64 78 90 94 88 84 78 88 95 99 82 78 72 70 63 67 58 66 63 80 74
143 144 139 112 91 81 65 50 46 57 54 45 55 62 65 76 69 59 73 66 73 60 68 70 86 81 77 76 76 84 89 94 82 81 63 80 78 77 78 67 75 76 77

GFSMA_con_3kmhel_063.txt.gz
Helicity
67 58 40 43 37 42 54 35 33 39 42 39 43 46 49 58 63 77 91 85 96 95 89 85 79 82 78 76 71 65 60 56 47 46 46 53 56 59 65 68 68 65 69
68 49 49 44 42 56 51 64 59 50 50 59 51 59 61 74 80 75 101 107 97 103 90 74 73 74 66 57 57 67 88 69 53 50 42 34 38 47 56 64 66 71 68
62 48 48 43 49 56 58 67 61 78 73 73 69 78 81 84 93 117 111 128 129 125 139 98 69 60 60 63 52 36 64 92 84 71 50 46 45 44 49 59 63 67 62
70 56 58 54 48 60 78 88 87 84 84 87 88 80 79 88 97 106 103 118 144 132 136 119 85 61 59 55 44 29 12 49 76 79 77 63 64 61 50 43 52 67 68
68 67 65 57 68 86 99 101 97 91 88 85 90 94 96 97 100 89 81 104 104 133 135 94 83 64 73 67 59 62 33 22 45 49 68 77 79 76 70 56 53 42 65
62 73 73 67 75 103 109 114 102 101 108 106 117 119 107 99 90 79 96 108 168 175 153 158 122 123 133 104 106 96 81 60 54 45 40 43 79 78 83 81 63 47 40
56 83 83 74 123 113 106 109 120 108 110 137 123 136 143 126 114 99 120 146 210 201 176 135 136 162 157 220 212 178 145 113 102 102 97 66 45 33 79 125 91 66 79
141 133 126 127 130 106 109 118 127 128 132 140 163 176 131 131 111 86 121 195 186 169 157 162 171 166 147 139 151 165 145 127 121 118 98 70 57 56 46 51 104 100 82
170 163 143 131 128 118 113 113 131 145 140 154 171 174 168 176 155 150 172 165 166 171 174 169 192 156 145 125 137 124 138 124 105 102 87 63 55 50 38 35 49 89 119
166 143 135 140 126 133 143 139 155 154 180 160 183 164 163 201 179 170 168 171 163 183 176 181 196 135 157 104 123 129 112 95 76 68 65 58 44 39 41 38 15 47 117
167 152 149 149 151 146 143 140 147 154 167 166 163 160 163 173 176 170 165 149 189 232 254 249 220 175 167 132 108 93 93 78 57 40 38 41 47 48 59 44 22 45 63
160 149 154 146 135 133 136 147 155 154 156 165 162 154 174 186 181 190 201 166 174 245 297 266 229 193 168 137 118 88 73 71 59 40 49 58 76 63 47 13 -11 -2 6
166 171 157 141 125 128 143 157 146 144 148 159 151 159 163 164 169 172 190 163 171 207 239 243 249 206 178 135 102 65 53 52 88 110 96 126 101 90 54 3 -3 12 -10
197 145 147 144 131 142 155 159 172 167 162 157 147 145 138 142 166 182 179 204 181 158 231 218 259 195 160 130 92 77 45 64 91 105 116 116 108 91 166 88 58 67 63
180 166 124 128 136 137 147 151 161 153 162 162 164 164 176 180 181 174 150 173 218 206 199 240 220 213 153 114 80 51 59 62 73 79 82 91 91 121 182 272 283 173 169
88 84 96 105 129 144 139 146 154 146 156 166 169 170 180 187 195 190 177 176 183 166 191 199 203 181 151 96 67 61 54 68 61 65 66 82 102 131 164 193 201 177 184
93 97 81 99 123 139 157 161 138 161 174 162 178 174 185 171 171 174 164 167 193 178 177 211 179 161 124 90 55 64 66 66 56 56 63 70 88 110 126 135 142 139 129
103 113 133 78 142 130 150 163 144 153 166 180 182 206 186 186 192 182 165 175 166 151 154 177 165 130 96 47 60 75 67 64 49 64 82 82 87 100 98 94 97 111 108
170 125 111 114 134 157 163 185 200 198 216 231 220 201 201 181 188 164 154 134 117 117 124 120 97 91 64 61 63 71 77 86 65 75 88 92 95 102 108 106 100 111 118
134 135 144 137 132 142 148 178 219 244 258 261 250 232 203 190 174 145 116 93 77 69 71 78 76 71 62 66 91 97 89 93 86 90 88 88 97 105 93 93 94 107 114
143 138 131 130 127 123 122 144 196 205 211 232 218 204 190 171 137 110 95 75 56 64 69 74 87 76 70 79 87 83 78 75 82 102 85 57 67 77 77 87 81 83 85
149 142 129 125 111 132 120 130 177 201 188 171 186 183 164 148 120 108 111 103 84 73 72 83 82 82 77 89 87 74 76 86 75 80 78 66 72 73 68 54 50 62 65
150 136 133 132 138 135 132 138 135 157 158 143 119 119 122 113 97 72 61 78 88 98 89 81 78 76 82 74 76 75 79 81 76 65 75 71 71 67 60 56 45 54 58
145 135 124 135 146 142 137 147 138 131 123 109 92 79 60 43 38 52 63 70 83 87 84 90 86 81 78 81 72 65 67 66 69 72 77 90 76 70 62 60 53 64 71
147 141 131 149 145 124 101 95 111 109 90 72 50 43 41 34 37 48 62 65 69 59 69 72 65 65 73 71 68 89 98 100 93 96 82 98 87 87 75 79 67 66 60
156 164 163 136 106 116 65 66 76 78 64 54 52 42 45 40 34 44 65 59 67 60 64 63 74 77 81 73 81 87 90 100 89 97 77 105 91 103 95 71 68 62 71

GFSMA_con_3kmhel_066.txt.gz
Helicity
62 56 42 34 23 31 32 31 32 36 27 28 34 36 37 44 54 61 68 61 75 70 62 60 63 71 65 62 57 57 56 47 42 32 34 35 37 38 41 48 54 51 57
83 59 47 38 23 33 36 35 40 40 43 53 46 52 50 56 61 69 78 79 79 86 88 70 64 48 40 47 42 51 56 67 56 47 44 37 29 28 36 46 52 60 56
76 70 63 44 35 36 44 50 51 61 64 64 50 56 67 66 77 72 76 84 95 95 95 102 112 79 41 35 30 14 22 44 67 66 65 57 50 40 33 39 46 52 49
88 72 63 47 43 54 63 69 74 72 64 67 73 64 76 76 62 64 88 93 89 100 90 88 91 80 67 58 52 29 13 13 29 55 73 71 69 63 50 46 39 41 43
89 89 70 50 55 65 70 79 76 76 65 68 72 89 91 92 83 71 60 93 108 111 130 126 135 136 100 87 72 64 60 65 57 32 24 59 75 77 68 62 47 34 47
91 85 72 60 64 76 76 82 80 87 81 76 83 94 114 105 113 103 95 110 136 192 180 176 162 166 193 172 146 134 115 90 74 63 62 40 35 81 74 69 74 43 37
77 80 72 63 62 80 94 91 97 91 90 106 105 99 117 110 106 106 93 99 188 208 227 194 184 146 140 170 152 142 126 106 96 70 68 62 75 56 21 69 81 95 41
92 84 81 86 85 98 91 90 96 101 101 110 111 128 115 117 147 145 111 135 177 201 201 192 164 146 144 123 128 141 127 110 101 82 70 62 53 52 48 41 35 89 60
158 148 138 129 124 116 103 99 105 113 111 131 149 173 153 109 125 150 133 125 149 176 189 186 203 197 150 118 106 101 118 102 89 68 55 57 42 33 30 42 40 26 86
173 159 149 149 135 124 122 123 139 142 158 126 141 162 194 210 176 168 156 167 172 173 212 246 246 195 160 86 88 110 112 86 63 48 40 39 38 30 25 44 49 25 15
172 159 143 144 137 126 124 134 142 148 172 166 168 157 165 188 192 210 186 154 223 247 292 298 271 218 176 106 84 99 109 91 77 53 44 41 28 32 18 19 22 38 42
195 158 138 154 148 129 110 123 140 152 147 150 164 164 172 181 179 212 228 174 176 261 308 294 258 251 177 154 112 112 102 72 82 89 92 105 86 56 29 -15 -0 -10 -13
230 168 174 142 113 98 111 114 123 118 136 152 145 151 168 174 195 191 192 160 172 209 295 324 267 205 196 163 124 101 91 61 98 140 157 123 107 77 105 49 41 29 9
177 194 226 206 122 166 112 114 128 139 149 152 141 146 148 155 177 188 188 175 176 194 269 271 289 239 208 145 132 112 58 70 72 87 99 92 92 106 172 228 204 167 108
149 129 123 128 136 115 120 136 126 124 144 144 138 143 148 150 153 165 187 183 172 168 203 234 231 237 199 165 129 86 65 78 82 72 72 76 94 107 154 191 177 163 214
200 226 176 144 149 135 124 131 121 126 124 131 145 141 151 163 172 185 205 193 177 188 218 190 187 196 174 134 102 72 60 72 60 61 45 39 62 99 133 149 150 150 180
228 157 173 132 117 140 106 78 92 106 130 137 138 144 158 163 179 183 192 188 182 181 192 207 195 169 152 102 71 52 53 62 57 47 39 58 73 92 109 132 129 141 152
223 128 126 148 146 135 137 110 25 87 133 137 147 154 162 173 174 175 158 154 158 169 192 199 183 162 119 83 43 60 70 72 60 61 56 72 74 92 107 100 113 140 143
146 143 139 151 111 114 129 146 153 154 160 164 162 168 164 159 174 176 180 160 160 158 149 159 174 139 95 56 57 75 87 89 74 94 85 75 81 94 114 110 94 105 119
152 157 145 122 131 135 137 142 134 156 185 210 214 215 206 176 153 155 156 146 129 113 111 127 111 91 74 74 78 86 83 87 72 79 79 85 80 94 112 103 99 105 111
128 116 125 134 123 113 109 107 100 111 165 197 207 203 208 196 162 132 131 114 95 94 84 88 90 90 89 98 84 91 86 79 69 86 73 67 73 73 91 99 85 83 87
132 125 120 118 113 108 94 81 105 134 163 182 192 191 165 161 152 131 108 100 84 64 70 79 86 97 100 90 95 93 82 96 81 84 80 73 90 82 78 72 61 75 78
117 112 116 119 115 108 84 84 108 138 148 150 161 162 156 134 119 119 88 97 81 75 74 65 77 77 89 74 96 91 83 94 91 85 77 87 86 78 71 63 52 70 84
109 126 125 119 116 101 105 131 133 136 144 134 116 111 112 94 80 72 77 69 67 71 77 79 77 71 79 78 77 81 86 102 96 89 86 102 84 76 75 75 79 80 78
127 134 147 137 112 102 93 109 128 129 120 100 83 68 66 62 27 32 45 57 62 68 66 70 66 58 63 64 71 96 104 114 108 97 95 101 90 85 80 83 90 106 89
114 136 151 140 110 110 77 97 109 116 99 79 53 45 31 35 26 36 41 54 57 49 64 72 65 68 77 61 70 69 90 104 101 110 85 113 103 105 97 88 92 88 88

GFSMA_con_3kmhel_069.txt.gz
Helicity
52 54 42 45 38 36 36 32 36 34 34 35 37 41 41 45 49 60 65 49 42 47 51 36 30 39 40 36 38 42 53 47 47 42 36 26 27 27 33 37 34 33 45
76 69 55 48 42 36 32 32 34 34 35 42 34 38 38 50 49 56 70 68 51 52 60 61 75 59 46 30 15 17 31 41 44 48 51 49 36 29 29 36 34 35 38
84 87 72 56 44 48 36 37 38 47 49 50 40 45 59 60 66 53 66 69 73 65 58 65 80 86 40 41 28 30 30 37 26 51 60 62 65 46 36 36 30 32 33
98 95 85 70 62 62 59 62 62 59 54 53 51 45 59 73 74 73 77 88 90 96 93 83 103 94 68 59 51 50 67 72 74 50 29 69 71 67 54 50 42 34 30
86 104 90 73 76 74 64 65 67 69 62 51 56 53 49 67 75 98 92 106 101 98 114 143 174 152 123 108 90 92 89 83 81 80 69 42 40 67 60 59 55 47 36
93 95 89 77 80 75 57 67 64 67 64 53 53 52 60 62 80 89 86 100 119 129 164 191 179 163 162 143 138 129 113 94 81 79 73 64 65 29 66 60 61 61 55
109 107 94 79 80 72 53 81 80 64 67 70 66 65 74 67 84 105 102 101 148 171 183 180 165 131 134 152 140 131 120 110 87 70 64 70 79 70 75 23 49 71 69
111 115 92 74 68 75 72 79 82 77 68 82 85 75 75 82 124 104 107 115 127 140 159 172 182 180 148 151 134 141 124 113 91 75 60 53 47 57 72 76 57 20 85
111 105 81 83 93 94 90 96 105 110 104 111 118 134 115 87 105 120 135 149 141 163 171 212 209 188 171 143 113 99 100 92 75 62 47 43 39 40 35 53 63 53 38
193 192 182 159 123 101 92 85 97 107 126 109 123 146 178 203 149 128 137 163 183 182 215 239 227 206 177 143 118 77 74 76 69 56 45 45 42 37 43 51 51 53 56
155 156 115 78 83 94 95 117 103 105 124 123 140 151 160 176 178 179 156 189 240 250 274 271 250 235 215 159 112 92 90 85 87 51 61 87 93 67 32 9 -2 10 33
289 185 121 157 178 156 135 121 120 122 132 136 143 145 139 152 174 193 205 173 200 243 280 285 275 244 242 175 132 125 101 87 76 105 103 109 108 79 57 9 9 12 -2
240 271 191 138 148 103 102 127 121 126 137 143 115 126 145 159 186 189 201 181 202 225 262 294 285 254 232 185 133 133 101 87 79 78 94 99 99 114 165 60 60 40 25
228 181 189 113 101 113 121 129 145 129 106 108 100 132 131 144 167 179 184 161 181 237 265 255 278 259 245 192 151 153 99 94 74 80 93 90 101 139 152 140 124 128 89
163 135 138 119 118 121 192 148 127 109 109 108 103 110 134 132 149 144 156 158 177 192 202 226 240 243 231 177 131 140 100 75 72 84 80 90 90 119 137 142 135 114 150
163 168 177 213 185 153 150 120 97 83 100 77 77 95 146 151 158 178 171 178 187 166 189 239 252 210 207 173 142 133 89 85 88 72 68 69 68 94 107 112 128 125 121
169 207 182 159 140 128 143 126 134 120 117 109 136 94 140 150 157 176 183 176 190 186 175 180 207 168 194 152 125 108 83 71 68 68 64 56 59 79 97 102 120 123 124
198 179 171 146 126 128 132 125 143 142 133 133 123 114 131 164 177 182 171 176 161 152 138 154 182 202 179 152 115 90 78 77 82 75 61 72 80 83 85 98 118 121 120
193 199 181 151 142 126 129 140 121 109 116 132 139 142 155 184 185 180 168 159 162 162 166 177 169 172 150 134 111 74 81 74 79 94 78 89 100 98 95 86 102 115 124
203 193 170 146 118 119 114 104 106 112 125 138 162 178 175 171 178 173 182 165 154 154 143 148 157 140 126 104 73 62 79 89 81 81 77 89 91 103 112 105 117 124 125
182 163 140 118 103 96 92 91 93 90 94 114 148 190 199 198 194 182 169 153 140 146 139 118 116 107 91 84 75 67 86 87 86 92 83 81 80 96 107 111 103 108 110
154 132 106 91 90 88 79 74 72 73 93 115 133 165 187 187 168 158 160 153 128 109 91 89 82 78 77 75 80 79 82 90 73 75 88 80 88 103 105 107 88 92 98
129 109 99 95 87 87 76 72 58 84 99 112 127 150 175 177 168 164 148 147 131 120 96 76 68 65 71 69 91 93 77 74 75 73 85 83 92 94 88 87 76 87 96
115 106 92 102 114 105 101 107 121 124 132 129 122 122 123 119 107 104 100 103 118 107 76 79 67 73 81 82 85 72 65 81 86 86 91 97 95 95 92 97 114 94 102
125 98 104 119 118 117 107 106 124 126 133 118 107 99 89 77 56 65 74 71 66 67 54 78 75 83 82 74 70 89 90 98 86 90 93 104 104 100 100 102 116 128 114
119 98 92 103 101 114 92 94 107 134 113 95 83 70 41 44 27 31 36 34 43 44 61 72 85 95 98 71 53 62 66 78 93 99 83 109 113 122 124 103 103 110 103

GFSMA_con_3kmhel_072.txt.gz
Helicity
44 49 43 45 46 50 40 36 43 44 38 31 32 32 29 33 38 48 61 47 47 42 34 33 30 36 46 41 15 19 23 39 52 52 52 46 39 32 29 28 26 31 41
62 63 61 52 43 47 41 42 44 39 34 40 34 35 32 40 44 50 57 57 50 49 51 47 55 51 53 33 44 41 45 27 25 41 44 55 47 43 29 26 25 28 35
68 75 74 63 53 54 50 42 37 43 44 45 35 31 38 42 49 50 47 56 67 77 52 52 61 59 78 41 51 61 73 70 60 41 32 54 49 50 43 31 28 31 39
85 87 91 74 72 66 59 52 49 48 42 44 32 36 40 45 42 42 68 78 86 86 75 87 82 87 115 76 69 70 86 91 68 67 70 32 50 52 51 48 40 31 37
102 102 98 100 91 85 69 65 54 53 47 47 36 35 40 33 37 56 53 79 72 84 88 87 129 139 123 95 87 101 102 82 69 69 68 82 58 27 50 54 54 34 45
119 118 104 92 97 97 86 71 54 53 47 42 37 33 38 33 40 57 65 75 80 99 112 140 149 157 157 128 98 96 99 86 73 78 72 81 77 72 44 41 54 46 45
127 113 89 103 91 85 77 71 74 56 48 59 51 64 55 38 50 67 65 62 87 111 132 163 173 186 187 168 124 117 98 79 72 69 57 66 69 69 75 71 40 52 59
124 139 100 90 99 95 86 76 76 75 68 68 73 81 63 52 38 59 93 92 104 134 161 170 180 175 177 168 150 134 119 91 59 61 55 42 45 48 58 71 72 64 23
152 146 125 127 105 92 94 96 91 78 79 82 88 74 68 61 72 84 108 132 128 151 177 188 186 189 190 175 146 111 104 65 64 62 48 34 27 26 43 64 63 69 49
186 188 163 172 164 145 103 104 94 94 108 103 102 110 126 151 108 110 109 126 145 166 186 209 213 205 191 170 147 141 104 55 51 51 55 53 60 67 64 46 36 49 49
161 171 193 157 133 127 114 91 75 89 85 106 95 108 116 133 137 143 124 123 197 211 213 218 233 235 228 197 144 135 109 80 76 96 75 80 86 74 44 11 1 2 8
177 136 154 182 194 193 132 90 78 57 103 90 94 104 134 121 137 139 152 132 166 196 227 235 239 234 226 206 174 163 108 107 91 80 87 72 101 76 112 28 32 24 14
213 193 164 154 167 75 126 155 104 94 100 103 105 119 128 121 142 160 169 136 156 205 219 217 216 216 211 190 202 206 155 115 101 79 79 77 86 124 176 149 145 121 51
188 173 135 92 113 116 126 107 121 118 115 113 114 119 117 117 133 144 162 150 140 188 237 224 217 221 194 193 182 174 133 108 122 97 90 83 106 142 163 136 106 115 146
189 179 129 156 146 113 133 146 114 112 135 111 93 83 110 107 112 117 138 143 140 138 157 202 227 207 196 215 174 166 116 112 110 95 83 89 97 117 141 135 123 119 142
159 169 156 178 130 127 157 140 108 92 98 92 101 117 110 119 157 164 131 157 176 163 155 208 199 199 212 196 149 173 138 109 116 78 81 85 86 116 104 105 104 102 122
179 140 216 183 143 118 139 124 106 120 114 116 134 128 115 127 143 163 164 183 173 182 185 210 227 198 176 178 167 144 116 92 91 78 68 76 90 86 86 104 107 108 123
163 162 157 161 155 156 144 124 134 140 126 111 106 122 111 140 150 153 156 164 175 177 169 200 219 212 177 178 170 157 105 106 107 94 75 79 69 75 67 86 111 120 125
184 190 173 160 162 166 134 155 150 125 115 103 104 113 113 132 140 162 177 196 193 180 179 181 195 212 212 189 168 135 108 95 95 106 86 82 83 84 73 81 95 113 122
198 196 201 191 186 177 159 146 125 113 103 105 108 114 114 133 150 166 176 173 180 178 176 179 179 190 189 169 142 118 72 74 56 71 72 78 77 89 86 79 96 108 123
188 179 180 189 172 146 120 106 93 91 87 90 103 117 120 149 165 170 180 165 159 165 168 175 183 176 156 132 105 73 63 60 61 65 67 74 76 83 89 92 87 88 101
196 190 176 155 136 115 87 85 86 86 84 88 93 111 127 143 156 164 168 154 139 152 146 153 151 135 118 101 80 63 75 77 66 68 77 68 76 79 87 91 89 84 88
178 158 147 127 103 92 78 74 78 96 89 100 108 123 143 170 183 184 190 187 185 170 139 105 94 85 82 63 84 85 74 76 71 64 66 67 78 77 81 80 75 79 82
155 144 114 96 98 85 84 96 100 117 109 113 118 127 135 138 137 133 129 139 125 112 91 72 69 61 66 72 79 74 69 79 77 70 75 79 83 82 84 94 99 77 91
184 153 127 103 94 97 94 98 135 120 118 113 122 127 124 113 91 91 111 110 101 94 87 75 69 63 78 76 69 96 92 84 73 70 72 75 78 80 84 88 108 110 101
195 168 130 97 71 98 86 86 120 114 105 122 118 108 97 91 56 53 62 60 66 44 53 65 83 88 93 66 53 61 57 78 73 64 57 71 74 84 85 81 79 91 101

GFSMA_con_3kmhel_075.txt.gz
Helicity
39 44 45 47 46 49 45 44 38 34 27 25 26 22 21 22 24 33 36 26 20 37 33 46 35 30 31 33 28 26 27 18 21 37 48 42 35 36 32 26 26 38 43
47 48 50 49 48 51 56 48 41 32 24 25 26 28 25 25 24 27 40 35 22 27 33 46 37 39 43 58 68 72 63 55 40 32 46 47 42 30 39 31 26 29 40
45 49 53 50 55 64 59 61 52 41 30 30 27 29 22 19 19 15 23 32 47 49 42 52 42 41 61 71 81 72 82 72 64 64 32 26 47 38 26 34 29 25 36
43 51 57 58 69 71 68 66 62 52 44 37 33 26 24 25 22 20 33 47 50 62 61 73 62 56 105 109 95 81 91 72 67 72 80 78 18 41 46 41 42 27 37
38 56 63 64 82 87 78 79 75 64 56 51 38 31 29 34 30 33 31 40 56 63 66 73 73 121 146 138 125 105 82 73 72 77 88 81 81 42 19 44 48 39 33
-17 56 67 73 92 104 106 93 79 69 63 54 49 40 41 33 32 40 31 29 35 56 74 102 145 165 199 182 147 108 94 79 65 51 67 82 82 84 64 47 43 47 38
46 69 84 84 98 104 97 85 93 86 80 71 70 58 44 39 53 52 33 42 48 66 89 122 144 160 198 218 163 124 94 84 69 63 46 49 58 62 72 76 73 30 51
103 99 113 133 103 106 112 113 108 124 103 88 93 70 62 69 57 56 64 67 80 83 116 144 166 169 168 173 158 136 105 89 69 52 42 38 34 45 49 64 76 70 42
72 65 110 166 142 125 117 113 114 99 106 98 83 76 61 53 56 53 75 89 95 101 125 152 168 176 176 152 133 129 117 96 77 51 46 47 41 38 36 43 55 52 49
51 75 65 132 174 177 136 150 128 127 130 108 95 78 94 97 59 49 64 95 114 115 125 141 174 183 181 159 147 142 117 109 88 36 52 83 83 76 51 26 13 17 38
85 95 84 118 160 192 188 182 155 171 133 107 76 64 95 87 70 82 76 97 115 141 169 162 173 189 189 173 180 144 123 107 84 95 101 85 86 79 53 33 23 5 3
136 136 142 111 126 162 147 126 131 173 131 136 88 78 76 73 89 111 122 97 101 133 166 183 183 190 182 170 185 203 154 153 119 105 108 88 76 79 135 86 57 65 31
184 197 180 162 166 191 223 207 189 158 132 96 78 70 77 77 102 114 119 97 113 136 144 153 173 196 186 182 191 189 172 170 137 116 102 112 92 96 158 155 127 157 118
185 213 235 191 141 130 81 90 92 134 102 112 102 103 111 109 110 119 130 132 134 141 135 148 154 171 188 192 205 191 175 172 138 141 125 108 69 109 144 156 106 107 135
172 183 165 176 206 215 193 148 130 138 114 118 120 121 112 100 120 133 144 143 151 148 117 120 166 161 174 187 167 177 197 155 136 109 106 83 86 109 137 129 97 107 124
142 201 167 188 138 126 107 111 117 122 114 103 96 103 114 128 137 130 137 145 165 160 137 184 174 185 180 178 176 192 154 138 139 98 92 87 81 107 124 120 97 92 117
154 217 187 176 144 147 149 148 120 118 105 93 113 125 125 129 128 133 158 174 168 176 169 201 196 194 203 203 183 164 159 143 135 98 101 91 97 89 99 103 96 90 104
136 164 175 159 142 143 143 157 152 149 123 126 126 132 123 140 124 134 152 155 169 186 190 192 189 189 190 203 190 174 172 157 109 105 104 105 100 84 69 77 81 90 97
159 195 204 188 181 160 147 142 140 134 147 136 137 132 113 126 122 141 154 171 181 187 186 192 185 193 211 216 218 214 178 147 131 145 125 114 110 81 60 71 84 98 103
178 193 189 177 176 169 166 161 159 163 147 136 130 118 120 124 118 143 167 170 179 175 179 190 186 191 189 184 192 190 165 138 109 109 96 93 79 86 65 71 78 87 92
169 196 219 224 218 201 187 178 170 146 135 122 118 117 120 123 114 125 154 160 179 179 181 175 181 188 191 186 159 142 134 103 85 68 55 53 68 72 84 83 79 78 85
166 181 187 196 200 203 176 153 142 132 113 103 98 104 112 118 123 140 163 174 167 167 165 164 176 172 160 149 135 110 91 67 48 57 63 62 76 76 80 87 85 76 72
172 174 180 183 171 160 121 104 94 104 110 97 98 112 123 142 157 187 201 202 203 185 147 141 144 122 112 86 97 75 59 66 67 69 60 68 78 75 76 78 75 73 73
154 164 157 156 160 141 107 102 101 106 97 95 106 117 127 141 152 152 148 141 129 122 109 95 86 86 78 75 62 61 60 81 90 73 63 62 76 73 83 88 75 72 75
153 169 171 148 134 126 105 103 130 120 111 104 125 138 145 145 117 121 125 116 114 113 94 83 76 85 73 70 75 87 88 77 69 59 51 63 70 79 77 80 108 103 73
181 172 167 142 109 118 75 83 128 133 127 124 126 140 133 130 100 94 87 82 82 69 65 68 69 80 76 61 68 61 62 68 69 66 40 53 64 59 55 74 71 74 84

GFSMA_con_3kmhel_078.txt.gz
Helicity
43 47 48 48 50 53 50 49 42 38 32 30 28 21 21 20 24 30 22 50 26 16 19 24 34 40 49 54 50 45 31 16 21 27 42 40 35 23 27 32 34 39 48
57 52 50 50 50 54 57 53 47 44 38 33 29 29 24 24 19 22 23 28 26 16 18 15 26 43 50 78 95 88 66 59 54 55 30 41 45 37 24 25 34 35 39
54 48 51 52 51 56 56 63 61 57 49 44 32 33 33 25 25 20 16 17 36 41 30 30 27 38 65 99 128 124 96 85 80 74 73 44 35 41 40 28 29 39 39
52 48 50 51 53 64 68 72 71 71 62 54 48 47 39 30 24 18 17 16 24 26 55 50 47 48 69 125 112 127 97 75 73 80 76 72 73 26 35 38 35 39 43
52 54 59 56 57 66 72 80 86 82 85 80 66 55 60 32 31 30 12 17 17 28 33 78 55 69 143 124 119 126 95 74 68 69 78 81 79 91 55 18 39 36 43
54 64 55 60 69 79 80 87 87 91 95 95 95 74 52 42 38 30 25 18 19 26 37 50 84 135 144 159 151 120 92 87 75 60 61 65 73 75 82 63 38 38 42
49 66 57 50 74 76 73 79 96 113 135 110 118 84 54 48 53 49 34 35 35 38 49 67 99 120 158 197 168 136 114 91 77 61 50 43 43 55 69 62 57 41 28
47 65 52 66 56 83 70 98 124 148 125 118 125 138 106 87 79 64 57 48 57 56 71 86 121 150 139 146 157 138 108 89 71 63 48 41 38 47 58 55 55 53 50
34 50 21 52 47 76 88 87 110 96 129 144 140 126 120 105 90 62 40 45 43 66 95 99 134 152 173 177 162 129 121 104 84 67 48 51 50 64 69 54 53 47 45
107 55 7 -100 156 85 73 78 98 126 135 158 171 150 115 113 95 62 -6 30 48 75 97 106 126 153 164 189 209 186 135 129 120 101 73 86 86 79 63 45 27 23 23
175 153 52 110 81 120 113 216 148 222 243 222 227 224 251 127 66 59 23 9 40 67 102 114 144 163 173 175 194 174 169 152 126 125 109 87 85 62 53 88 35 51 18
69 64 124 105 101 121 128 132 134 209 210 216 173 160 175 120 79 72 59 59 70 72 102 120 149 164 169 182 189 201 176 173 143 137 120 104 87 58 90 143 119 122 89
32 50 131 205 216 215 201 215 224 222 127 204 149 134 78 85 84 76 82 83 102 137 120 114 153 170 164 163 191 176 183 162 146 131 131 126 103 69 119 175 157 129 163
144 171 190 187 207 203 184 191 149 113 205 161 87 91 90 93 98 102 99 92 91 75 112 104 145 149 146 161 186 187 175 200 176 172 141 95 92 81 117 135 128 116 118
122 147 173 183 201 177 186 186 219 217 186 178 150 112 88 106 107 100 96 110 110 117 102 145 140 122 155 179 178 168 178 158 171 182 127 89 84 84 101 146 129 107 107
115 131 195 233 223 193 174 174 134 119 123 91 111 104 96 111 113 121 136 144 150 154 163 221 184 153 143 189 181 177 153 171 172 125 103 72 88 108 109 131 131 101 98
114 141 207 227 198 164 135 104 98 104 101 110 104 92 98 105 115 128 142 142 146 167 183 203 210 192 168 194 183 187 180 154 136 136 95 67 97 96 93 113 118 109 113
99 133 190 212 180 148 120 118 125 123 112 115 116 122 115 139 122 136 140 130 145 169 193 181 195 194 190 192 185 169 166 135 133 104 107 76 119 98 93 103 95 103 110
76 98 142 185 181 166 154 140 133 136 135 121 128 117 118 119 120 135 137 146 157 181 187 199 196 205 209 211 224 198 194 168 193 163 112 127 125 126 78 83 78 80 101
100 100 115 152 186 178 172 167 167 153 157 160 154 144 137 138 134 131 131 129 155 169 179 194 207 202 196 182 197 190 182 162 146 118 107 117 95 94 62 54 61 76 90
124 131 134 140 159 170 175 178 187 178 161 153 155 136 131 133 146 137 135 158 183 188 198 202 213 208 191 193 183 176 176 151 111 83 77 75 53 45 49 52 52 71 79
119 145 150 137 145 170 170 171 173 170 161 145 127 120 123 136 136 142 137 147 153 176 171 178 181 176 171 167 162 160 165 137 87 61 54 44 51 46 45 55 83 76 65
117 123 136 154 139 128 130 142 155 168 157 146 138 126 129 149 158 159 167 167 180 179 162 137 145 142 147 119 137 135 115 88 60 61 44 47 45 55 61 60 69 69 69
111 122 123 128 142 136 119 123 125 135 127 112 105 105 115 134 154 176 167 164 152 150 141 125 102 102 105 102 92 69 54 71 77 64 63 57 54 59 60 62 56 68 76
103 124 129 130 130 133 108 106 110 114 107 99 99 98 118 137 129 138 151 143 128 115 115 107 94 87 81 67 67 67 68 63 58 56 66 68 60 63 57 60 84 99 76
89 128 163 149 131 131 97 85 113 133 108 105 99 99 100 127 120 115 117 115 101 97 101 91 87 87 71 70 59 46 49 62 79 69 53 66 63 69 71 49 61 69 80

GFSMA_con_3kmhel_081.txt.gz
Helicity
62 48 42 47 45 44 43 39 39 40 32 28 28 27 27 21 19 26 28 59 44 22 13 8 11 31 32 44 41 42 24 21 25 29 44 48 43 36 33 32 33 41 47
66 66 64 61 57 56 55 47 42 45 37 38 33 31 31 29 21 31 24 50 47 34 24 12 2 9 32 57 75 61 73 52 57 54 61 42 42 35 36 31 31 39 39
73 67 61 60 53 58 45 55 52 55 53 48 39 40 36 23 36 25 29 24 52 47 45 33 23 25 34 67 91 106 97 82 71 67 74 70 43 31 35 36 34 31 42
69 69 77 63 62 55 55 64 65 67 65 58 54 44 58 43 33 29 33 41 38 31 53 47 58 54 50 94 115 107 123 93 79 79 78 79 78 78 24 36 34 30 38
59 73 70 69 62 74 62 63 77 79 83 80 71 79 92 81 47 36 32 30 36 38 29 77 70 66 66 127 102 117 124 91 78 73 77 73 78 78 79 68 20 38 36
56 60 75 83 81 79 67 68 72 86 93 90 113 116 144 87 59 60 44 49 42 51 37 39 85 105 124 144 174 160 120 92 79 78 77 59 59 69 66 66 49 46 37
89 82 95 114 129 92 52 57 73 81 104 133 175 153 92 52 66 87 69 55 55 55 51 50 70 120 154 220 201 175 152 114 97 82 74 56 44 46 52 53 51 42 66
75 78 59 55 85 114 88 100 76 101 130 139 194 138 130 92 130 109 91 71 62 59 62 65 87 153 161 160 190 206 182 128 100 83 73 66 63 59 54 49 45 54 51
75 59 56 80 68 88 83 83 65 80 141 153 111 162 171 155 215 118 111 76 42 37 67 84 95 130 156 204 185 200 203 136 120 93 80 73 88 73 64 59 51 40 42
100 81 13 61 99 73 40 91 75 36 93 149 187 139 193 296 224 175 107 54 39 16 71 66 94 119 133 187 230 246 217 153 131 125 111 107 90 73 58 52 65 51 28
32 37 21 47 131 114 76 42 137 143 187 191 215 271 274 267 252 169 161 75 -35 3 66 82 120 149 154 189 187 201 186 170 160 154 132 96 75 69 66 82 93 67 76
5 25 -91 -29 145 194 152 14 174 115 134 192 228 236 240 285 214 140 106 114 113 96 93 123 129 146 168 163 211 210 201 190 180 160 152 122 90 78 74 100 108 131 117
-7 -15 1 -21 -9 105 38 155 159 172 167 187 209 218 185 128 118 69 88 81 63 101 122 102 125 155 170 151 198 176 193 173 152 160 160 156 91 71 80 113 132 118 111
22 59 30 48 75 38 146 184 196 199 174 164 171 208 220 93 105 132 129 122 110 98 90 115 197 177 158 145 202 167 178 188 177 180 182 139 114 93 82 106 114 108 90
90 121 145 134 146 187 208 232 239 223 204 179 125 134 127 107 117 121 128 118 119 126 93 88 236 204 186 179 167 168 225 203 198 188 145 143 135 89 98 83 104 111 105
105 101 113 154 208 215 231 233 198 160 201 157 145 137 128 142 121 104 122 114 119 118 152 210 273 235 189 181 179 196 197 198 163 126 110 122 92 84 87 134 122 116 112
105 115 133 177 207 253 229 194 174 172 153 133 110 90 100 101 98 116 133 137 132 154 149 195 241 224 186 206 187 185 190 181 169 132 122 119 111 85 113 106 101 104 118
80 89 123 161 179 193 212 176 160 141 126 112 96 115 115 129 126 148 169 154 154 152 166 148 206 189 200 195 178 173 183 164 165 130 92 74 72 78 112 102 110 95 126
69 67 92 137 181 189 160 152 136 122 115 119 124 129 128 130 136 155 145 145 149 173 180 196 203 208 207 216 224 222 205 197 184 184 162 119 95 83 97 101 99 88 85
87 89 91 109 141 168 181 180 162 148 128 136 142 133 137 153 159 142 152 142 162 176 169 199 229 230 219 215 220 210 191 178 178 161 141 120 83 96 82 86 75 76 87
99 117 122 139 144 163 165 178 194 183 165 159 159 164 167 173 213 190 173 163 161 164 195 202 224 221 208 198 181 180 181 174 143 122 101 81 80 81 70 54 34 34 60
97 106 116 135 153 177 179 162 170 170 164 156 167 159 163 181 142 132 134 143 125 156 179 201 204 196 173 172 179 183 206 195 150 94 86 81 80 54 57 43 61 30 46
95 102 115 122 127 138 145 139 160 176 171 182 182 168 145 114 116 115 129 147 171 162 157 135 132 132 146 155 175 167 163 156 126 93 51 62 57 45 61 46 42 50 52
94 104 115 117 128 140 132 112 129 179 166 155 157 148 130 94 79 130 169 184 172 163 147 141 127 127 124 125 124 117 118 115 131 88 77 58 57 53 52 45 41 53 59
93 96 109 122 138 153 136 114 133 157 181 155 132 112 113 112 93 123 166 147 136 133 136 127 139 147 120 96 108 128 150 122 82 56 53 65 55 76 45 44 57 67 62
76 89 99 114 127 156 141 114 145 188 170 148 113 106 96 115 80 96 133 128 112 108 115 138 144 141 120 116 87 74 84 93 82 51 53 90 84 70 58 52 44 36 68

GFSMA_con_3kmhel_084.txt.gz
Helicity
116 77 74 62 49 44 16 34 37 36 28 30 20 28 35 32 18 47 78 63 44 34 30 8 1 4 18 32 26 44 27 30 46 45 46 43 42 35 32 40 36 39 35
151 132 88 68 50 61 52 58 42 41 50 40 32 39 32 34 34 28 87 69 48 31 30 24 14 16 10 38 59 64 86 80 69 65 68 87 48 46 34 37 37 34 37
111 101 93 88 82 73 56 49 45 49 58 56 60 38 49 34 49 32 50 87 56 44 42 28 26 38 47 62 86 111 116 93 79 76 69 70 75 83 41 36 36 33 35
112 107 98 86 61 61 63 70 65 70 77 73 70 54 51 68 51 67 54 67 73 55 48 43 53 47 53 66 106 123 122 106 102 92 76 79 78 71 86 63 38 37 30
105 103 100 86 72 77 87 79 73 75 85 65 63 54 72 106 88 80 58 61 84 77 71 54 70 44 37 83 114 142 137 133 115 82 71 69 65 72 76 81 79 25 32
95 109 116 103 100 98 96 86 68 65 73 69 70 70 131 167 133 91 94 122 88 78 80 78 88 83 107 122 140 160 152 138 114 94 81 80 79 73 65 70 72 56 44
95 100 112 126 143 154 104 73 83 67 74 72 97 132 154 125 88 93 156 122 112 105 83 55 105 105 121 180 183 163 144 131 103 80 71 75 75 70 71 62 65 53 48
142 137 124 115 103 126 129 101 104 115 95 109 119 158 144 138 85 142 174 170 140 86 73 76 93 111 117 131 160 161 150 141 112 81 86 87 86 87 86 80 58 53 41
135 105 84 85 78 83 88 124 101 112 103 114 113 162 198 178 221 214 186 164 125 109 91 80 107 132 136 149 156 170 173 165 131 101 94 102 106 114 106 77 59 43 24
75 67 62 64 66 85 82 71 87 128 109 101 133 54 140 222 273 319 220 164 123 93 70 58 84 139 168 183 187 161 163 166 158 145 116 123 109 93 95 77 81 77 49
90 103 84 64 61 74 35 -43 42 139 188 121 157 203 302 159 304 409 277 215 126 43 64 62 94 130 150 187 189 162 157 168 164 152 150 128 95 84 92 81 95 112 106
120 125 91 41 37 177 215 84 17 179 241 179 171 209 339 318 287 352 294 188 118 83 110 127 163 165 170 189 206 180 169 182 172 177 180 147 143 110 82 84 107 101 119
-66 -95 47 46 64 92 94 109 212 207 178 116 102 218 219 182 235 131 143 130 81 90 113 133 143 160 207 189 157 165 168 167 161 159 149 197 153 114 82 91 92 93 86
50 33 27 16 77 102 65 141 111 140 122 143 184 144 145 140 130 147 163 32 66 102 126 128 164 215 241 189 163 164 158 175 185 223 235 179 158 122 82 88 91 90 82
24 9 18 34 72 54 83 144 168 167 139 163 167 159 153 143 132 92 74 123 129 93 88 112 197 303 278 216 175 177 167 171 198 207 189 184 166 138 124 138 98 73 89
57 50 51 57 70 100 155 165 179 180 189 183 154 176 139 137 113 109 97 118 127 146 131 160 194 243 258 227 205 176 170 176 171 175 164 155 134 126 125 93 75 97 121
73 67 61 58 84 111 160 171 168 171 168 143 136 136 127 109 97 89 85 91 111 142 133 170 183 199 209 192 169 173 173 174 184 179 150 162 131 131 128 76 72 103 94
60 50 54 57 78 116 148 173 189 166 157 152 162 142 104 102 91 86 95 107 130 144 145 124 168 181 185 186 181 190 176 159 164 168 164 158 135 125 68 44 95 97 101
66 61 60 61 68 94 128 155 164 156 144 145 142 131 120 122 119 127 126 142 158 143 156 160 171 192 209 209 212 201 193 188 187 179 186 169 159 109 76 74 100 94 95
83 79 68 74 83 102 129 148 152 141 146 146 134 123 116 118 117 118 128 120 140 142 155 166 186 186 186 203 208 205 203 184 191 182 167 155 123 99 58 85 90 82 88
104 104 100 89 86 110 135 141 157 165 171 164 151 153 151 155 169 174 182 178 185 167 159 175 192 194 203 201 173 162 160 171 151 171 158 117 95 79 76 83 65 59 58
106 107 104 107 104 115 103 109 137 150 149 171 189 185 175 176 182 181 179 201 179 197 173 168 172 177 156 146 156 161 189 193 155 130 148 107 98 73 68 63 45 28 28
103 102 99 108 115 122 112 111 122 159 166 153 166 186 189 181 166 179 180 170 168 159 143 121 134 135 133 124 163 160 171 158 138 102 108 98 67 56 50 39 23 17 17
79 92 98 95 98 110 96 107 109 157 175 178 170 156 157 173 167 169 191 176 163 141 124 141 132 113 113 122 152 144 155 155 154 121 77 77 55 53 35 22 20 29 39
83 73 73 84 91 93 92 105 130 158 177 182 196 190 180 177 135 104 161 127 113 124 135 155 152 124 95 85 116 173 164 188 134 85 56 67 51 64 36 35 28 32 33
72 73 72 71 78 94 90 96 124 185 176 190 193 182 130 154 115 49 130 119 126 108 142 156 151 131 117 102 117 132 165 146 97 74 37 81 64 57 54 50 46 38 48

GFSMA_con_3kmhel_087.txt.gz
Helicity
155 157 145 117 91 64 51 41 37 27 14 20 23 24 22 14 37 52 47 35 45 32 14 21 16 9 -1 4 10 53 56 54 59 55 49 36 44 49 52 42 42 31 33
149 133 134 119 90 60 51 49 41 39 24 28 23 24 29 29 26 50 59 62 50 45 19 10 12 18 13 6 33 57 91 94 76 62 56 69 58 35 43 40 35 34 33
147 134 138 117 85 59 62 63 48 57 49 36 35 32 39 30 32 31 65 69 73 35 37 19 22 28 23 23 51 94 123 102 81 70 68 66 62 66 82 41 44 38 41
184 153 141 115 100 103 84 85 74 62 48 55 58 40 35 38 43 37 69 76 91 70 44 35 44 51 42 32 63 95 109 100 85 76 62 70 65 66 64 68 76 48 43
176 174 150 130 120 113 100 95 87 85 77 74 61 46 47 31 52 93 78 91 97 95 71 49 55 57 43 33 71 107 105 99 95 72 72 70 73 76 71 66 69 81 32
150 160 158 131 119 107 102 107 103 90 86 68 57 45 48 85 116 122 128 132 147 117 94 99 88 68 46 44 89 110 102 105 103 102 84 72 74 91 87 80 76 73 59
132 146 151 154 142 120 118 106 109 87 80 84 109 93 88 110 114 133 125 174 181 142 105 88 89 82 78 94 102 127 110 111 116 114 99 71 82 94 84 81 78 65 52
116 123 139 155 158 180 171 156 145 138 101 82 97 119 112 129 130 113 165 207 188 158 134 116 102 90 96 124 158 155 123 128 134 129 95 97 94 96 98 87 74 58 46
154 141 131 133 126 136 142 146 142 114 110 113 115 118 159 120 124 174 232 233 198 166 125 123 105 92 91 119 156 188 207 177 139 113 103 106 97 115 101 89 87 85 60
227 260 134 112 120 115 99 99 96 125 128 105 133 148 187 192 148 113 293 311 237 207 142 128 117 92 98 146 153 175 168 141 123 110 125 133 95 98 99 90 110 120 128
55 122 138 67 102 94 94 53 48 70 187 237 154 206 207 225 229 254 325 388 437 302 159 98 73 154 166 180 144 142 146 135 128 126 142 121 107 115 96 90 106 111 117
72 35 92 97 138 130 130 127 103 155 182 164 222 243 219 307 323 277 283 338 304 263 163 118 171 161 159 153 138 135 132 138 147 136 126 135 135 119 116 94 98 85 84
42 148 175 156 129 125 130 56 119 141 217 242 226 247 253 275 304 420 380 318 246 113 134 104 129 155 197 186 168 154 135 138 132 126 123 162 158 116 110 121 100 79 106
-21 7 33 27 27 61 39 68 55 114 128 132 142 220 205 202 208 264 270 322 200 71 61 61 181 171 202 195 155 144 126 118 124 139 244 240 154 128 125 120 86 89 108
21 23 22 18 60 83 91 126 117 107 109 122 125 126 146 140 151 123 113 160 143 121 89 164 184 225 240 231 190 145 139 127 143 185 188 183 158 142 136 141 141 115 96
53 45 64 49 56 62 88 98 98 110 132 128 151 157 202 163 149 118 129 135 136 149 98 134 147 171 205 211 182 165 140 138 131 130 144 144 131 139 146 133 124 99 51
55 56 51 59 61 51 50 71 91 145 134 143 166 158 159 129 137 119 139 155 127 121 118 134 170 182 188 182 181 169 137 129 143 138 127 129 137 134 144 133 116 59 59
71 66 63 47 42 43 57 87 107 125 138 142 151 158 115 127 122 123 113 97 89 92 109 100 152 174 170 170 158 136 126 148 137 138 146 152 143 144 157 116 78 30 59
77 80 80 74 66 53 50 66 93 128 142 145 153 145 129 139 131 126 114 110 110 130 152 183 177 191 173 167 167 158 150 156 156 135 134 161 163 159 133 111 52 47 78
86 94 90 86 91 100 91 83 93 102 111 124 150 115 139 137 140 130 136 132 150 165 186 196 202 183 173 171 170 145 141 149 149 165 170 159 137 132 109 89 43 54 80
105 103 97 100 103 97 101 100 102 106 113 117 142 137 151 137 124 133 154 145 157 180 197 207 193 198 194 182 161 158 149 150 134 158 159 148 136 121 105 68 40 69 66
104 109 126 114 107 99 96 96 119 137 127 108 147 111 150 154 175 154 150 127 157 188 198 218 207 190 173 166 191 188 195 168 130 146 177 141 131 108 83 62 48 40 41
102 113 129 127 123 112 110 96 93 132 147 158 160 143 169 159 167 194 191 175 164 160 196 213 192 161 139 136 181 171 160 155 144 137 147 134 122 92 50 50 25 12 13
87 98 109 116 115 112 144 132 91 121 137 141 149 145 154 154 171 200 206 223 206 217 210 189 159 132 120 125 146 148 173 175 173 146 132 119 92 61 51 25 8 6 9
78 75 84 100 109 109 121 132 128 142 140 137 150 163 171 172 122 127 194 206 216 211 199 175 157 123 100 99 141 214 196 211 168 132 114 99 73 71 37 26 26 23 22
65 68 79 85 83 94 105 115 122 137 149 160 143 155 128 162 122 126 182 186 195 180 210 212 187 143 127 118 103 141 188 173 178 131 84 107 95 71 36 39 54 66 35

GFSMA_con_3kmhel_090.txt.gz
Helicity
309 234 178 173 144 134 111 91 58 43 34 23 20 23 18 14 31 38 31 18 18 22 17 7 5 7 3 0 4 36 49 44 43 36 42 38 39 43 48 52 52 45 38
189 164 156 148 160 117 104 93 65 48 39 43 27 28 24 19 43 28 33 13 23 31 19 7 5 6 5 -3 -1 28 57 71 64 57 51 58 67 57 39 50 48 50 39
121 172 158 149 152 118 112 99 80 68 58 49 32 40 42 32 37 42 46 59 40 41 35 25 16 16 22 9 23 53 95 101 86 68 61 61 58 63 74 90 49 57 47
137 123 146 125 150 136 126 108 99 75 60 62 49 31 36 46 30 31 61 61 73 74 59 47 44 41 43 30 33 76 91 93 90 84 67 60 66 72 66 67 62 83 59
167 198 125 119 151 147 134 123 112 109 95 80 65 56 52 48 39 47 57 80 83 92 90 85 52 54 54 40 32 72 96 99 99 93 79 68 73 74 74 71 77 74 88
169 188 161 138 160 161 143 137 142 111 108 102 93 81 73 51 39 48 98 118 111 118 119 103 97 88 45 35 35 88 111 103 105 105 87 85 69 72 71 68 66 67 69
167 181 178 164 178 168 149 137 137 131 121 134 142 110 85 70 73 106 130 150 157 137 155 140 112 91 78 63 62 86 102 102 121 117 121 95 75 70 67 73 61 57 49
146 180 175 168 166 182 149 131 157 177 151 151 160 157 127 121 77 92 122 173 197 211 189 135 121 103 106 98 90 111 111 117 128 139 135 98 77 75 75 72 63 52 49
124 147 148 167 171 170 160 167 182 181 188 158 131 160 169 133 142 133 133 187 199 216 214 167 140 126 145 122 147 166 176 169 146 123 113 84 93 86 74 77 66 90 95
117 133 161 161 178 194 207 195 207 205 223 173 174 96 124 142 171 178 149 196 226 273 200 179 196 194 147 116 110 129 155 148 115 92 74 83 97 87 85 73 76 104 101
186 122 164 181 159 134 102 110 126 143 139 184 130 163 194 244 233 262 225 277 344 363 338 214 240 196 128 108 109 140 110 104 104 116 104 99 118 104 90 89 86 93 76
154 121 174 176 125 131 86 109 81 99 130 127 151 195 270 309 372 497 492 431 421 379 444 309 366 203 166 150 132 102 96 93 102 106 98 90 137 118 97 86 83 67 71
107 66 47 34 120 65 75 117 109 121 149 154 120 123 194 241 314 319 401 355 376 416 412 355 284 176 165 148 128 125 92 97 103 95 83 80 172 141 98 87 85 86 81
83 64 54 74 117 112 156 124 147 140 209 166 99 181 153 175 261 324 310 328 397 566 498 352 304 180 153 186 148 132 121 101 98 99 117 212 190 132 94 92 96 100 81
156 25 -33 14 40 58 64 78 73 78 99 113 80 98 108 123 123 127 148 227 232 128 123 204 106 175 200 203 179 166 143 115 122 155 171 159 148 119 105 106 111 103 93
24 53 60 48 58 55 69 63 68 78 89 98 105 103 118 147 122 116 130 130 81 121 111 170 169 174 200 210 194 188 153 128 124 129 129 135 126 125 130 124 114 107 90
62 58 49 53 57 65 75 73 87 94 92 95 133 135 138 167 170 141 178 173 140 180 201 204 198 175 179 188 206 201 188 170 152 114 113 120 128 123 129 136 134 115 88
76 82 83 76 81 85 90 85 81 91 91 88 115 146 121 161 148 182 154 138 152 160 193 227 199 189 172 177 192 187 170 160 134 110 121 119 129 135 139 143 153 134 97
99 99 86 77 68 67 72 82 80 80 98 113 126 138 139 147 162 180 182 175 153 153 148 161 174 188 201 206 196 166 146 131 126 127 132 121 144 149 151 147 136 114 82
82 99 108 104 106 97 81 74 82 92 89 103 123 144 133 157 156 171 163 168 161 161 166 183 187 196 198 194 194 161 130 127 129 143 142 169 164 166 157 135 116 95 48
89 95 112 132 135 128 132 134 115 101 100 118 118 122 126 121 128 159 164 194 194 187 218 215 222 213 209 212 185 146 150 145 132 143 154 159 174 164 135 106 91 66 33
73 75 107 127 136 133 183 199 170 136 131 118 122 153 159 127 153 141 149 168 182 212 188 223 235 202 203 200 199 170 186 175 137 139 156 136 150 127 116 108 63 42 45
55 56 58 68 101 114 155 170 183 140 141 140 131 126 148 149 148 160 139 106 133 148 187 247 210 212 197 189 213 204 187 182 152 143 158 126 142 111 111 85 40 36 37
73 74 76 77 86 95 138 154 160 120 117 130 135 135 142 156 155 176 186 187 216 193 177 180 194 191 169 191 196 180 170 198 207 167 159 128 123 104 89 53 30 27 32
75 73 68 79 87 114 144 166 143 112 113 114 127 136 139 155 153 130 190 195 190 198 216 197 167 150 153 145 210 271 240 225 191 150 150 139 113 98 60 43 28 31 39
112 87 83 69 61 55 111 139 153 100 97 109 111 124 110 126 126 128 189 193 195 189 214 257 254 213 181 154 135 181 231 220 231 188 145 169 142 87 71 46 43 63 66

GFSMA_con_3kmhel_093.txt.gz
Helicity
188 204 279 281 239 162 146 125 112 98 71 46 39 42 42 34 21 27 36 10 -10 -9 3 7 7 2 -0 -1 -3 16 50 40 40 44 39 42 36 38 37 36 47 45 43
172 183 312 354 275 143 136 122 97 105 76 67 41 37 27 38 30 32 35 16 -17 -0 14 10 6 1 -2 -0 -3 4 56 65 65 58 49 46 52 58 50 33 36 40 44
158 235 203 284 163 203 100 139 94 128 102 84 45 42 39 33 44 38 34 43 31 16 3 28 25 20 13 14 6 34 65 89 81 72 64 59 50 49 56 56 63 41 37
186 302 261 218 273 89 97 105 144 115 109 99 71 50 54 51 48 56 55 55 64 48 29 42 57 51 39 29 22 47 83 96 89 85 74 61 54 56 57 66 63 59 74
150 313 314 239 180 147 86 87 144 120 128 109 82 66 65 70 60 62 51 51 73 86 80 65 63 74 66 49 36 42 76 88 87 80 81 66 63 59 62 70 74 69 69
178 369 336 196 176 143 101 75 102 138 132 119 113 92 84 78 77 59 58 70 85 87 103 107 112 101 74 56 35 28 89 93 84 82 87 79 77 72 68 69 62 66 59
275 264 254 219 178 127 89 98 113 152 127 154 181 141 121 102 94 82 71 83 96 112 127 127 125 131 94 54 51 52 102 106 87 94 103 104 98 85 81 83 68 63 47
210 224 195 201 202 147 98 109 145 171 161 187 205 192 156 148 106 113 128 118 110 142 162 184 171 146 114 114 120 107 115 102 105 108 119 128 132 103 80 71 55 81 92
229 225 217 190 170 167 177 157 176 168 185 206 215 221 209 176 181 181 151 132 133 158 169 198 187 188 144 149 173 172 146 133 116 108 118 121 108 90 79 68 59 67 82
285 318 302 196 168 171 152 159 167 179 198 220 237 208 236 202 192 216 179 148 188 205 232 244 277 273 226 171 189 180 164 164 124 117 93 64 90 92 82 73 68 78 92
232 223 226 217 181 165 155 171 190 199 216 213 252 240 164 161 161 207 277 212 233 267 276 320 322 333 394 371 238 180 157 102 81 100 74 110 109 124 97 79 66 66 61
201 203 178 200 141 137 174 129 117 121 121 143 169 180 193 220 179 264 265 237 321 347 368 385 392 403 368 353 404 334 164 117 118 96 86 85 108 136 113 93 84 82 83
141 120 135 154 107 79 140 112 122 123 114 114 136 144 118 144 161 153 238 312 306 364 423 424 391 369 364 316 297 242 214 135 102 83 76 80 118 151 134 100 98 93 90
32 90 85 109 36 57 43 69 106 62 71 83 104 125 138 164 177 183 213 248 345 381 434 392 445 342 392 354 251 173 199 125 107 97 100 164 206 169 138 116 113 112 92
133 200 108 83 45 79 72 100 66 38 76 88 52 128 171 196 189 142 147 208 223 210 307 350 398 472 352 211 192 156 187 118 107 133 182 175 164 158 130 115 117 111 106
60 49 86 138 41 61 76 71 86 99 109 76 89 81 109 130 109 128 139 121 118 124 115 161 110 166 189 198 164 162 166 152 141 131 135 132 127 121 122 122 139 109 116
55 58 57 49 69 53 53 60 82 77 58 92 106 113 102 107 123 126 141 159 140 175 145 131 167 186 216 214 234 217 194 181 173 132 115 112 103 116 127 126 137 137 143
74 79 86 88 71 61 77 83 76 79 80 82 85 89 81 118 128 149 159 148 194 193 235 236 233 267 229 234 196 191 184 185 168 146 115 95 110 132 135 141 143 143 136
69 75 82 94 112 112 118 123 122 123 113 97 105 103 94 119 156 147 161 163 173 280 221 235 220 250 246 257 199 184 178 174 167 155 136 111 121 129 132 144 139 141 135
116 133 127 108 91 89 97 121 126 124 118 113 109 112 107 114 120 163 167 173 204 276 276 279 263 253 261 227 219 204 172 168 152 149 127 135 151 147 138 130 134 132 128
64 65 88 119 145 156 149 151 133 120 121 127 124 104 112 123 134 131 179 227 218 266 249 233 250 222 235 258 219 198 166 168 141 158 154 172 211 193 154 125 141 122 89
99 100 106 97 93 100 149 185 168 142 147 131 130 133 143 133 135 118 104 129 150 229 249 251 282 223 234 235 213 208 197 199 162 158 174 152 172 153 148 152 131 91 58
67 63 64 75 126 159 190 171 179 117 120 129 126 129 143 146 155 155 127 129 141 164 236 235 239 249 279 215 222 221 225 211 173 157 186 153 167 127 148 141 103 79 55
90 93 86 72 58 69 128 154 185 128 122 114 109 120 123 139 139 150 189 174 127 155 155 188 194 232 188 170 184 207 199 230 234 200 216 160 159 141 162 142 115 87 45
31 46 68 70 57 58 99 111 101 88 110 134 126 112 109 122 140 116 161 172 178 171 236 166 179 170 169 131 164 258 264 250 222 183 164 175 157 170 152 132 109 78 47
13 -1 3 -4 -12 -6 20 52 60 31 49 55 102 123 116 101 119 131 161 170 178 192 194 208 227 180 151 153 132 198 261 259 265 200 149 197 175 180 138 123 114 95 81

GFSMA_con_3kmhel_096.txt.gz
Helicity
132 131 194 186 201 214 185 187 173 145 109 83 75 72 64 46 33 35 30 1 -4 -20 -16 5 10 8 0 -4 -6 1 28 34 39 38 37 38 27 21 18 24 28 35 43
164 191 180 222 236 249 226 188 175 148 108 78 79 76 62 58 45 36 37 29 0 -12 -21 -12 7 8 1 1 0 2 22 53 56 51 46 43 41 42 59 55 41 29 39
181 192 251 235 242 295 300 240 148 160 102 93 48 70 74 60 52 43 43 44 26 1 11 -23 9 19 16 12 12 11 40 64 65 63 61 56 53 47 51 56 62 49 61
208 191 188 236 285 243 379 355 332 106 100 90 66 46 63 71 62 54 57 58 57 39 19 9 13 27 32 31 25 19 50 73 75 77 70 66 55 46 47 54 62 76 68
163 191 224 261 289 329 346 411 292 178 51 59 78 59 64 71 76 72 67 66 61 63 65 46 56 39 55 62 46 29 73 97 89 90 85 71 56 54 57 62 77 80 73
137 194 238 204 343 342 309 361 277 57 81 18 49 85 80 76 88 81 78 80 75 83 95 78 78 81 74 82 59 41 66 119 105 101 93 81 82 80 78 93 94 81 71
115 156 217 183 305 338 259 320 231 111 31 79 110 94 98 90 97 83 99 91 84 89 100 113 100 134 131 100 84 46 58 135 117 104 99 99 112 116 114 107 81 79 89
109 108 188 175 294 296 271 277 282 355 67 59 151 114 123 135 116 96 127 113 96 119 121 130 145 155 163 155 116 86 99 155 146 105 108 112 119 129 132 81 62 73 87
138 92 237 357 398 371 320 282 250 124 108 141 177 174 176 152 165 189 164 158 137 141 138 151 141 172 181 178 167 174 232 188 185 143 124 122 122 139 125 88 69 87 84
152 183 159 127 213 213 171 155 227 222 176 146 189 168 190 156 137 166 191 196 171 148 142 162 172 209 229 237 219 185 279 327 255 157 159 108 115 138 110 99 67 81 90
159 244 197 163 190 187 211 193 98 141 122 165 182 232 222 218 213 200 215 223 214 160 152 210 255 269 300 312 293 275 322 278 188 252 156 93 103 142 113 104 75 83 92
326 350 297 344 290 299 123 115 90 118 144 186 191 230 235 255 221 209 200 124 146 107 189 237 256 288 380 355 361 322 320 306 183 212 102 112 113 129 161 129 99 99 105
318 284 238 189 251 261 286 124 130 113 120 118 110 169 167 145 169 190 189 110 181 164 170 188 233 340 381 425 403 384 326 302 223 182 98 100 147 216 157 144 112 110 107
75 257 73 72 113 91 94 108 124 111 102 142 142 160 150 135 166 182 164 148 114 134 195 246 309 393 471 568 469 358 347 266 227 128 77 138 231 212 165 133 122 119 100
79 111 175 110 105 99 130 79 93 67 146 98 129 87 59 113 145 103 166 206 172 188 136 250 310 344 345 382 430 428 304 222 168 118 128 152 172 160 143 142 129 120 116
81 104 75 84 114 139 102 61 50 103 107 73 69 -44 -17 78 97 176 172 176 242 182 194 195 180 203 233 299 318 291 222 168 106 133 128 126 132 151 136 126 120 117 111
53 61 57 52 56 89 93 60 44 51 69 79 94 110 106 85 75 114 136 151 147 170 165 200 207 160 157 199 253 261 223 180 155 116 123 117 120 119 110 109 128 136 140
61 60 58 68 80 92 92 89 98 68 67 61 65 64 75 66 55 76 105 113 146 171 236 276 245 219 188 227 241 236 218 216 179 139 135 138 128 105 83 97 128 143 156
89 108 117 123 118 97 81 93 103 118 121 109 104 109 102 103 96 113 110 127 148 195 185 286 330 299 221 290 283 279 241 198 193 159 145 131 110 98 99 121 132 132 136
58 56 51 60 87 121 136 162 155 135 115 113 122 115 100 106 121 116 133 127 185 206 232 307 354 405 422 327 314 252 261 186 185 167 145 134 109 106 117 122 115 128 137
58 80 105 119 103 78 64 72 86 112 135 160 155 126 121 131 132 106 118 141 143 177 206 314 359 297 275 283 216 220 196 198 147 149 154 155 152 163 134 129 130 108 108
55 58 63 61 77 87 138 197 189 139 115 82 93 130 152 155 142 140 124 113 140 162 213 308 367 351 362 361 262 223 241 247 181 142 162 160 172 164 159 156 116 110 99
68 83 80 66 69 67 87 126 142 93 121 156 160 125 111 117 147 130 166 136 125 98 145 255 272 303 311 322 320 273 304 317 196 128 157 136 155 138 143 142 108 100 94
33 22 27 46 65 77 63 59 75 36 53 67 91 120 145 143 139 142 138 148 168 137 117 162 199 222 200 288 198 219 268 262 207 162 167 134 137 124 137 138 108 104 96
-4 -11 -6 2 0 1 64 109 107 61 42 63 66 34 54 85 125 175 134 124 136 142 154 163 155 207 221 254 320 392 307 314 224 188 150 165 139 157 150 138 133 104 85
77 77 70 57 46 56 47 54 66 50 73 94 90 116 136 83 89 149 134 130 136 128 132 162 196 168 159 151 115 206 274 248 279 206 159 213 192 149 156 163 166 145 116

GFSMA_con_3kmhel_102.txt.gz
Helicity
33 48 51 35 49 61 71 128 107 91 104 97 101 91 73 61 52 62 54 74 48 11 -13 -13 4 3 3 4 3 2 8 13 14 14 18 21 28 24 17 13 20 23 34
58 48 65 83 73 64 83 84 92 81 133 120 120 97 90 83 64 63 64 58 58 34 0 -13 5 6 0 1 -1 2 7 10 31 30 32 41 51 43 59 60 51 48 55
50 36 52 73 89 84 79 97 109 110 140 187 191 126 90 81 74 64 70 65 60 50 27 -5 -3 5 9 1 5 4 18 31 47 51 46 49 54 54 62 59 43 51 70
51 61 74 81 90 110 108 132 143 183 191 251 248 261 147 100 79 76 70 72 62 67 62 34 12 6 14 10 14 18 25 35 69 70 62 64 72 67 71 66 59 69 79
60 75 90 82 93 121 145 153 142 177 229 240 257 222 280 189 111 108 95 66 58 66 62 62 46 29 32 32 17 21 31 48 79 79 75 80 86 81 83 72 73 76 82
72 85 90 75 82 112 117 162 169 170 191 202 249 279 277 305 205 205 152 110 57 52 63 53 59 59 34 34 34 16 29 49 74 90 90 87 92 89 94 101 97 85 97
83 95 104 92 103 107 101 110 127 163 176 219 235 223 293 229 137 183 197 188 109 56 48 74 83 67 74 55 64 50 38 44 67 76 79 91 90 110 106 114 122 117 142
82 96 103 97 77 115 93 125 149 183 194 263 340 265 251 230 225 247 299 353 104 109 81 72 73 78 105 104 68 84 77 54 55 87 67 78 103 123 139 155 150 131 137
62 80 90 98 87 113 142 127 134 195 213 254 360 392 371 381 278 311 306 253 228 119 64 103 107 90 84 90 105 106 121 100 59 80 105 83 137 155 155 145 161 141 136
42 55 78 80 105 142 127 127 139 244 295 401 342 291 296 305 372 397 402 305 119 47 62 108 151 128 131 142 129 115 114 132 104 71 119 141 151 178 175 151 138 161 130
81 70 62 75 122 161 156 152 185 278 340 384 370 258 282 360 472 462 366 319 179 165 124 107 159 199 175 139 133 123 126 97 109 106 143 174 180 185 184 140 127 129 99
50 120 140 80 109 130 140 170 179 188 301 409 433 488 327 442 419 445 326 339 236 68 42 84 112 109 104 126 118 141 110 121 116 137 175 170 202 184 161 125 143 111 98
107 172 123 250 127 63 121 218 248 246 204 215 232 273 335 357 549 458 350 261 129 12 -3 -7 48 40 101 118 114 137 202 131 136 138 167 169 219 191 182 122 203 146 116
125 108 131 118 171 198 126 106 72 97 184 166 220 211 152 179 252 273 255 209 94 108 69 45 28 47 82 77 121 94 167 130 153 173 194 213 276 242 228 250 222 182 119
79 134 60 66 63 120 133 196 236 149 48 99 129 107 135 124 114 139 130 60 76 86 64 86 133 152 140 143 125 152 137 193 236 254 293 364 398 376 286 233 233 153 110
39 54 36 88 53 103 113 85 116 158 135 173 183 102 104 102 109 103 90 134 149 150 112 119 99 140 174 189 143 151 190 200 237 317 530 579 464 413 243 253 203 137 97
70 71 63 53 33 38 38 60 61 96 69 70 83 27 124 179 72 45 111 162 208 234 189 167 196 144 153 145 135 129 198 193 236 359 579 535 425 287 250 207 178 101 93
46 46 60 61 61 57 63 68 73 63 70 83 83 51 44 11 53 120 18 47 97 72 124 145 192 175 152 142 136 163 189 215 266 306 365 404 250 233 207 192 141 89 85
30 38 46 49 51 51 55 60 66 80 90 96 94 92 89 85 73 48 70 112 147 112 91 85 110 145 143 170 191 222 198 209 225 194 207 257 213 191 195 112 87 88 75
38 36 27 28 31 31 44 60 68 81 85 87 95 105 107 106 112 101 97 111 117 130 141 143 160 174 189 194 199 177 200 242 264 304 241 250 207 166 86 87 98 88 89
13 21 32 44 45 36 28 42 47 45 54 75 91 96 101 115 119 108 106 113 129 129 151 140 166 216 197 197 222 267 220 288 320 425 382 345 307 239 173 116 121 117 76
48 36 29 33 45 62 99 121 120 116 113 96 74 67 86 104 120 150 157 156 128 133 154 178 174 162 162 185 183 279 329 415 407 342 465 503 323 283 206 164 128 109 66
9 9 9 8 8 13 31 52 61 46 42 55 82 109 129 122 117 138 171 177 204 181 117 130 159 163 154 123 186 229 273 314 371 453 497 398 382 332 224 181 124 105 73
42 47 45 33 31 22 27 34 35 7 1 6 12 14 0 52 119 157 174 180 189 193 225 210 167 146 128 83 110 164 206 259 372 409 459 482 500 502 327 221 92 90 76
65 69 59 51 41 42 41 61 77 68 58 56 47 51 53 52 78 126 123 120 153 181 167 217 254 215 171 71 79 118 248 315 400 540 461 541 586 480 222 230 205 104 84
75 68 61 51 52 65 80 102 114 99 87 86 88 87 84 102 132 146 137 134 112 140 179 184 165 202 246 184 60 118 172 256 369 424 583 576 516 394 346 255 232 212 148

GFSMA_con_3kmhel_105.txt.gz
Helicity
121 62 48 19 77 58 54 91 98 72 81 53 84 105 112 95 86 111 109 120 92 60 18 15 19 19 6 7 8 9 9 10 8 11 12 8 9 12 6 5 19 24 33
87 88 79 74 71 80 53 79 98 90 62 107 85 129 124 149 112 105 115 129 95 90 44 21 17 23 13 4 -1 -3 2 10 15 17 19 23 27 29 28 41 47 48 48
78 75 76 72 44 66 70 98 109 112 97 98 126 111 165 126 147 136 138 126 121 88 81 38 18 17 24 18 9 6 4 9 14 32 32 31 32 34 32 30 42 49 55
86 89 73 60 41 61 72 87 134 151 127 134 158 150 194 227 173 144 115 122 141 106 90 70 57 31 24 24 25 15 17 20 28 51 48 43 44 44 39 36 43 55 59
85 90 80 70 74 92 106 129 115 128 176 189 179 177 194 239 205 167 192 184 146 143 145 101 83 69 54 37 27 25 22 34 37 59 72 58 50 49 43 49 54 68 64
76 85 99 100 99 113 121 110 113 117 135 184 207 182 180 216 261 231 202 179 130 170 152 163 146 106 62 59 41 29 24 32 39 46 67 62 57 53 53 59 75 81 78
81 103 117 124 118 115 111 98 108 110 138 176 209 166 194 210 245 305 397 279 251 224 146 144 148 108 94 52 60 55 48 31 39 45 55 69 57 53 56 70 97 104 107
92 104 127 131 119 128 113 111 117 143 151 161 206 183 178 190 185 241 286 274 307 212 198 173 172 158 119 95 105 66 64 50 46 57 60 67 53 55 70 92 114 113 130
46 75 90 119 122 128 157 144 125 130 157 169 193 240 235 280 234 248 248 330 277 244 276 190 187 186 160 107 147 114 75 62 74 67 56 60 70 64 87 118 134 140 141
184 159 144 137 111 132 140 139 122 142 180 184 197 214 212 299 292 355 216 251 255 247 244 236 240 190 186 137 125 93 99 92 69 78 73 77 90 84 105 135 151 163 156
155 177 158 113 85 88 93 100 117 148 177 169 171 224 213 269 276 318 307 296 323 183 232 281 261 203 235 127 208 219 156 100 57 33 34 40 81 119 112 125 153 175 165
186 143 136 112 113 118 72 83 109 124 179 152 172 248 331 386 295 343 355 406 402 394 474 400 488 276 157 136 87 32 54 47 73 56 52 43 68 104 182 173 152 174 175
237 171 165 102 151 101 274 203 98 127 84 140 163 215 250 302 278 308 367 346 391 519 481 545 392 183 138 22 64 63 94 86 89 70 28 35 67 120 187 217 168 167 149
189 182 125 120 89 130 79 257 240 274 149 122 170 235 260 233 217 274 301 413 405 349 367 370 226 187 82 80 94 61 117 50 54 57 63 84 69 130 204 306 208 175 277
22 103 83 59 63 100 16 52 122 167 248 259 156 102 80 146 153 139 143 151 230 246 267 246 232 111 157 157 135 131 135 72 66 49 32 45 87 189 293 268 212 230 322
43 28 42 27 30 45 -7 -55 -52 40 89 118 116 89 125 160 77 139 157 146 154 133 132 151 96 136 153 188 131 160 108 147 136 114 85 107 94 207 312 379 452 390 312
58 71 67 67 42 35 36 15 3 26 31 59 60 64 71 51 70 249 269 117 152 148 107 73 157 190 201 220 191 185 203 144 132 90 93 87 138 250 411 428 494 354 261
41 40 34 35 30 24 30 51 64 51 58 56 56 41 -42 -65 -14 -2 17 83 150 138 95 158 15 335 179 183 151 117 50 99 108 88 65 77 159 317 468 543 441 312 263
35 39 43 44 38 34 40 43 45 50 57 64 66 71 72 91 79 72 23 -23 11 35 61 99 109 77 85 86 122 129 108 100 147 116 101 207 342 446 625 504 291 289 233
47 51 53 51 50 51 60 64 63 64 61 64 73 79 81 81 77 80 93 104 66 63 72 56 77 125 118 109 124 124 103 123 120 135 135 197 233 269 234 173 271 252 245
23 31 39 50 56 57 78 61 63 57 55 59 83 98 100 105 86 65 72 85 94 83 76 74 88 74 64 108 127 98 93 147 132 169 202 206 243 227 209 235 245 240 207
73 79 82 81 84 87 99 109 103 84 87 96 90 80 76 78 116 149 139 123 98 93 111 111 114 114 117 101 107 122 149 141 156 143 251 248 299 349 368 331 262 237 149
16 14 11 12 16 26 37 44 52 40 32 34 55 71 88 102 87 89 128 156 154 131 122 148 150 157 158 140 134 108 140 171 119 177 196 258 371 349 368 320 297 241 195
35 33 31 37 48 36 26 11 22 18 23 20 14 4 -1 31 82 116 114 115 120 122 121 118 140 149 172 191 194 205 121 129 183 193 93 237 328 345 435 394 334 260 206
45 48 58 60 62 58 48 55 61 57 48 46 46 50 54 50 27 55 38 47 90 113 110 127 76 93 122 139 124 152 173 158 188 217 205 186 317 360 397 454 381 280 220
74 73 67 54 29 36 -3 36 67 53 39 55 75 74 64 53 63 79 63 46 38 33 85 117 106 73 73 81 105 126 152 195 194 219 182 288 276 372 396 407 505 361 389

GFSMA_con_3kmhel_108.txt.gz
Helicity
105 66 67 125 150 90 131 126 130 117 117 81 69 54 141 136 98 128 188 187 132 111 84 47 31 34 26 20 16 16 15 16 15 14 10 7 6 4 3 -1 -2 5 11
118 123 105 117 142 123 102 95 116 115 130 142 83 70 74 146 171 139 160 186 169 116 105 77 41 35 33 25 18 10 14 10 12 13 16 14 13 12 11 14 15 21 31
112 99 110 119 106 95 65 70 93 102 123 123 141 111 137 162 202 181 172 217 176 156 109 103 72 45 44 30 23 19 24 19 16 21 29 26 26 25 21 23 23 32 31
129 125 112 84 71 78 70 68 82 106 113 108 127 132 145 170 121 220 196 217 219 180 138 111 117 94 63 47 31 13 20 28 32 26 27 42 35 30 29 31 33 36 37
138 123 112 86 76 66 63 85 107 120 120 112 116 123 160 206 218 225 226 203 179 239 232 138 136 134 115 82 51 47 34 27 43 46 37 52 52 40 39 39 34 44 43
186 170 117 104 104 105 101 103 120 131 141 145 131 134 147 187 237 245 237 235 214 232 252 223 169 143 122 106 84 61 50 41 37 47 55 48 63 47 49 49 41 56 43
172 163 133 132 122 98 95 109 144 133 131 162 163 125 142 187 190 212 244 237 201 210 227 258 246 230 180 114 86 91 72 44 42 64 66 52 62 60 51 49 54 59 66
199 194 185 144 118 108 107 128 155 165 184 195 184 133 129 117 167 201 244 263 228 242 298 318 284 231 266 230 131 80 79 56 47 56 68 69 70 72 58 45 58 73 83
239 202 189 156 132 114 99 118 151 167 180 179 213 205 148 151 152 187 189 247 273 255 269 286 341 307 265 201 183 113 140 95 68 46 71 78 74 79 57 45 61 81 97
181 101 112 121 102 86 83 98 118 145 151 145 172 194 189 210 209 160 173 177 260 223 244 284 324 336 296 244 218 138 156 153 89 50 31 76 83 65 55 53 63 83 114
186 158 160 137 112 87 122 108 100 107 152 146 160 167 177 196 176 187 190 267 171 238 244 290 307 283 263 245 248 205 201 193 113 48 11 22 51 57 54 61 65 81 112
112 157 187 160 113 128 97 121 124 188 116 152 162 186 189 203 185 177 256 254 357 326 278 303 282 250 242 316 328 288 174 91 123 46 30 6 56 68 47 73 106 89 120
152 158 173 193 214 160 132 101 119 227 316 267 97 150 206 190 169 171 198 234 351 322 369 428 424 403 361 384 329 359 298 251 65 69 72 68 64 51 40 39 105 191 124
276 244 192 149 51 88 72 32 64 62 221 357 436 348 186 99 218 253 226 265 278 362 452 401 405 481 458 406 452 439 349 113 87 52 60 42 63 92 86 47 64 130 89
116 41 22 65 31 -1 -10 -11 -42 111 120 43 193 294 242 192 218 114 106 86 141 143 154 205 292 347 329 368 242 251 315 105 117 118 118 110 116 94 70 58 43 99 197
16 14 21 25 28 16 10 -15 -29 -35 -51 2 41 116 115 83 127 124 144 159 90 107 134 144 165 160 241 247 146 205 113 116 95 79 122 112 80 8 48 36 62 138 253
26 37 50 59 60 68 69 51 36 9 -30 -38 -65 -47 25 26 93 55 63 84 169 255 156 115 140 159 173 157 169 142 156 125 99 57 63 60 40 48 34 47 86 176 256
29 32 39 36 32 38 48 48 54 64 66 64 66 65 62 41 30 -8 -34 -7 11 -62 116 110 47 103 213 212 181 201 133 132 136 134 98 108 62 65 72 68 108 222 427
27 29 27 30 34 39 29 52 66 73 73 79 60 65 57 61 56 49 44 67 34 9 28 62 73 19 59 118 117 113 94 80 79 77 65 43 54 47 19 58 189 366 498
45 42 42 41 42 38 53 66 64 67 70 76 83 81 80 68 68 82 89 102 93 79 81 66 19 8 13 40 39 68 62 53 64 60 39 43 22 5 -47 34 218 472 447
46 48 52 56 57 56 51 30 8 14 29 44 47 53 63 83 104 97 86 90 95 98 100 89 93 80 77 67 29 14 29 47 60 48 46 64 132 138 134 259 444 353 245
73 69 69 66 61 63 72 77 76 46 56 55 53 51 48 47 54 94 113 132 126 103 108 106 95 96 100 103 109 118 98 82 47 28 52 74 121 175 177 205 200 192 242
61 55 49 44 38 39 44 43 47 49 58 64 65 69 76 67 82 70 80 111 123 143 135 100 101 105 118 135 121 128 145 131 115 85 55 94 136 173 211 213 200 233 259
73 68 64 66 63 56 44 30 35 38 34 32 32 35 46 65 80 96 78 71 83 94 100 111 136 122 88 87 81 92 116 128 100 117 110 114 117 149 203 219 166 232 322
81 81 76 72 69 58 20 12 22 63 44 51 66 74 70 62 46 41 75 89 116 123 113 119 144 151 144 126 116 118 140 138 137 91 96 179 155 156 169 195 223 188 201
91 101 95 92 47 47 19 37 55 54 25 21 49 62 79 100 127 138 92 55 58 71 116 130 93 84 99 88 84 90 104 137 148 143 104 160 200 214 174 162 195 231 270

GFSMA_con_3kmhel_111.txt.gz
Helicity
118 117 123 96 93 93 91 122 121 112 109 111 114 103 120 108 115 109 106 120 131 130 111 91 77 58 54 45 40 33 27 21 17 16 12 10 11 8 9 11 11 13 12
142 127 132 105 113 114 105 114 140 124 126 118 107 98 109 126 118 112 100 143 141 152 117 102 88 80 62 58 43 37 35 26 16 14 17 14 16 14 15 17 19 17 22
134 141 136 141 167 145 116 89 74 90 109 132 121 109 104 119 152 141 167 191 178 164 150 109 93 91 83 65 69 51 47 42 38 21 18 24 27 27 23 28 36 37 36
121 132 163 148 137 139 128 108 83 74 71 94 114 103 117 123 124 155 200 228 179 238 181 152 125 105 96 77 66 76 77 64 56 38 28 28 44 39 33 34 37 40 36
154 150 152 129 113 121 116 102 97 88 70 72 80 80 89 99 123 152 168 178 196 230 245 196 158 117 107 105 69 58 70 77 71 62 57 51 52 50 41 40 42 45 40
105 140 182 167 125 118 107 101 75 84 102 99 85 82 99 117 145 168 200 220 235 257 235 227 222 190 143 125 104 78 68 84 85 88 70 69 65 60 48 51 51 52 46
78 130 186 178 218 177 130 109 96 94 104 112 97 90 93 118 150 153 177 213 209 225 249 226 244 266 216 127 115 101 72 76 85 86 87 94 80 64 55 48 56 59 49
292 255 294 276 241 167 134 114 98 73 81 93 119 107 51 50 120 161 172 184 192 213 233 284 259 240 282 225 200 118 104 74 69 82 91 99 88 74 55 61 57 58 48
216 228 220 170 131 108 106 122 105 100 89 96 142 167 174 153 85 98 97 151 173 202 209 220 236 255 242 270 297 214 152 120 77 77 77 106 105 105 66 68 58 57 54
148 196 226 200 143 110 123 104 100 95 98 81 118 172 176 191 161 92 152 139 133 147 170 202 234 280 293 273 268 249 200 144 95 65 70 73 107 87 75 76 69 52 65
59 88 121 153 131 96 120 95 82 41 105 123 132 124 155 136 162 172 127 137 157 170 173 198 201 232 226 234 314 325 219 179 100 83 75 67 78 76 57 50 46 56 51
124 145 146 150 128 82 103 113 117 63 -56 86 153 229 157 148 123 129 150 143 175 167 200 226 212 247 270 267 273 267 242 173 116 118 113 105 87 95 85 81 87 94 87
95 123 125 155 155 149 141 121 77 91 105 57 59 115 246 263 192 134 146 154 200 259 253 249 299 272 242 229 218 192 218 207 180 169 148 99 120 86 89 95 47 67 87
101 112 129 183 217 163 147 100 46 22 50 38 39 60 146 183 268 292 354 116 257 212 219 240 281 295 288 311 230 251 266 212 230 252 180 200 232 142 61 52 89 36 31
100 161 152 94 84 60 48 36 23 10 10 2 23 53 136 84 96 259 250 289 213 94 181 121 191 175 284 256 328 368 353 303 267 258 233 239 178 200 133 96 87 50 63
26 29 26 23 36 35 38 36 51 33 36 22 -13 -10 -20 -44 -0 93 345 155 129 223 211 159 97 96 128 148 178 197 270 306 248 191 166 161 170 123 137 118 111 84 97
31 30 33 33 32 39 38 38 50 68 62 58 39 38 52 38 -9 -22 -39 -11 44 43 148 136 192 205 120 116 152 158 147 178 197 154 131 105 76 84 91 96 89 87 69
37 36 40 47 52 58 52 62 64 82 83 75 72 61 60 35 31 51 48 54 32 26 35 114 110 150 132 198 141 141 150 173 157 157 112 96 85 89 93 103 106 102 64
36 39 43 50 54 64 59 63 56 68 80 83 78 75 67 50 50 56 36 39 37 51 16 11 13 -40 23 34 106 129 135 143 97 122 136 104 114 93 77 82 88 55 61
39 38 40 39 45 49 45 52 60 51 54 62 72 82 77 60 55 62 45 67 53 45 48 59 48 77 66 43 44 29 82 80 57 149 128 75 92 76 72 72 61 57 53
59 60 62 65 66 59 64 64 31 19 38 65 75 69 66 78 91 83 66 55 57 67 73 69 62 69 82 113 126 77 34 43 -19 -6 49 31 48 51 47 70 54 13 -11
83 84 92 88 92 101 117 116 110 74 43 53 69 88 93 81 79 105 82 91 85 83 85 73 85 94 107 93 104 117 98 31 1 19 -15 17 33 82 89 69 59 41 108
92 97 98 85 86 92 89 86 81 73 69 69 66 67 77 84 107 90 62 58 68 116 130 107 91 93 100 100 80 92 99 96 94 127 81 36 81 124 131 127 112 114 176
109 96 94 92 87 98 95 90 72 74 70 56 43 46 47 52 73 119 85 65 47 45 65 112 110 77 74 91 88 86 112 121 110 95 72 68 50 106 142 156 145 105 131
108 103 95 91 87 79 68 70 62 43 28 20 37 49 49 55 75 111 106 63 54 67 72 88 101 115 120 136 127 87 104 106 105 123 132 126 92 97 141 174 204 170 137
104 98 87 78 67 73 59 59 63 58 48 44 28 9 6 41 72 96 98 83 51 39 63 86 103 93 61 76 132 100 99 123 127 96 101 128 143 125 104 92 178 222 184

GFSMA_con_3kmhel_114.txt.gz
Helicity
117 128 110 112 104 111 102 116 122 123 113 104 97 104 104 104 110 104 94 67 60 58 49 81 80 61 54 44 41 35 36 36 33 28 23 19 18 19 16 17 20 20 18
109 143 126 126 124 126 130 118 121 120 121 114 98 112 112 115 106 100 103 101 73 63 76 72 108 87 63 51 39 44 49 41 43 37 30 24 22 22 22 18 21 20 24
98 110 143 128 129 129 148 151 128 120 111 104 94 97 113 117 122 99 102 107 121 91 100 91 94 93 93 70 60 47 54 53 48 48 45 36 32 32 30 27 30 33 37
77 97 148 132 133 146 153 192 168 141 123 110 96 92 93 100 91 95 117 135 143 149 120 85 93 125 104 93 62 62 74 77 71 57 54 50 45 49 40 37 42 44 49
119 113 128 134 132 155 175 178 162 148 130 105 86 80 84 87 82 86 101 128 154 167 196 182 107 145 141 119 99 78 81 92 88 77 67 64 60 60 49 46 49 50 52
132 104 149 128 130 137 141 156 154 156 121 103 101 93 89 93 92 99 101 132 155 174 224 249 204 200 160 123 120 88 82 95 99 85 83 76 73 74 69 51 50 52 51
150 100 82 118 171 182 217 263 204 171 142 100 75 66 68 79 97 121 139 147 167 185 201 236 257 261 246 174 136 131 113 91 100 100 83 90 82 86 76 62 53 55 55
97 136 166 187 205 262 260 236 184 131 88 53 70 48 2 -21 16 21 59 97 140 192 200 211 219 233 260 272 242 166 153 110 83 94 101 99 105 93 92 74 61 55 55
117 121 90 178 150 64 147 151 165 132 109 58 87 83 52 8 -38 24 72 101 106 161 189 190 197 194 206 228 227 228 188 174 103 103 99 103 119 111 99 94 67 66 66
93 90 55 32 38 63 23 55 131 109 81 78 65 80 90 91 74 24 84 103 110 148 171 180 182 188 198 223 211 226 235 209 115 97 105 97 103 109 101 95 86 74 89
106 72 86 34 35 55 103 124 119 93 81 62 49 11 5 84 104 112 62 95 110 122 196 197 198 189 184 196 211 219 220 212 155 116 92 108 92 95 84 92 84 98 104
115 116 49 20 70 85 95 115 128 121 116 108 106 81 41 21 84 122 140 124 74 111 172 211 225 226 212 229 229 193 232 193 161 125 111 98 100 109 77 103 84 97 98
100 123 125 122 84 85 101 98 99 118 133 140 118 93 109 149 84 51 118 33 87 105 110 199 222 226 237 218 227 202 237 212 168 101 58 73 122 153 105 115 93 100 96
61 89 103 98 108 107 151 137 92 68 63 45 49 69 44 74 61 76 104 109 57 95 165 105 172 217 192 200 214 188 235 170 114 96 68 83 93 131 144 120 103 123 135
35 32 39 61 77 82 58 47 31 14 21 3 2 21 41 40 26 57 60 200 167 142 344 281 270 277 229 97 192 191 223 153 105 80 105 110 145 192 161 198 180 112 141
33 27 27 33 43 48 48 46 59 71 73 76 64 57 47 37 33 2 -33 12 35 187 201 256 214 289 226 186 224 121 132 166 115 119 159 185 187 174 171 149 165 150 160
27 27 27 29 37 42 50 61 66 68 72 83 102 105 107 94 65 59 67 65 52 48 63 54 103 85 195 240 172 159 112 79 82 94 139 201 164 212 191 160 170 167 153
41 42 49 56 64 68 66 74 77 88 87 91 98 100 108 107 94 73 58 59 60 73 53 38 62 37 87 222 246 243 166 150 152 160 105 52 85 99 109 113 135 126 97
54 69 80 85 88 97 101 91 87 87 85 85 86 87 85 74 80 84 77 71 66 53 50 49 57 50 50 -11 46 13 75 139 180 216 221 197 240 179 179 152 123 82 94
67 74 76 74 71 61 62 70 68 71 71 73 68 85 97 96 92 87 69 70 49 44 54 48 44 51 50 61 -0 -68 -31 16 110 210 213 213 197 220 156 210 124 121 106
95 89 88 95 98 88 91 95 88 66 55 80 97 95 98 109 114 120 79 64 47 32 25 33 39 52 41 61 62 57 51 57 -34 -89 62 157 229 151 163 196 141 111 82
113 124 129 117 118 122 117 131 121 102 80 68 56 55 80 104 116 147 160 130 59 32 16 -2 13 33 62 58 60 56 42 18 28 77 -11 -11 -8 60 112 82 140 119 104
117 116 118 127 130 135 124 117 117 96 90 79 69 55 58 69 85 81 93 129 105 68 80 32 -0 20 24 36 41 56 67 64 65 88 81 -23 38 25 37 48 65 94 98
130 131 127 127 128 130 135 124 118 98 76 63 58 63 60 63 70 91 80 75 77 79 67 71 68 46 24 38 6 12 42 54 37 71 47 -8 26 37 55 71 94 86 102
132 135 127 128 126 116 109 104 85 75 70 64 63 65 67 77 77 98 96 75 73 64 77 89 93 102 95 81 73 11 20 21 15 59 88 31 60 49 72 93 89 130 132
132 137 128 126 105 103 84 66 81 90 91 96 81 74 55 59 47 57 81 89 76 63 80 74 76 80 92 88 65 37 5 17 26 11 34 102 137 54 49 61 138 163 163

GFSMA_con_3kmhel_117.txt.gz
Helicity
111 109 103 108 109 100 102 111 121 128 124 138 133 127 123 112 109 113 109 71 49 41 31 18 29 40 39 35 32 35 41 24 20 21 23 25 26 27 27 26 25 23 22
154 122 101 103 109 107 102 109 122 143 128 138 129 125 109 118 121 115 105 95 57 43 38 34 24 43 44 41 39 42 44 50 34 27 26 26 29 29 28 28 29 30 26
169 163 140 108 90 112 111 102 103 133 123 141 120 119 114 107 107 104 109 105 102 65 44 24 47 47 67 53 38 45 47 57 63 50 45 39 36 41 35 35 31 32 30
165 163 151 130 92 103 138 145 132 130 116 123 128 135 126 116 98 104 110 119 105 100 76 56 65 82 66 73 46 44 63 75 93 88 73 59 54 48 51 45 43 40 40
135 161 163 145 135 113 122 156 150 134 127 129 130 131 131 127 113 104 91 90 88 103 120 100 78 108 149 109 81 72 84 86 87 104 92 85 75 64 57 50 52 44 52
143 139 124 129 71 139 108 130 143 159 157 164 165 140 117 111 112 115 106 101 100 100 118 131 137 148 149 160 137 98 92 87 87 97 112 104 84 83 80 72 66 49 53
93 71 94 135 120 40 152 143 153 173 215 210 163 131 98 85 105 122 125 127 122 117 119 142 182 201 195 146 138 126 108 107 96 105 116 118 105 84 91 89 88 87 58
97 84 100 91 164 118 102 182 303 242 239 237 206 130 86 89 77 84 93 78 53 52 75 100 142 176 205 218 192 141 135 126 118 105 103 123 119 100 91 95 97 91 85
122 124 119 118 107 101 95 91 -0 24 122 149 273 183 162 137 88 -0 10 33 47 87 104 105 132 172 195 215 202 190 154 129 133 119 112 109 129 124 104 91 95 101 101
121 131 114 113 117 102 121 85 24 -54 -10 9 -17 105 117 84 65 -40 -98 -21 16 47 80 127 168 164 164 188 174 169 171 162 116 97 104 113 100 120 103 93 98 95 108
56 66 106 131 113 99 58 89 84 80 102 130 99 53 85 97 111 62 -58 -19 16 74 120 87 129 167 179 181 174 170 166 152 127 96 54 83 116 105 90 104 101 98 108
55 71 58 41 58 72 85 74 129 132 137 118 102 102 105 98 96 63 35 33 -6 1 68 68 82 125 145 196 202 177 177 169 146 121 72 63 95 115 96 110 100 118 105
64 62 54 56 45 35 52 71 79 99 102 106 108 119 131 127 117 124 114 65 -6 -52 -55 15 106 103 219 264 150 118 184 143 171 110 45 63 76 78 94 110 110 126 100
23 34 26 20 25 30 34 38 49 78 103 97 83 76 81 100 108 125 100 80 48 41 11 1 14 87 224 294 355 444 164 105 97 83 77 109 78 144 109 157 128 121 129
41 38 26 23 23 30 36 40 31 48 45 49 65 78 73 68 73 90 90 80 91 62 44 37 31 -14 84 279 388 389 368 397 125 131 123 119 151 158 140 133 128 129 131
56 54 55 57 61 68 73 83 86 94 109 118 121 126 125 112 90 77 70 75 109 100 56 72 2 -28 -131 -8 222 275 416 290 370 193 166 121 118 119 134 126 171 120 172
48 53 55 61 65 67 71 77 72 76 78 81 88 88 83 84 85 92 102 94 99 82 79 49 48 27 8 -117 -66 38 134 163 285 388 466 235 160 115 97 160 188 155 153
61 68 83 90 93 92 89 88 93 89 96 97 95 102 110 108 107 102 103 99 101 95 90 62 31 47 50 41 8 -66 -19 85 186 231 440 200 255 178 141 167 183 151 157
68 86 93 97 93 92 92 93 88 79 83 88 96 102 104 110 117 129 138 113 116 94 81 52 40 41 26 19 41 36 14 -36 83 263 246 294 319 193 163 222 127 156 133
95 103 102 93 86 77 79 90 89 86 85 86 85 91 91 100 99 98 102 99 89 73 62 47 34 30 28 39 -8 -19 22 23 -33 67 146 197 297 332 332 280 224 195 166
99 95 103 106 103 98 97 97 96 95 83 77 86 99 97 96 120 118 102 95 89 72 51 22 5 -0 -8 7 3 3 -17 -34 84 28 -67 -31 76 173 215 237 215 269 320
113 127 129 120 117 121 107 119 119 122 107 95 85 79 71 71 91 113 119 127 122 77 42 25 -7 -14 -13 -22 -39 -29 -30 -42 -78 1 50 13 -50 6 121 209 278 299 317
135 130 127 125 126 127 122 124 119 134 118 98 75 71 72 82 89 95 106 108 113 122 113 79 32 15 -6 -13 -39 -59 -47 -53 -39 53 -23 -14 26 24 -44 -46 111 227 213
131 144 146 135 130 126 131 133 126 134 98 81 84 88 93 94 97 94 105 91 94 93 95 97 85 53 30 30 14 -18 -84 -73 -61 -7 -23 -124 37 52 89 87 5 -16 73
154 160 153 146 134 132 130 114 118 89 80 79 91 100 104 105 86 93 122 116 102 89 94 79 75 67 67 81 73 24 -2 -63 -100 -52 -27 -151 -59 -57 36 104 121 183 153
155 165 158 157 131 138 108 100 71 82 84 101 111 111 91 106 90 88 114 113 96 90 94 85 80 74 62 64 60 48 15 -10 -33 -141 -68 -46 -26 -110 -46 65 124 152 219

GFSMA_con_3kmhel_120.txt.gz
Helicity
142 143 123 110 111 103 101 96 103 100 98 123 142 143 144 140 134 133 129 88 66 44 32 22 23 21 27 37 30 19 34 40 24 24 25 24 24 20 20 22 24 26 25
142 158 160 144 114 111 102 95 96 93 82 93 94 106 124 139 128 120 128 127 85 65 44 33 25 21 22 32 35 35 44 48 47 29 19 31 36 31 24 24 27 28 28
127 120 123 144 156 134 114 109 100 106 107 75 87 94 116 111 110 109 109 109 117 73 60 46 35 26 13 20 30 43 53 58 65 69 63 49 42 42 37 23 32 35 36
124 132 139 127 114 109 93 98 109 107 123 121 110 109 123 109 93 103 114 105 100 104 89 19 48 20 25 23 43 41 60 68 68 93 86 81 76 65 53 56 40 49 44
161 148 136 127 123 128 116 63 86 86 111 115 131 135 135 128 118 116 111 107 108 106 100 52 31 24 26 17 62 82 60 72 70 82 108 102 95 83 72 65 64 61 51
149 139 126 117 103 92 99 105 78 88 82 106 102 118 137 141 136 130 110 109 114 109 112 110 104 92 58 30 25 58 108 94 86 97 98 114 105 100 90 83 68 64 61
123 108 92 111 125 92 106 67 30 76 49 165 99 117 104 111 131 135 120 112 112 108 116 123 121 114 105 72 64 72 76 79 108 99 103 109 108 103 110 101 91 84 62
112 90 113 92 114 125 145 156 122 26 46 70 43 118 174 168 225 195 144 148 129 113 105 103 103 96 106 128 137 116 95 71 70 92 97 124 102 112 112 133 115 100 107
104 81 89 84 90 104 96 91 122 96 71 -10 15 55 115 107 152 107 109 103 134 114 74 61 68 84 107 138 156 141 127 127 100 68 78 88 109 108 103 108 128 120 121
112 125 64 63 71 82 89 71 27 53 55 34 9 115 153 135 51 55 56 113 44 67 51 50 28 35 82 144 164 160 162 137 103 73 71 74 81 97 101 111 120 119 130
83 97 78 59 49 37 78 95 51 84 54 38 48 77 108 73 153 130 56 7 -22 1 63 95 128 101 142 247 202 249 439 374 146 93 67 57 59 72 83 95 114 113 141
60 77 74 64 64 69 52 50 50 55 1 20 1 14 37 53 96 92 42 -2 48 15 77 77 22 78 152 163 138 204 225 249 194 139 118 82 76 77 70 59 82 109 124
36 47 47 46 54 65 78 82 74 66 62 55 55 66 73 71 71 65 72 62 -6 -21 -69 35 66 45 10 19 54 166 142 248 334 251 181 111 92 92 91 83 64 93 106
33 34 36 43 49 57 69 83 84 78 82 85 92 82 83 96 103 110 60 4 -63 -61 -36 24 58 72 -23 -70 4 158 131 171 325 363 269 154 139 99 111 123 85 80 91
45 46 38 39 45 52 57 54 52 56 67 82 100 104 91 89 95 93 98 103 102 55 -4 47 29 49 53 33 6 20 77 214 239 323 457 450 331 132 104 128 136 111 100
47 42 44 51 62 72 76 84 79 74 88 81 83 97 96 94 105 112 106 103 96 102 80 86 51 36 35 28 13 -8 2 4 153 327 379 514 484 303 156 148 141 137 120
50 50 52 63 75 84 93 102 103 100 102 97 96 98 95 91 93 93 95 95 96 105 83 78 62 33 23 9 3 25 4 -5 -5 28 108 134 387 407 488 277 127 118 134
66 72 80 87 93 96 93 93 90 89 88 97 96 108 108 107 107 105 104 99 96 92 72 44 50 27 18 3 -1 -12 -9 -13 -25 27 78 65 390 373 553 464 396 133 135
77 84 95 98 95 98 96 89 84 79 70 68 74 78 74 78 80 87 97 94 96 88 82 60 37 25 7 -18 -2 -36 -29 -26 17 74 58 83 109 204 426 480 506 434 310
90 99 101 101 104 99 89 84 84 86 83 85 85 86 80 77 71 75 75 78 79 69 54 57 46 27 4 -2 -27 -40 -33 -47 -19 16 23 109 117 39 199 418 314 324 336
97 97 99 99 96 91 95 89 89 90 85 83 83 78 78 66 54 55 65 62 67 57 52 44 36 31 16 -3 -31 -60 -43 -63 -38 -113 -54 -12 38 23 -61 43 174 285 269
97 99 94 97 102 107 83 88 100 119 116 103 94 82 62 51 64 74 76 83 97 87 71 64 60 47 26 16 4 -18 -47 -67 -111 -73 -74 -5 -23 43 2 -66 35 158 305
101 98 103 122 120 118 99 95 97 140 110 107 84 70 72 83 88 91 85 98 108 103 115 117 98 78 56 43 27 14 -21 -59 -51 -33 -94 -93 -9 -17 3 72 61 -18 39
116 117 116 125 131 123 101 108 111 134 116 88 74 77 84 92 98 92 116 125 129 121 133 154 159 126 96 57 41 24 11 1 -32 -39 -76 -161 -54 -99 1 77 94 119 92
126 121 128 131 133 132 115 112 119 128 110 79 82 90 92 94 71 73 111 120 126 111 119 107 111 107 95 80 60 40 17 0 -16 -50 -46 -188 -119 -100 -31 75 28 130 180
125 130 132 132 121 134 110 104 110 136 93 80 83 99 76 89 76 74 108 115 119 121 135 123 135 126 100 76 66 65 34 -1 -17 -47 -41 -88 -101 -149 -166 -40 84 44 49